<?xml version='1.0' encoding='UTF-8'?>
<gpx version="1.1" creator="https://www.komoot.de" xmlns="http://www.topografix.com/GPX/1/1" xmlns:xsi="http://www.w3.org/2001/XMLSchema-instance" xsi:schemaLocation="http://www.topografix.com/GPX/1/1 http://www.topografix.com/GPX/1/1/gpx.xsd">
  <metadata>
    <name>GVA-MAR - Day 2</name>
    <author>
      <link href="https://www.komoot.de">
        <text>komoot</text>
        <type>text/html</type>
      </link>
    </author>
  </metadata>
  <trk>
    <name>GVA-MAR - Day 2</name>
    <trkseg>
      <trkpt lat="46.073722" lon="6.084598">
        <ele>792.979669</ele>
        <time>2017-06-02T05:49:08.367Z</time>
      </trkpt>
      <trkpt lat="46.073777" lon="6.084694">
        <ele>792.979669</ele>
        <time>2017-06-02T05:49:11.800Z</time>
      </trkpt>
      <trkpt lat="46.073832" lon="6.084692">
        <ele>792.979669</ele>
        <time>2017-06-02T05:49:13.390Z</time>
      </trkpt>
      <trkpt lat="46.073979" lon="6.084693">
        <ele>792.979669</ele>
        <time>2017-06-02T05:49:17.738Z</time>
      </trkpt>
      <trkpt lat="46.074051" lon="6.084756">
        <ele>792.979669</ele>
        <time>2017-06-02T05:49:20.065Z</time>
      </trkpt>
      <trkpt lat="46.074288" lon="6.085205">
        <ele>792.979669</ele>
        <time>2017-06-02T05:49:31.180Z</time>
      </trkpt>
      <trkpt lat="46.074347" lon="6.085230">
        <ele>792.979669</ele>
        <time>2017-06-02T05:49:33.078Z</time>
      </trkpt>
      <trkpt lat="46.073888" lon="6.085444">
        <ele>794.358493</ele>
        <time>2017-06-02T05:49:50.625Z</time>
      </trkpt>
      <trkpt lat="46.073609" lon="6.085708">
        <ele>795.484703</ele>
        <time>2017-06-02T05:50:02.700Z</time>
      </trkpt>
      <trkpt lat="46.073556" lon="6.085615">
        <ele>795.766458</ele>
        <time>2017-06-02T05:50:05.763Z</time>
      </trkpt>
      <trkpt lat="46.073249" lon="6.085064">
        <ele>797.420868</ele>
        <time>2017-06-02T05:50:23.745Z</time>
      </trkpt>
      <trkpt lat="46.072848" lon="6.085545">
        <ele>799.261950</ele>
        <time>2017-06-02T05:50:44.119Z</time>
      </trkpt>
      <trkpt lat="46.072935" lon="6.085689">
        <ele>799.982010</ele>
        <time>2017-06-02T05:50:48.324Z</time>
      </trkpt>
      <trkpt lat="46.072965" lon="6.085896">
        <ele>800.779432</ele>
        <time>2017-06-02T05:50:53.721Z</time>
      </trkpt>
      <trkpt lat="46.073088" lon="6.086207">
        <ele>802.129364</ele>
        <time>2017-06-02T05:51:03.800Z</time>
      </trkpt>
      <trkpt lat="46.073098" lon="6.086474">
        <ele>803.137652</ele>
        <time>2017-06-02T05:51:12.582Z</time>
      </trkpt>
      <trkpt lat="46.073395" lon="6.086953">
        <ele>805.560186</ele>
        <time>2017-06-02T05:51:31.696Z</time>
      </trkpt>
      <trkpt lat="46.073522" lon="6.087183">
        <ele>806.668669</ele>
        <time>2017-06-02T05:51:39.989Z</time>
      </trkpt>
      <trkpt lat="46.073448" lon="6.087172">
        <ele>807.073034</ele>
        <time>2017-06-02T05:51:44.835Z</time>
      </trkpt>
      <trkpt lat="46.073277" lon="6.087132">
        <ele>808.014674</ele>
        <time>2017-06-02T05:51:51.779Z</time>
      </trkpt>
      <trkpt lat="46.073050" lon="6.087097">
        <ele>809.665189</ele>
        <time>2017-06-02T05:52:04.656Z</time>
      </trkpt>
      <trkpt lat="46.072108" lon="6.086952">
        <ele>819.722545</ele>
        <time>2017-06-02T05:53:02.268Z</time>
      </trkpt>
      <trkpt lat="46.071933" lon="6.086925">
        <ele>821.590999</ele>
        <time>2017-06-02T05:53:18.250Z</time>
      </trkpt>
      <trkpt lat="46.071664" lon="6.086877">
        <ele>824.468567</ele>
        <time>2017-06-02T05:53:36.464Z</time>
      </trkpt>
      <trkpt lat="46.071564" lon="6.086859">
        <ele>825.538436</ele>
        <time>2017-06-02T05:53:45.309Z</time>
      </trkpt>
      <trkpt lat="46.071047" lon="6.086669">
        <ele>831.168880</ele>
        <time>2017-06-02T05:54:20.561Z</time>
      </trkpt>
      <trkpt lat="46.070946" lon="6.086603">
        <ele>832.334061</ele>
        <time>2017-06-02T05:54:29.977Z</time>
      </trkpt>
      <trkpt lat="46.070891" lon="6.086546">
        <ele>833.045818</ele>
        <time>2017-06-02T05:54:35.367Z</time>
      </trkpt>
      <trkpt lat="46.070854" lon="6.086497">
        <ele>833.573756</ele>
        <time>2017-06-02T05:54:38.260Z</time>
      </trkpt>
      <trkpt lat="46.070804" lon="6.086408">
        <ele>834.408559</ele>
        <time>2017-06-02T05:54:43.030Z</time>
      </trkpt>
      <trkpt lat="46.070423" lon="6.085506">
        <ele>842.106504</ele>
        <time>2017-06-02T05:55:31.691Z</time>
      </trkpt>
      <trkpt lat="46.070091" lon="6.085012">
        <ele>846.991128</ele>
        <time>2017-06-02T05:55:59.364Z</time>
      </trkpt>
      <trkpt lat="46.069516" lon="6.084446">
        <ele>851.171251</ele>
        <time>2017-06-02T05:56:33.323Z</time>
      </trkpt>
      <trkpt lat="46.069007" lon="6.084152">
        <ele>854.463209</ele>
        <time>2017-06-02T05:56:57.934Z</time>
      </trkpt>
      <trkpt lat="46.068362" lon="6.083528">
        <ele>858.238466</ele>
        <time>2017-06-02T05:57:29.684Z</time>
      </trkpt>
      <trkpt lat="46.067714" lon="6.083119">
        <ele>859.986288</ele>
        <time>2017-06-02T05:57:54.046Z</time>
      </trkpt>
      <trkpt lat="46.067458" lon="6.083037">
        <ele>860.634229</ele>
        <time>2017-06-02T05:58:01.631Z</time>
      </trkpt>
      <trkpt lat="46.067194" lon="6.083171">
        <ele>861.325769</ele>
        <time>2017-06-02T05:58:09.383Z</time>
      </trkpt>
      <trkpt lat="46.066750" lon="6.083901">
        <ele>862.303310</ele>
        <time>2017-06-02T05:58:25.837Z</time>
      </trkpt>
      <trkpt lat="46.066626" lon="6.084249">
        <ele>862.478159</ele>
        <time>2017-06-02T05:58:32.368Z</time>
      </trkpt>
      <trkpt lat="46.066594" lon="6.084438">
        <ele>862.565111</ele>
        <time>2017-06-02T05:58:35.360Z</time>
      </trkpt>
      <trkpt lat="46.066575" lon="6.084589">
        <ele>862.633701</ele>
        <time>2017-06-02T05:58:37.522Z</time>
      </trkpt>
      <trkpt lat="46.066579" lon="6.085225">
        <ele>862.917971</ele>
        <time>2017-06-02T05:58:48.986Z</time>
      </trkpt>
      <trkpt lat="46.066613" lon="6.085598">
        <ele>863.086115</ele>
        <time>2017-06-02T05:58:55.477Z</time>
      </trkpt>
      <trkpt lat="46.066638" lon="6.085797">
        <ele>863.176504</ele>
        <time>2017-06-02T05:58:59.351Z</time>
      </trkpt>
      <trkpt lat="46.066753" lon="6.086274">
        <ele>863.579775</ele>
        <time>2017-06-02T05:59:08.399Z</time>
      </trkpt>
      <trkpt lat="46.067033" lon="6.086965">
        <ele>864.285631</ele>
        <time>2017-06-02T05:59:22.381Z</time>
      </trkpt>
      <trkpt lat="46.067035" lon="6.087003">
        <ele>864.319246</ele>
        <time>2017-06-02T05:59:23.776Z</time>
      </trkpt>
      <trkpt lat="46.067036" lon="6.087045">
        <ele>864.356315</ele>
        <time>2017-06-02T05:59:24.624Z</time>
      </trkpt>
      <trkpt lat="46.066821" lon="6.087735">
        <ele>865.023513</ele>
        <time>2017-06-02T05:59:39.750Z</time>
      </trkpt>
      <trkpt lat="46.066558" lon="6.088256">
        <ele>865.498011</ele>
        <time>2017-06-02T05:59:52.200Z</time>
      </trkpt>
      <trkpt lat="46.066384" lon="6.088427">
        <ele>865.471358</ele>
        <time>2017-06-02T05:59:58.274Z</time>
      </trkpt>
      <trkpt lat="46.066037" lon="6.088514">
        <ele>865.426784</ele>
        <time>2017-06-02T06:00:07.667Z</time>
      </trkpt>
      <trkpt lat="46.065855" lon="6.088537">
        <ele>865.403662</ele>
        <time>2017-06-02T06:00:11.573Z</time>
      </trkpt>
      <trkpt lat="46.065821" lon="6.088542">
        <ele>865.399337</ele>
        <time>2017-06-02T06:00:12.320Z</time>
      </trkpt>
      <trkpt lat="46.065096" lon="6.088618">
        <ele>865.307341</ele>
        <time>2017-06-02T06:00:27.138Z</time>
      </trkpt>
      <trkpt lat="46.065052" lon="6.088672">
        <ele>865.300027</ele>
        <time>2017-06-02T06:00:28.185Z</time>
      </trkpt>
      <trkpt lat="46.064959" lon="6.088603">
        <ele>865.286790</ele>
        <time>2017-06-02T06:00:29.933Z</time>
      </trkpt>
      <trkpt lat="46.064771" lon="6.088610">
        <ele>865.006426</ele>
        <time>2017-06-02T06:00:33.381Z</time>
      </trkpt>
      <trkpt lat="46.064588" lon="6.088652">
        <ele>864.604254</ele>
        <time>2017-06-02T06:00:36.512Z</time>
      </trkpt>
      <trkpt lat="46.064358" lon="6.088651">
        <ele>864.105079</ele>
        <time>2017-06-02T06:00:40.691Z</time>
      </trkpt>
      <trkpt lat="46.063665" lon="6.088559">
        <ele>862.594684</ele>
        <time>2017-06-02T06:00:52.626Z</time>
      </trkpt>
      <trkpt lat="46.063528" lon="6.088526">
        <ele>862.293227</ele>
        <time>2017-06-02T06:00:54.907Z</time>
      </trkpt>
      <trkpt lat="46.063243" lon="6.088457">
        <ele>861.666020</ele>
        <time>2017-06-02T06:00:59.824Z</time>
      </trkpt>
      <trkpt lat="46.062793" lon="6.088364">
        <ele>860.225404</ele>
        <time>2017-06-02T06:01:07.736Z</time>
      </trkpt>
      <trkpt lat="46.062675" lon="6.088395">
        <ele>859.795255</ele>
        <time>2017-06-02T06:01:09.938Z</time>
      </trkpt>
      <trkpt lat="46.062207" lon="6.088997">
        <ele>857.545607</ele>
        <time>2017-06-02T06:01:19.844Z</time>
      </trkpt>
      <trkpt lat="46.061997" lon="6.089106">
        <ele>856.745143</ele>
        <time>2017-06-02T06:01:23.393Z</time>
      </trkpt>
      <trkpt lat="46.061757" lon="6.089046">
        <ele>855.871594</ele>
        <time>2017-06-02T06:01:27.333Z</time>
      </trkpt>
      <trkpt lat="46.061568" lon="6.088803">
        <ele>854.963267</ele>
        <time>2017-06-02T06:01:31.217Z</time>
      </trkpt>
      <trkpt lat="46.061537" lon="6.088714">
        <ele>854.552497</ele>
        <time>2017-06-02T06:01:32.355Z</time>
      </trkpt>
      <trkpt lat="46.061428" lon="6.088357">
        <ele>852.826760</ele>
        <time>2017-06-02T06:01:36.349Z</time>
      </trkpt>
      <trkpt lat="46.061255" lon="6.088041">
        <ele>851.045798</ele>
        <time>2017-06-02T06:01:40.474Z</time>
      </trkpt>
      <trkpt lat="46.061032" lon="6.087963">
        <ele>849.582545</ele>
        <time>2017-06-02T06:01:43.827Z</time>
      </trkpt>
      <trkpt lat="46.060478" lon="6.088142">
        <ele>845.962238</ele>
        <time>2017-06-02T06:01:51.899Z</time>
      </trkpt>
      <trkpt lat="46.059640" lon="6.088189">
        <ele>840.319198</ele>
        <time>2017-06-02T06:02:03.780Z</time>
      </trkpt>
      <trkpt lat="46.058421" lon="6.088633">
        <ele>831.468028</ele>
        <time>2017-06-02T06:02:21.778Z</time>
      </trkpt>
      <trkpt lat="46.058251" lon="6.088746">
        <ele>830.179985</ele>
        <time>2017-06-02T06:02:24.485Z</time>
      </trkpt>
      <trkpt lat="46.057971" lon="6.089125">
        <ele>827.601185</ele>
        <time>2017-06-02T06:02:30.065Z</time>
      </trkpt>
      <trkpt lat="46.057810" lon="6.089213">
        <ele>826.445249</ele>
        <time>2017-06-02T06:02:32.563Z</time>
      </trkpt>
      <trkpt lat="46.057625" lon="6.089181">
        <ele>825.194417</ele>
        <time>2017-06-02T06:02:35.242Z</time>
      </trkpt>
      <trkpt lat="46.057169" lon="6.088808">
        <ele>821.674480</ele>
        <time>2017-06-02T06:02:42.751Z</time>
      </trkpt>
      <trkpt lat="46.056981" lon="6.088740">
        <ele>820.373275</ele>
        <time>2017-06-02T06:02:45.524Z</time>
      </trkpt>
      <trkpt lat="46.056730" lon="6.088883">
        <ele>818.599839</ele>
        <time>2017-06-02T06:02:49.418Z</time>
      </trkpt>
      <trkpt lat="46.056038" lon="6.089535">
        <ele>814.398873</ele>
        <time>2017-06-02T06:03:01.484Z</time>
      </trkpt>
      <trkpt lat="46.055851" lon="6.089529">
        <ele>813.448479</ele>
        <time>2017-06-02T06:03:04.177Z</time>
      </trkpt>
      <trkpt lat="46.055233" lon="6.089326">
        <ele>810.227834</ele>
        <time>2017-06-02T06:03:14.294Z</time>
      </trkpt>
      <trkpt lat="46.055017" lon="6.089343">
        <ele>809.134381</ele>
        <time>2017-06-02T06:03:18.190Z</time>
      </trkpt>
      <trkpt lat="46.054782" lon="6.089423">
        <ele>807.922922</ele>
        <time>2017-06-02T06:03:22.012Z</time>
      </trkpt>
      <trkpt lat="46.054666" lon="6.089499">
        <ele>807.283613</ele>
        <time>2017-06-02T06:03:24.416Z</time>
      </trkpt>
      <trkpt lat="46.054199" lon="6.089825">
        <ele>804.680199</ele>
        <time>2017-06-02T06:03:32.478Z</time>
      </trkpt>
      <trkpt lat="46.053916" lon="6.089815">
        <ele>803.259949</ele>
        <time>2017-06-02T06:03:36.759Z</time>
      </trkpt>
      <trkpt lat="46.053773" lon="6.089782">
        <ele>802.533369</ele>
        <time>2017-06-02T06:03:38.894Z</time>
      </trkpt>
      <trkpt lat="46.053363" lon="6.089689">
        <ele>800.338153</ele>
        <time>2017-06-02T06:03:44.923Z</time>
      </trkpt>
      <trkpt lat="46.052142" lon="6.089267">
        <ele>787.304186</ele>
        <time>2017-06-02T06:04:02.070Z</time>
      </trkpt>
      <trkpt lat="46.050983" lon="6.089178">
        <ele>773.839062</ele>
        <time>2017-06-02T06:04:17.318Z</time>
      </trkpt>
      <trkpt lat="46.050772" lon="6.089106">
        <ele>771.107081</ele>
        <time>2017-06-02T06:04:20.159Z</time>
      </trkpt>
      <trkpt lat="46.050672" lon="6.088983">
        <ele>769.450521</ele>
        <time>2017-06-02T06:04:21.933Z</time>
      </trkpt>
      <trkpt lat="46.050644" lon="6.088920">
        <ele>768.796360</ele>
        <time>2017-06-02T06:04:22.590Z</time>
      </trkpt>
      <trkpt lat="46.050604" lon="6.088960">
        <ele>768.182907</ele>
        <time>2017-06-02T06:04:23.273Z</time>
      </trkpt>
      <trkpt lat="46.050455" lon="6.089137">
        <ele>765.749867</ele>
        <time>2017-06-02T06:04:26.032Z</time>
      </trkpt>
      <trkpt lat="46.050419" lon="6.089145">
        <ele>765.290930</ele>
        <time>2017-06-02T06:04:26.565Z</time>
      </trkpt>
      <trkpt lat="46.050137" lon="6.089209">
        <ele>761.694128</ele>
        <time>2017-06-02T06:04:30.497Z</time>
      </trkpt>
      <trkpt lat="46.049647" lon="6.089207">
        <ele>756.521915</ele>
        <time>2017-06-02T06:04:37.384Z</time>
      </trkpt>
      <trkpt lat="46.049413" lon="6.089158">
        <ele>754.348218</ele>
        <time>2017-06-02T06:04:40.763Z</time>
      </trkpt>
      <trkpt lat="46.049360" lon="6.089147">
        <ele>753.855975</ele>
        <time>2017-06-02T06:04:41.612Z</time>
      </trkpt>
      <trkpt lat="46.049239" lon="6.089127">
        <ele>752.736360</ele>
        <time>2017-06-02T06:04:43.248Z</time>
      </trkpt>
      <trkpt lat="46.048697" lon="6.089182">
        <ele>747.741562</ele>
        <time>2017-06-02T06:04:51.328Z</time>
      </trkpt>
      <trkpt lat="46.048129" lon="6.089392">
        <ele>742.522806</ele>
        <time>2017-06-02T06:04:59.842Z</time>
      </trkpt>
      <trkpt lat="46.047978" lon="6.089594">
        <ele>741.588909</ele>
        <time>2017-06-02T06:05:02.931Z</time>
      </trkpt>
      <trkpt lat="46.047781" lon="6.090228">
        <ele>739.403773</ele>
        <time>2017-06-02T06:05:10.420Z</time>
      </trkpt>
      <trkpt lat="46.047671" lon="6.090382">
        <ele>738.708612</ele>
        <time>2017-06-02T06:05:12.921Z</time>
      </trkpt>
      <trkpt lat="46.047631" lon="6.090409">
        <ele>738.508408</ele>
        <time>2017-06-02T06:05:13.668Z</time>
      </trkpt>
      <trkpt lat="46.047600" lon="6.090410">
        <ele>738.367869</ele>
        <time>2017-06-02T06:05:14.185Z</time>
      </trkpt>
      <trkpt lat="46.047556" lon="6.090369">
        <ele>738.130372</ele>
        <time>2017-06-02T06:05:14.991Z</time>
      </trkpt>
      <trkpt lat="46.047498" lon="6.090313">
        <ele>737.813927</ele>
        <time>2017-06-02T06:05:16.236Z</time>
      </trkpt>
      <trkpt lat="46.047462" lon="6.090251">
        <ele>737.559640</ele>
        <time>2017-06-02T06:05:17.148Z</time>
      </trkpt>
      <trkpt lat="46.047455" lon="6.090201">
        <ele>737.399184</ele>
        <time>2017-06-02T06:05:17.738Z</time>
      </trkpt>
      <trkpt lat="46.047443" lon="6.090157">
        <ele>737.250469</ele>
        <time>2017-06-02T06:05:18.238Z</time>
      </trkpt>
      <trkpt lat="46.047373" lon="6.090056">
        <ele>736.801465</ele>
        <time>2017-06-02T06:05:19.957Z</time>
      </trkpt>
      <trkpt lat="46.047343" lon="6.090037">
        <ele>736.652937</ele>
        <time>2017-06-02T06:05:20.450Z</time>
      </trkpt>
      <trkpt lat="46.047318" lon="6.090029">
        <ele>736.536867</ele>
        <time>2017-06-02T06:05:20.837Z</time>
      </trkpt>
      <trkpt lat="46.047266" lon="6.090029">
        <ele>736.301184</ele>
        <time>2017-06-02T06:05:21.812Z</time>
      </trkpt>
      <trkpt lat="46.047241" lon="6.090038">
        <ele>736.184391</ele>
        <time>2017-06-02T06:05:22.228Z</time>
      </trkpt>
      <trkpt lat="46.047212" lon="6.090056">
        <ele>736.041274</ele>
        <time>2017-06-02T06:05:22.739Z</time>
      </trkpt>
      <trkpt lat="46.047132" lon="6.090194">
        <ele>735.475653</ele>
        <time>2017-06-02T06:05:24.842Z</time>
      </trkpt>
      <trkpt lat="46.047125" lon="6.090238">
        <ele>735.333649</ele>
        <time>2017-06-02T06:05:25.391Z</time>
      </trkpt>
      <trkpt lat="46.047123" lon="6.090281">
        <ele>735.198078</ele>
        <time>2017-06-02T06:05:25.966Z</time>
      </trkpt>
      <trkpt lat="46.047127" lon="6.090324">
        <ele>735.061600</ele>
        <time>2017-06-02T06:05:26.443Z</time>
      </trkpt>
      <trkpt lat="46.047106" lon="6.090448">
        <ele>734.660081</ele>
        <time>2017-06-02T06:05:27.979Z</time>
      </trkpt>
      <trkpt lat="46.047021" lon="6.090680">
        <ele>734.602254</ele>
        <time>2017-06-02T06:05:31.172Z</time>
      </trkpt>
      <trkpt lat="46.046971" lon="6.090814">
        <ele>734.646104</ele>
        <time>2017-06-02T06:05:33.045Z</time>
      </trkpt>
      <trkpt lat="46.046710" lon="6.091278">
        <ele>734.818246</ele>
        <time>2017-06-02T06:05:41.058Z</time>
      </trkpt>
      <trkpt lat="46.046206" lon="6.092100">
        <ele>735.134374</ele>
        <time>2017-06-02T06:06:02.178Z</time>
      </trkpt>
      <trkpt lat="46.043538" lon="6.096352">
        <ele>742.843593</ele>
        <time>2017-06-02T06:08:06.959Z</time>
      </trkpt>
      <trkpt lat="46.043170" lon="6.096921">
        <ele>743.087885</ele>
        <time>2017-06-02T06:08:18.425Z</time>
      </trkpt>
      <trkpt lat="46.043040" lon="6.096902">
        <ele>743.147017</ele>
        <time>2017-06-02T06:08:21.175Z</time>
      </trkpt>
      <trkpt lat="46.042954" lon="6.096867">
        <ele>743.187459</ele>
        <time>2017-06-02T06:08:23.771Z</time>
      </trkpt>
      <trkpt lat="46.042873" lon="6.096812">
        <ele>743.227982</ele>
        <time>2017-06-02T06:08:25.575Z</time>
      </trkpt>
      <trkpt lat="46.042914" lon="6.096568">
        <ele>743.306840</ele>
        <time>2017-06-02T06:08:30.405Z</time>
      </trkpt>
      <trkpt lat="46.042947" lon="6.096355">
        <ele>743.375394</ele>
        <time>2017-06-02T06:08:33.779Z</time>
      </trkpt>
      <trkpt lat="46.042734" lon="6.096530">
        <ele>743.486357</ele>
        <time>2017-06-02T06:08:40.015Z</time>
      </trkpt>
      <trkpt lat="46.042597" lon="6.096694">
        <ele>743.566965</ele>
        <time>2017-06-02T06:08:43.724Z</time>
      </trkpt>
      <trkpt lat="46.042482" lon="6.097195">
        <ele>743.794517</ele>
        <time>2017-06-02T06:08:51.419Z</time>
      </trkpt>
      <trkpt lat="46.042357" lon="6.097368">
        <ele>743.930809</ele>
        <time>2017-06-02T06:08:55.040Z</time>
      </trkpt>
      <trkpt lat="46.042118" lon="6.097549">
        <ele>744.143116</ele>
        <time>2017-06-02T06:09:01.613Z</time>
      </trkpt>
      <trkpt lat="46.042049" lon="6.097601">
        <ele>744.204345</ele>
        <time>2017-06-02T06:09:03.638Z</time>
      </trkpt>
      <trkpt lat="46.041758" lon="6.097784">
        <ele>744.454006</ele>
        <time>2017-06-02T06:09:13.211Z</time>
      </trkpt>
      <trkpt lat="46.041651" lon="6.097832">
        <ele>744.542124</ele>
        <time>2017-06-02T06:09:16.618Z</time>
      </trkpt>
      <trkpt lat="46.041470" lon="6.097905">
        <ele>744.689914</ele>
        <time>2017-06-02T06:09:22.084Z</time>
      </trkpt>
      <trkpt lat="46.041394" lon="6.097927">
        <ele>744.750867</ele>
        <time>2017-06-02T06:09:23.971Z</time>
      </trkpt>
      <trkpt lat="46.041213" lon="6.097985">
        <ele>744.896664</ele>
        <time>2017-06-02T06:09:29.035Z</time>
      </trkpt>
      <trkpt lat="46.040981" lon="6.098161">
        <ele>745.059828</ele>
        <time>2017-06-02T06:09:35.604Z</time>
      </trkpt>
      <trkpt lat="46.040828" lon="6.098406">
        <ele>745.044584</ele>
        <time>2017-06-02T06:09:41.318Z</time>
      </trkpt>
      <trkpt lat="46.040698" lon="6.098832">
        <ele>745.023060</ele>
        <time>2017-06-02T06:09:47.674Z</time>
      </trkpt>
      <trkpt lat="46.040267" lon="6.099631">
        <ele>744.976256</ele>
        <time>2017-06-02T06:10:01.677Z</time>
      </trkpt>
      <trkpt lat="46.040144" lon="6.099778">
        <ele>744.965607</ele>
        <time>2017-06-02T06:10:05.155Z</time>
      </trkpt>
      <trkpt lat="46.040084" lon="6.099920">
        <ele>744.957918</ele>
        <time>2017-06-02T06:10:07.610Z</time>
      </trkpt>
      <trkpt lat="46.039453" lon="6.100843">
        <ele>746.468743</ele>
        <time>2017-06-02T06:10:29.664Z</time>
      </trkpt>
      <trkpt lat="46.039077" lon="6.101386">
        <ele>747.662299</ele>
        <time>2017-06-02T06:10:45.566Z</time>
      </trkpt>
      <trkpt lat="46.038661" lon="6.102024">
        <ele>749.138999</ele>
        <time>2017-06-02T06:11:07.094Z</time>
      </trkpt>
      <trkpt lat="46.037942" lon="6.103063">
        <ele>756.770268</ele>
        <time>2017-06-02T06:11:58.657Z</time>
      </trkpt>
      <trkpt lat="46.037876" lon="6.103253">
        <ele>757.875428</ele>
        <time>2017-06-02T06:12:07.305Z</time>
      </trkpt>
      <trkpt lat="46.037777" lon="6.104247">
        <ele>763.062040</ele>
        <time>2017-06-02T06:12:48.950Z</time>
      </trkpt>
      <trkpt lat="46.037713" lon="6.104575">
        <ele>764.733155</ele>
        <time>2017-06-02T06:13:02.907Z</time>
      </trkpt>
      <trkpt lat="46.037736" lon="6.104631">
        <ele>765.052297</ele>
        <time>2017-06-02T06:13:06.616Z</time>
      </trkpt>
      <trkpt lat="46.037658" lon="6.105033">
        <ele>767.099597</ele>
        <time>2017-06-02T06:13:22.145Z</time>
      </trkpt>
      <trkpt lat="46.037492" lon="6.105406">
        <ele>769.272773</ele>
        <time>2017-06-02T06:13:39.113Z</time>
      </trkpt>
      <trkpt lat="46.036708" lon="6.106735">
        <ele>775.728120</ele>
        <time>2017-06-02T06:14:33.104Z</time>
      </trkpt>
      <trkpt lat="46.036062" lon="6.107487">
        <ele>776.975110</ele>
        <time>2017-06-02T06:14:52.147Z</time>
      </trkpt>
      <trkpt lat="46.035982" lon="6.107694">
        <ele>777.222039</ele>
        <time>2017-06-02T06:14:56.095Z</time>
      </trkpt>
      <trkpt lat="46.036002" lon="6.107824">
        <ele>777.360820</ele>
        <time>2017-06-02T06:14:58.374Z</time>
      </trkpt>
      <trkpt lat="46.036056" lon="6.107919">
        <ele>777.488792</ele>
        <time>2017-06-02T06:14:59.847Z</time>
      </trkpt>
      <trkpt lat="46.035302" lon="6.108651">
        <ele>778.764505</ele>
        <time>2017-06-02T06:15:20.601Z</time>
      </trkpt>
      <trkpt lat="46.035181" lon="6.108771">
        <ele>778.965177</ele>
        <time>2017-06-02T06:15:24.196Z</time>
      </trkpt>
      <trkpt lat="46.035157" lon="6.108746">
        <ele>779.005634</ele>
        <time>2017-06-02T06:15:24.803Z</time>
      </trkpt>
      <trkpt lat="46.035127" lon="6.108735">
        <ele>779.047921</ele>
        <time>2017-06-02T06:15:25.669Z</time>
      </trkpt>
      <trkpt lat="46.035085" lon="6.108745">
        <ele>779.106072</ele>
        <time>2017-06-02T06:15:26.953Z</time>
      </trkpt>
      <trkpt lat="46.035060" lon="6.108769">
        <ele>779.147111</ele>
        <time>2017-06-02T06:15:27.819Z</time>
      </trkpt>
      <trkpt lat="46.035038" lon="6.108818">
        <ele>779.202449</ele>
        <time>2017-06-02T06:15:29.036Z</time>
      </trkpt>
      <trkpt lat="46.034944" lon="6.108770">
        <ele>779.338683</ele>
        <time>2017-06-02T06:15:32.207Z</time>
      </trkpt>
      <trkpt lat="46.034830" lon="6.108714">
        <ele>779.503213</ele>
        <time>2017-06-02T06:15:34.959Z</time>
      </trkpt>
      <trkpt lat="46.034498" lon="6.108359">
        <ele>780.068021</ele>
        <time>2017-06-02T06:15:48.711Z</time>
      </trkpt>
      <trkpt lat="46.034140" lon="6.107976">
        <ele>780.969989</ele>
        <time>2017-06-02T06:16:04.247Z</time>
      </trkpt>
      <trkpt lat="46.033856" lon="6.107672">
        <ele>781.848619</ele>
        <time>2017-06-02T06:16:16.897Z</time>
      </trkpt>
      <trkpt lat="46.033777" lon="6.107584">
        <ele>782.096607</ele>
        <time>2017-06-02T06:16:20.541Z</time>
      </trkpt>
      <trkpt lat="46.033499" lon="6.107292">
        <ele>782.950977</ele>
        <time>2017-06-02T06:16:32.357Z</time>
      </trkpt>
      <trkpt lat="46.033434" lon="6.107223">
        <ele>783.151481</ele>
        <time>2017-06-02T06:16:35.469Z</time>
      </trkpt>
      <trkpt lat="46.033176" lon="6.107007">
        <ele>783.892499</ele>
        <time>2017-06-02T06:16:44.947Z</time>
      </trkpt>
      <trkpt lat="46.032841" lon="6.106771">
        <ele>784.754565</ele>
        <time>2017-06-02T06:16:56.217Z</time>
      </trkpt>
      <trkpt lat="46.032726" lon="6.106689">
        <ele>784.455737</ele>
        <time>2017-06-02T06:17:00.092Z</time>
      </trkpt>
      <trkpt lat="46.032655" lon="6.106639">
        <ele>784.271690</ele>
        <time>2017-06-02T06:17:01.727Z</time>
      </trkpt>
      <trkpt lat="46.031969" lon="6.106153">
        <ele>782.491362</ele>
        <time>2017-06-02T06:17:15.662Z</time>
      </trkpt>
      <trkpt lat="46.031402" lon="6.105752">
        <ele>781.020358</ele>
        <time>2017-06-02T06:17:25.422Z</time>
      </trkpt>
      <trkpt lat="46.031147" lon="6.105571">
        <ele>780.107012</ele>
        <time>2017-06-02T06:17:29.659Z</time>
      </trkpt>
      <trkpt lat="46.030954" lon="6.105480">
        <ele>779.135823</ele>
        <time>2017-06-02T06:17:32.841Z</time>
      </trkpt>
      <trkpt lat="46.030873" lon="6.105436">
        <ele>778.721819</ele>
        <time>2017-06-02T06:17:34.067Z</time>
      </trkpt>
      <trkpt lat="46.030760" lon="6.105452">
        <ele>778.178808</ele>
        <time>2017-06-02T06:17:35.723Z</time>
      </trkpt>
      <trkpt lat="46.028522" lon="6.105567">
        <ele>768.893485</ele>
        <time>2017-06-02T06:18:10.032Z</time>
      </trkpt>
      <trkpt lat="46.028463" lon="6.105567">
        <ele>768.700125</ele>
        <time>2017-06-02T06:18:11.056Z</time>
      </trkpt>
      <trkpt lat="46.028120" lon="6.105432">
        <ele>767.534800</ele>
        <time>2017-06-02T06:18:17.256Z</time>
      </trkpt>
      <trkpt lat="46.027815" lon="6.105107">
        <ele>766.291405</ele>
        <time>2017-06-02T06:18:24.021Z</time>
      </trkpt>
      <trkpt lat="46.027740" lon="6.104982">
        <ele>765.977515</ele>
        <time>2017-06-02T06:18:26.247Z</time>
      </trkpt>
      <trkpt lat="46.027711" lon="6.104919">
        <ele>765.863203</ele>
        <time>2017-06-02T06:18:27.316Z</time>
      </trkpt>
      <trkpt lat="46.027667" lon="6.104815">
        <ele>765.679024</ele>
        <time>2017-06-02T06:18:28.780Z</time>
      </trkpt>
      <trkpt lat="46.027610" lon="6.104649">
        <ele>765.398959</ele>
        <time>2017-06-02T06:18:31.067Z</time>
      </trkpt>
      <trkpt lat="46.027541" lon="6.104345">
        <ele>764.915275</ele>
        <time>2017-06-02T06:18:35.348Z</time>
      </trkpt>
      <trkpt lat="46.027528" lon="6.103945">
        <ele>764.309689</ele>
        <time>2017-06-02T06:18:40.596Z</time>
      </trkpt>
      <trkpt lat="46.027535" lon="6.103855">
        <ele>764.172730</ele>
        <time>2017-06-02T06:18:41.817Z</time>
      </trkpt>
      <trkpt lat="46.027544" lon="6.103772">
        <ele>764.045687</ele>
        <time>2017-06-02T06:18:42.734Z</time>
      </trkpt>
      <trkpt lat="46.027735" lon="6.102690">
        <ele>762.357313</ele>
        <time>2017-06-02T06:18:56.056Z</time>
      </trkpt>
      <trkpt lat="46.027769" lon="6.102189">
        <ele>760.915984</ele>
        <time>2017-06-02T06:19:01.561Z</time>
      </trkpt>
      <trkpt lat="46.027729" lon="6.101773">
        <ele>759.544689</ele>
        <time>2017-06-02T06:19:06.058Z</time>
      </trkpt>
      <trkpt lat="46.027638" lon="6.101435">
        <ele>758.360974</ele>
        <time>2017-06-02T06:19:09.889Z</time>
      </trkpt>
      <trkpt lat="46.027487" lon="6.101103">
        <ele>757.065035</ele>
        <time>2017-06-02T06:19:14.083Z</time>
      </trkpt>
      <trkpt lat="46.027128" lon="6.100671">
        <ele>754.864999</ele>
        <time>2017-06-02T06:19:21.095Z</time>
      </trkpt>
      <trkpt lat="46.026766" lon="6.100472">
        <ele>753.004861</ele>
        <time>2017-06-02T06:19:26.768Z</time>
      </trkpt>
      <trkpt lat="46.026569" lon="6.100446">
        <ele>752.022734</ele>
        <time>2017-06-02T06:19:29.668Z</time>
      </trkpt>
      <trkpt lat="46.026161" lon="6.100518">
        <ele>749.982023</ele>
        <time>2017-06-02T06:19:35.802Z</time>
      </trkpt>
      <trkpt lat="46.025947" lon="6.100629">
        <ele>748.852796</ele>
        <time>2017-06-02T06:19:39.234Z</time>
      </trkpt>
      <trkpt lat="46.025712" lon="6.100842">
        <ele>747.474300</ele>
        <time>2017-06-02T06:19:43.566Z</time>
      </trkpt>
      <trkpt lat="46.025381" lon="6.101284">
        <ele>745.233356</ele>
        <time>2017-06-02T06:19:50.546Z</time>
      </trkpt>
      <trkpt lat="46.025231" lon="6.101484">
        <ele>744.291623</ele>
        <time>2017-06-02T06:19:53.718Z</time>
      </trkpt>
      <trkpt lat="46.024842" lon="6.101786">
        <ele>742.376111</ele>
        <time>2017-06-02T06:20:00.526Z</time>
      </trkpt>
      <trkpt lat="46.024333" lon="6.101877">
        <ele>740.152896</ele>
        <time>2017-06-02T06:20:08.547Z</time>
      </trkpt>
      <trkpt lat="46.024192" lon="6.101869">
        <ele>739.541251</ele>
        <time>2017-06-02T06:20:10.755Z</time>
      </trkpt>
      <trkpt lat="46.023838" lon="6.101848">
        <ele>738.005523</ele>
        <time>2017-06-02T06:20:16.273Z</time>
      </trkpt>
      <trkpt lat="46.023378" lon="6.101908">
        <ele>735.837529</ele>
        <time>2017-06-02T06:20:23.336Z</time>
      </trkpt>
      <trkpt lat="46.022841" lon="6.102250">
        <ele>732.867845</ele>
        <time>2017-06-02T06:20:32.169Z</time>
      </trkpt>
      <trkpt lat="46.022550" lon="6.102532">
        <ele>731.093881</ele>
        <time>2017-06-02T06:20:37.358Z</time>
      </trkpt>
      <trkpt lat="46.022247" lon="6.102848">
        <ele>729.201777</ele>
        <time>2017-06-02T06:20:43.027Z</time>
      </trkpt>
      <trkpt lat="46.021919" lon="6.103129">
        <ele>727.259755</ele>
        <time>2017-06-02T06:20:48.802Z</time>
      </trkpt>
      <trkpt lat="46.021675" lon="6.103261">
        <ele>725.916850</ele>
        <time>2017-06-02T06:20:52.726Z</time>
      </trkpt>
      <trkpt lat="46.020971" lon="6.103408">
        <ele>722.251787</ele>
        <time>2017-06-02T06:21:03.415Z</time>
      </trkpt>
      <trkpt lat="46.020446" lon="6.103356">
        <ele>719.540503</ele>
        <time>2017-06-02T06:21:11.369Z</time>
      </trkpt>
      <trkpt lat="46.019130" lon="6.103073">
        <ele>711.572158</ele>
        <time>2017-06-02T06:21:31.125Z</time>
      </trkpt>
      <trkpt lat="46.018682" lon="6.103062">
        <ele>708.831805</ele>
        <time>2017-06-02T06:21:37.558Z</time>
      </trkpt>
      <trkpt lat="46.018221" lon="6.103142">
        <ele>704.897342</ele>
        <time>2017-06-02T06:21:44.195Z</time>
      </trkpt>
      <trkpt lat="46.017856" lon="6.103259">
        <ele>701.085748</ele>
        <time>2017-06-02T06:21:49.453Z</time>
      </trkpt>
      <trkpt lat="46.017148" lon="6.103502">
        <ele>693.666779</ele>
        <time>2017-06-02T06:21:59.275Z</time>
      </trkpt>
      <trkpt lat="46.016713" lon="6.103667">
        <ele>689.066772</ele>
        <time>2017-06-02T06:22:05.180Z</time>
      </trkpt>
      <trkpt lat="46.016342" lon="6.103848">
        <ele>684.805188</ele>
        <time>2017-06-02T06:22:10.337Z</time>
      </trkpt>
      <trkpt lat="46.016330" lon="6.103782">
        <ele>684.289739</ele>
        <time>2017-06-02T06:22:10.932Z</time>
      </trkpt>
      <trkpt lat="46.016187" lon="6.103625">
        <ele>682.333387</ele>
        <time>2017-06-02T06:22:13.328Z</time>
      </trkpt>
      <trkpt lat="46.016140" lon="6.103625">
        <ele>681.822060</ele>
        <time>2017-06-02T06:22:13.929Z</time>
      </trkpt>
      <trkpt lat="46.016104" lon="6.103638">
        <ele>681.418277</ele>
        <time>2017-06-02T06:22:14.430Z</time>
      </trkpt>
      <trkpt lat="46.016018" lon="6.103733">
        <ele>680.239064</ele>
        <time>2017-06-02T06:22:15.862Z</time>
      </trkpt>
      <trkpt lat="46.015986" lon="6.103882">
        <ele>679.060734</ele>
        <time>2017-06-02T06:22:17.308Z</time>
      </trkpt>
      <trkpt lat="46.016073" lon="6.104101">
        <ele>677.154551</ele>
        <time>2017-06-02T06:22:19.650Z</time>
      </trkpt>
      <trkpt lat="46.016107" lon="6.104123">
        <ele>676.749025</ele>
        <time>2017-06-02T06:22:20.144Z</time>
      </trkpt>
      <trkpt lat="46.016021" lon="6.104391">
        <ele>674.518513</ele>
        <time>2017-06-02T06:22:22.851Z</time>
      </trkpt>
      <trkpt lat="46.015253" lon="6.107494">
        <ele>660.207747</ele>
        <time>2017-06-02T06:22:56.384Z</time>
      </trkpt>
      <trkpt lat="46.014640" lon="6.110238">
        <ele>659.540537</ele>
        <time>2017-06-02T06:23:56.620Z</time>
      </trkpt>
      <trkpt lat="46.014593" lon="6.110368">
        <ele>658.999242</ele>
        <time>2017-06-02T06:23:58.117Z</time>
      </trkpt>
      <trkpt lat="46.014423" lon="6.110818">
        <ele>657.107268</ele>
        <time>2017-06-02T06:24:03.593Z</time>
      </trkpt>
      <trkpt lat="46.014169" lon="6.111270">
        <ele>654.959828</ele>
        <time>2017-06-02T06:24:09.317Z</time>
      </trkpt>
      <trkpt lat="46.014107" lon="6.111352">
        <ele>654.512125</ele>
        <time>2017-06-02T06:24:10.446Z</time>
      </trkpt>
      <trkpt lat="46.013989" lon="6.111373">
        <ele>653.879813</ele>
        <time>2017-06-02T06:24:12.126Z</time>
      </trkpt>
      <trkpt lat="46.013941" lon="6.111329">
        <ele>653.577205</ele>
        <time>2017-06-02T06:24:12.870Z</time>
      </trkpt>
      <trkpt lat="46.013776" lon="6.111345">
        <ele>652.697728</ele>
        <time>2017-06-02T06:24:15.224Z</time>
      </trkpt>
      <trkpt lat="46.013689" lon="6.111548">
        <ele>651.816708</ele>
        <time>2017-06-02T06:24:17.509Z</time>
      </trkpt>
      <trkpt lat="46.013693" lon="6.111630">
        <ele>651.513106</ele>
        <time>2017-06-02T06:24:18.258Z</time>
      </trkpt>
      <trkpt lat="46.013617" lon="6.111781">
        <ele>651.443825</ele>
        <time>2017-06-02T06:24:20.210Z</time>
      </trkpt>
      <trkpt lat="46.013565" lon="6.111816">
        <ele>651.522844</ele>
        <time>2017-06-02T06:24:20.963Z</time>
      </trkpt>
      <trkpt lat="46.013192" lon="6.111966">
        <ele>652.055975</ele>
        <time>2017-06-02T06:24:26.768Z</time>
      </trkpt>
      <trkpt lat="46.013049" lon="6.112006">
        <ele>652.256513</ele>
        <time>2017-06-02T06:24:28.945Z</time>
      </trkpt>
      <trkpt lat="46.012742" lon="6.112040">
        <ele>652.680385</ele>
        <time>2017-06-02T06:24:34.118Z</time>
      </trkpt>
      <trkpt lat="46.010759" lon="6.112128">
        <ele>665.549374</ele>
        <time>2017-06-02T06:26:37.289Z</time>
      </trkpt>
      <trkpt lat="46.010533" lon="6.112201">
        <ele>667.864763</ele>
        <time>2017-06-02T06:26:55.805Z</time>
      </trkpt>
      <trkpt lat="46.010313" lon="6.112297">
        <ele>670.162801</ele>
        <time>2017-06-02T06:27:10.508Z</time>
      </trkpt>
      <trkpt lat="46.010215" lon="6.112386">
        <ele>671.321066</ele>
        <time>2017-06-02T06:27:18.909Z</time>
      </trkpt>
      <trkpt lat="46.010030" lon="6.112575">
        <ele>671.935605</ele>
        <time>2017-06-02T06:27:30.508Z</time>
      </trkpt>
      <trkpt lat="46.009911" lon="6.112756">
        <ele>672.090701</ele>
        <time>2017-06-02T06:27:39.984Z</time>
      </trkpt>
      <trkpt lat="46.009744" lon="6.113120">
        <ele>672.362174</ele>
        <time>2017-06-02T06:27:51.989Z</time>
      </trkpt>
      <trkpt lat="46.009393" lon="6.114251">
        <ele>673.133056</ele>
        <time>2017-06-02T06:28:10.405Z</time>
      </trkpt>
      <trkpt lat="46.009266" lon="6.114700">
        <ele>672.887044</ele>
        <time>2017-06-02T06:28:15.203Z</time>
      </trkpt>
      <trkpt lat="46.009125" lon="6.115036">
        <ele>670.473457</ele>
        <time>2017-06-02T06:28:18.871Z</time>
      </trkpt>
      <trkpt lat="46.008334" lon="6.116393">
        <ele>659.581375</ele>
        <time>2017-06-02T06:28:35.591Z</time>
      </trkpt>
      <trkpt lat="46.007872" lon="6.117213">
        <ele>654.281722</ele>
        <time>2017-06-02T06:28:45.930Z</time>
      </trkpt>
      <trkpt lat="46.007644" lon="6.117571">
        <ele>652.109496</ele>
        <time>2017-06-02T06:28:50.745Z</time>
      </trkpt>
      <trkpt lat="46.007311" lon="6.117870">
        <ele>649.582549</ele>
        <time>2017-06-02T06:28:56.431Z</time>
      </trkpt>
      <trkpt lat="46.006602" lon="6.118307">
        <ele>645.320607</ele>
        <time>2017-06-02T06:29:08.106Z</time>
      </trkpt>
      <trkpt lat="46.006182" lon="6.118558">
        <ele>644.022474</ele>
        <time>2017-06-02T06:29:15.560Z</time>
      </trkpt>
      <trkpt lat="46.005813" lon="6.118783">
        <ele>642.878536</ele>
        <time>2017-06-02T06:29:22.354Z</time>
      </trkpt>
      <trkpt lat="46.005614" lon="6.118901">
        <ele>642.264169</ele>
        <time>2017-06-02T06:29:25.980Z</time>
      </trkpt>
      <trkpt lat="46.005329" lon="6.119076">
        <ele>641.379693</ele>
        <time>2017-06-02T06:29:31.508Z</time>
      </trkpt>
      <trkpt lat="46.005241" lon="6.119122">
        <ele>641.112440</ele>
        <time>2017-06-02T06:29:33.106Z</time>
      </trkpt>
      <trkpt lat="46.005232" lon="6.119099">
        <ele>641.060097</ele>
        <time>2017-06-02T06:29:33.535Z</time>
      </trkpt>
      <trkpt lat="46.005179" lon="6.119046">
        <ele>640.875885</ele>
        <time>2017-06-02T06:29:34.712Z</time>
      </trkpt>
      <trkpt lat="46.005147" lon="6.119040">
        <ele>640.783765</ele>
        <time>2017-06-02T06:29:35.398Z</time>
      </trkpt>
      <trkpt lat="46.005114" lon="6.119049">
        <ele>640.714449</ele>
        <time>2017-06-02T06:29:36.021Z</time>
      </trkpt>
      <trkpt lat="46.005081" lon="6.119078">
        <ele>640.653829</ele>
        <time>2017-06-02T06:29:36.684Z</time>
      </trkpt>
      <trkpt lat="46.005052" lon="6.119235">
        <ele>640.476900</ele>
        <time>2017-06-02T06:29:38.731Z</time>
      </trkpt>
      <trkpt lat="46.005059" lon="6.119251">
        <ele>640.456306</ele>
        <time>2017-06-02T06:29:38.926Z</time>
      </trkpt>
      <trkpt lat="46.004965" lon="6.119296">
        <ele>640.300984</ele>
        <time>2017-06-02T06:29:40.865Z</time>
      </trkpt>
      <trkpt lat="46.004535" lon="6.119577">
        <ele>639.560560</ele>
        <time>2017-06-02T06:29:49.971Z</time>
      </trkpt>
      <trkpt lat="46.002029" lon="6.121083">
        <ele>635.954666</ele>
        <time>2017-06-02T06:30:42.145Z</time>
      </trkpt>
      <trkpt lat="46.001880" lon="6.121181">
        <ele>635.846510</ele>
        <time>2017-06-02T06:30:46.097Z</time>
      </trkpt>
      <trkpt lat="46.001798" lon="6.121230">
        <ele>635.936760</ele>
        <time>2017-06-02T06:30:48.136Z</time>
      </trkpt>
      <trkpt lat="46.001580" lon="6.121362">
        <ele>636.177164</ele>
        <time>2017-06-02T06:30:54.252Z</time>
      </trkpt>
      <trkpt lat="46.001476" lon="6.121424">
        <ele>636.291588</ele>
        <time>2017-06-02T06:30:56.968Z</time>
      </trkpt>
      <trkpt lat="46.001240" lon="6.121546">
        <ele>636.546485</ele>
        <time>2017-06-02T06:31:03.810Z</time>
      </trkpt>
      <trkpt lat="46.001032" lon="6.121680">
        <ele>636.778126</ele>
        <time>2017-06-02T06:31:09.966Z</time>
      </trkpt>
      <trkpt lat="46.000997" lon="6.121702">
        <ele>636.816948</ele>
        <time>2017-06-02T06:31:11.342Z</time>
      </trkpt>
      <trkpt lat="46.000835" lon="6.121805">
        <ele>636.996970</ele>
        <time>2017-06-02T06:31:16.158Z</time>
      </trkpt>
      <trkpt lat="46.000763" lon="6.121851">
        <ele>637.077043</ele>
        <time>2017-06-02T06:31:18.233Z</time>
      </trkpt>
      <trkpt lat="46.000655" lon="6.121770">
        <ele>637.200832</ele>
        <time>2017-06-02T06:31:22.450Z</time>
      </trkpt>
      <trkpt lat="46.000340" lon="6.121725">
        <ele>637.522608</ele>
        <time>2017-06-02T06:31:32.029Z</time>
      </trkpt>
      <trkpt lat="45.999392" lon="6.121769">
        <ele>638.903643</ele>
        <time>2017-06-02T06:32:00.921Z</time>
      </trkpt>
      <trkpt lat="45.999123" lon="6.121710">
        <ele>639.315704</ele>
        <time>2017-06-02T06:32:09.527Z</time>
      </trkpt>
      <trkpt lat="45.999071" lon="6.121677">
        <ele>639.401762</ele>
        <time>2017-06-02T06:32:11.221Z</time>
      </trkpt>
      <trkpt lat="45.999008" lon="6.121583">
        <ele>639.539168</ele>
        <time>2017-06-02T06:32:13.658Z</time>
      </trkpt>
      <trkpt lat="45.998902" lon="6.120837">
        <ele>640.340190</ele>
        <time>2017-06-02T06:32:28.163Z</time>
      </trkpt>
      <trkpt lat="45.998923" lon="6.120466">
        <ele>640.411619</ele>
        <time>2017-06-02T06:32:34.672Z</time>
      </trkpt>
      <trkpt lat="45.998893" lon="6.120408">
        <ele>640.422300</ele>
        <time>2017-06-02T06:32:36.084Z</time>
      </trkpt>
      <trkpt lat="45.998907" lon="6.120386">
        <ele>640.426706</ele>
        <time>2017-06-02T06:32:36.641Z</time>
      </trkpt>
      <trkpt lat="45.998915" lon="6.120360">
        <ele>640.430907</ele>
        <time>2017-06-02T06:32:37.118Z</time>
      </trkpt>
      <trkpt lat="45.998917" lon="6.120331">
        <ele>640.435211</ele>
        <time>2017-06-02T06:32:37.678Z</time>
      </trkpt>
      <trkpt lat="45.998912" lon="6.120302">
        <ele>640.439625</ele>
        <time>2017-06-02T06:32:38.257Z</time>
      </trkpt>
      <trkpt lat="45.998901" lon="6.120277">
        <ele>640.443996</ele>
        <time>2017-06-02T06:32:38.754Z</time>
      </trkpt>
      <trkpt lat="45.998885" lon="6.120258">
        <ele>640.448406</ele>
        <time>2017-06-02T06:32:39.367Z</time>
      </trkpt>
      <trkpt lat="45.998868" lon="6.120249">
        <ele>640.452257</ele>
        <time>2017-06-02T06:32:39.796Z</time>
      </trkpt>
      <trkpt lat="45.998803" lon="6.120287">
        <ele>640.467174</ele>
        <time>2017-06-02T06:32:41.305Z</time>
      </trkpt>
      <trkpt lat="45.998795" lon="6.120311">
        <ele>640.471106</ele>
        <time>2017-06-02T06:32:41.671Z</time>
      </trkpt>
      <trkpt lat="45.998548" lon="6.120149">
        <ele>640.528819</ele>
        <time>2017-06-02T06:32:48.238Z</time>
      </trkpt>
      <trkpt lat="45.998343" lon="6.120136">
        <ele>640.572449</ele>
        <time>2017-06-02T06:32:52.633Z</time>
      </trkpt>
      <trkpt lat="45.997805" lon="6.120360">
        <ele>640.691530</ele>
        <time>2017-06-02T06:33:05.115Z</time>
      </trkpt>
      <trkpt lat="45.997775" lon="6.120373">
        <ele>640.698192</ele>
        <time>2017-06-02T06:33:05.680Z</time>
      </trkpt>
      <trkpt lat="45.997359" lon="6.120547">
        <ele>640.668362</ele>
        <time>2017-06-02T06:33:15.058Z</time>
      </trkpt>
      <trkpt lat="45.997252" lon="6.120586">
        <ele>640.632873</ele>
        <time>2017-06-02T06:33:17.276Z</time>
      </trkpt>
      <trkpt lat="45.996906" lon="6.120711">
        <ele>640.518174</ele>
        <time>2017-06-02T06:33:24.592Z</time>
      </trkpt>
      <trkpt lat="45.995503" lon="6.120957">
        <ele>640.169612</ele>
        <time>2017-06-02T06:33:54.465Z</time>
      </trkpt>
      <trkpt lat="45.995079" lon="6.121257">
        <ele>640.178999</ele>
        <time>2017-06-02T06:34:05.051Z</time>
      </trkpt>
      <trkpt lat="45.994811" lon="6.121353">
        <ele>640.184487</ele>
        <time>2017-06-02T06:34:11.351Z</time>
      </trkpt>
      <trkpt lat="45.994736" lon="6.121366">
        <ele>640.185988</ele>
        <time>2017-06-02T06:34:13.072Z</time>
      </trkpt>
      <trkpt lat="45.994578" lon="6.121394">
        <ele>640.189151</ele>
        <time>2017-06-02T06:34:16.762Z</time>
      </trkpt>
      <trkpt lat="45.993712" lon="6.121477">
        <ele>640.217985</ele>
        <time>2017-06-02T06:34:36.434Z</time>
      </trkpt>
      <trkpt lat="45.993525" lon="6.121532">
        <ele>640.227875</ele>
        <time>2017-06-02T06:34:40.693Z</time>
      </trkpt>
      <trkpt lat="45.993439" lon="6.121573">
        <ele>640.232570</ele>
        <time>2017-06-02T06:34:42.769Z</time>
      </trkpt>
      <trkpt lat="45.993016" lon="6.121764">
        <ele>640.255542</ele>
        <time>2017-06-02T06:34:52.741Z</time>
      </trkpt>
      <trkpt lat="45.992922" lon="6.121836">
        <ele>640.261059</ele>
        <time>2017-06-02T06:34:55.029Z</time>
      </trkpt>
      <trkpt lat="45.992657" lon="6.122073">
        <ele>640.277225</ele>
        <time>2017-06-02T06:35:02.030Z</time>
      </trkpt>
      <trkpt lat="45.992033" lon="6.122875">
        <ele>640.281815</ele>
        <time>2017-06-02T06:35:20.601Z</time>
      </trkpt>
      <trkpt lat="45.991633" lon="6.123210">
        <ele>640.272819</ele>
        <time>2017-06-02T06:35:30.749Z</time>
      </trkpt>
      <trkpt lat="45.990969" lon="6.123582">
        <ele>640.258969</ele>
        <time>2017-06-02T06:35:46.659Z</time>
      </trkpt>
      <trkpt lat="45.989528" lon="6.124299">
        <ele>640.103541</ele>
        <time>2017-06-02T06:36:20.278Z</time>
      </trkpt>
      <trkpt lat="45.989144" lon="6.124539">
        <ele>639.996366</ele>
        <time>2017-06-02T06:36:29.257Z</time>
      </trkpt>
      <trkpt lat="45.988636" lon="6.124875">
        <ele>639.400698</ele>
        <time>2017-06-02T06:36:41.087Z</time>
      </trkpt>
      <trkpt lat="45.988341" lon="6.125046">
        <ele>639.061855</ele>
        <time>2017-06-02T06:36:47.236Z</time>
      </trkpt>
      <trkpt lat="45.988165" lon="6.125152">
        <ele>638.858579</ele>
        <time>2017-06-02T06:36:50.938Z</time>
      </trkpt>
      <trkpt lat="45.987947" lon="6.125440">
        <ele>638.543294</ele>
        <time>2017-06-02T06:36:56.436Z</time>
      </trkpt>
      <trkpt lat="45.987786" lon="6.125833">
        <ele>638.205555</ele>
        <time>2017-06-02T06:37:02.155Z</time>
      </trkpt>
      <trkpt lat="45.987512" lon="6.125919">
        <ele>637.367390</ele>
        <time>2017-06-02T06:37:07.092Z</time>
      </trkpt>
      <trkpt lat="45.987289" lon="6.126031">
        <ele>636.556683</ele>
        <time>2017-06-02T06:37:11.078Z</time>
      </trkpt>
      <trkpt lat="45.987156" lon="6.126099">
        <ele>636.072216</ele>
        <time>2017-06-02T06:37:13.323Z</time>
      </trkpt>
      <trkpt lat="45.986691" lon="6.126248">
        <ele>634.437042</ele>
        <time>2017-06-02T06:37:20.960Z</time>
      </trkpt>
      <trkpt lat="45.986056" lon="6.126339">
        <ele>632.246651</ele>
        <time>2017-06-02T06:37:30.859Z</time>
      </trkpt>
      <trkpt lat="45.985677" lon="6.126394">
        <ele>630.827706</ele>
        <time>2017-06-02T06:37:36.660Z</time>
      </trkpt>
      <trkpt lat="45.984341" lon="6.126572">
        <ele>625.727210</ele>
        <time>2017-06-02T06:37:57.540Z</time>
      </trkpt>
      <trkpt lat="45.984080" lon="6.126707">
        <ele>625.154000</ele>
        <time>2017-06-02T06:38:02.347Z</time>
      </trkpt>
      <trkpt lat="45.983698" lon="6.127079">
        <ele>625.213280</ele>
        <time>2017-06-02T06:38:11.322Z</time>
      </trkpt>
      <trkpt lat="45.983671" lon="6.127126">
        <ele>625.218726</ele>
        <time>2017-06-02T06:38:12.001Z</time>
      </trkpt>
      <trkpt lat="45.983629" lon="6.127047">
        <ele>625.227609</ele>
        <time>2017-06-02T06:38:13.970Z</time>
      </trkpt>
      <trkpt lat="45.983577" lon="6.126948">
        <ele>625.238692</ele>
        <time>2017-06-02T06:38:16.670Z</time>
      </trkpt>
      <trkpt lat="45.983502" lon="6.126873">
        <ele>625.250430</ele>
        <time>2017-06-02T06:38:18.545Z</time>
      </trkpt>
      <trkpt lat="45.983429" lon="6.126818">
        <ele>625.261020</ele>
        <time>2017-06-02T06:38:20.313Z</time>
      </trkpt>
      <trkpt lat="45.983312" lon="6.126724">
        <ele>625.278242</ele>
        <time>2017-06-02T06:38:23.966Z</time>
      </trkpt>
      <trkpt lat="45.982828" lon="6.126392">
        <ele>625.347152</ele>
        <time>2017-06-02T06:38:38.671Z</time>
      </trkpt>
      <trkpt lat="45.982372" lon="6.125970">
        <ele>625.959138</ele>
        <time>2017-06-02T06:38:54.911Z</time>
      </trkpt>
      <trkpt lat="45.982356" lon="6.125997">
        <ele>625.998567</ele>
        <time>2017-06-02T06:38:56.200Z</time>
      </trkpt>
      <trkpt lat="45.981640" lon="6.125883">
        <ele>627.150473</ele>
        <time>2017-06-02T06:39:19.269Z</time>
      </trkpt>
      <trkpt lat="45.980766" lon="6.125902">
        <ele>628.313304</ele>
        <time>2017-06-02T06:39:43.223Z</time>
      </trkpt>
      <trkpt lat="45.980245" lon="6.125964">
        <ele>628.500434</ele>
        <time>2017-06-02T06:39:55.241Z</time>
      </trkpt>
      <trkpt lat="45.979803" lon="6.126165">
        <ele>628.666361</ele>
        <time>2017-06-02T06:40:05.992Z</time>
      </trkpt>
      <trkpt lat="45.979546" lon="6.126208">
        <ele>628.758975</ele>
        <time>2017-06-02T06:40:12.234Z</time>
      </trkpt>
      <trkpt lat="45.978928" lon="6.126053">
        <ele>629.140659</ele>
        <time>2017-06-02T06:40:27.746Z</time>
      </trkpt>
      <trkpt lat="45.978916" lon="6.126037">
        <ele>629.156289</ele>
        <time>2017-06-02T06:40:28.135Z</time>
      </trkpt>
      <trkpt lat="45.978904" lon="6.126055">
        <ele>629.172851</ele>
        <time>2017-06-02T06:40:28.765Z</time>
      </trkpt>
      <trkpt lat="45.978577" lon="6.126183">
        <ele>629.496631</ele>
        <time>2017-06-02T06:40:37.436Z</time>
      </trkpt>
      <trkpt lat="45.977220" lon="6.126313">
        <ele>630.774059</ele>
        <time>2017-06-02T06:41:15.705Z</time>
      </trkpt>
      <trkpt lat="45.975706" lon="6.125995">
        <ele>632.065256</ele>
        <time>2017-06-02T06:41:56.798Z</time>
      </trkpt>
      <trkpt lat="45.974683" lon="6.126004">
        <ele>631.826047</ele>
        <time>2017-06-02T06:42:20.818Z</time>
      </trkpt>
      <trkpt lat="45.974324" lon="6.125913">
        <ele>631.711215</ele>
        <time>2017-06-02T06:42:28.592Z</time>
      </trkpt>
      <trkpt lat="45.974201" lon="6.125836">
        <ele>631.668960</ele>
        <time>2017-06-02T06:42:31.172Z</time>
      </trkpt>
      <trkpt lat="45.974012" lon="6.125651">
        <ele>631.596952</ele>
        <time>2017-06-02T06:42:35.995Z</time>
      </trkpt>
      <trkpt lat="45.973984" lon="6.125606">
        <ele>631.583729</ele>
        <time>2017-06-02T06:42:36.775Z</time>
      </trkpt>
      <trkpt lat="45.973954" lon="6.125540">
        <ele>631.566463</ele>
        <time>2017-06-02T06:42:37.944Z</time>
      </trkpt>
      <trkpt lat="45.973926" lon="6.125554">
        <ele>631.551320</ele>
        <time>2017-06-02T06:42:38.410Z</time>
      </trkpt>
      <trkpt lat="45.973721" lon="6.125538">
        <ele>631.300035</ele>
        <time>2017-06-02T06:42:42.451Z</time>
      </trkpt>
      <trkpt lat="45.972220" lon="6.124794">
        <ele>629.357186</ele>
        <time>2017-06-02T06:43:11.982Z</time>
      </trkpt>
      <trkpt lat="45.971193" lon="6.124716">
        <ele>628.607859</ele>
        <time>2017-06-02T06:43:31.737Z</time>
      </trkpt>
      <trkpt lat="45.970879" lon="6.124625">
        <ele>628.374480</ele>
        <time>2017-06-02T06:43:38.944Z</time>
      </trkpt>
      <trkpt lat="45.970072" lon="6.123953">
        <ele>626.880998</ele>
        <time>2017-06-02T06:43:59.324Z</time>
      </trkpt>
      <trkpt lat="45.969685" lon="6.123528">
        <ele>625.705867</ele>
        <time>2017-06-02T06:44:07.645Z</time>
      </trkpt>
      <trkpt lat="45.969668" lon="6.123502">
        <ele>625.645981</ele>
        <time>2017-06-02T06:44:08.724Z</time>
      </trkpt>
      <trkpt lat="45.969672" lon="6.123497">
        <ele>625.633191</ele>
        <time>2017-06-02T06:44:08.919Z</time>
      </trkpt>
      <trkpt lat="45.969666" lon="6.123426">
        <ele>625.513201</ele>
        <time>2017-06-02T06:44:09.852Z</time>
      </trkpt>
      <trkpt lat="45.969666" lon="6.123426">
        <ele>625.513201</ele>
        <time>2017-06-02T06:44:09.943Z</time>
      </trkpt>
      <trkpt lat="45.969657" lon="6.123418">
        <ele>625.487666</ele>
        <time>2017-06-02T06:44:10.102Z</time>
      </trkpt>
      <trkpt lat="45.969611" lon="6.123444">
        <ele>625.368374</ele>
        <time>2017-06-02T06:44:11.023Z</time>
      </trkpt>
      <trkpt lat="45.969609" lon="6.123453">
        <ele>625.352522</ele>
        <time>2017-06-02T06:44:11.120Z</time>
      </trkpt>
      <trkpt lat="45.969592" lon="6.123448">
        <ele>625.310640</ele>
        <time>2017-06-02T06:44:11.385Z</time>
      </trkpt>
      <trkpt lat="45.969106" lon="6.123220">
        <ele>624.076778</ele>
        <time>2017-06-02T06:44:19.577Z</time>
      </trkpt>
      <trkpt lat="45.969000" lon="6.123219">
        <ele>623.820916</ele>
        <time>2017-06-02T06:44:21.154Z</time>
      </trkpt>
      <trkpt lat="45.968809" lon="6.123215">
        <ele>622.628603</ele>
        <time>2017-06-02T06:44:24.143Z</time>
      </trkpt>
      <trkpt lat="45.968732" lon="6.123211">
        <ele>622.049376</ele>
        <time>2017-06-02T06:44:25.180Z</time>
      </trkpt>
      <trkpt lat="45.968310" lon="6.123065">
        <ele>618.786545</ele>
        <time>2017-06-02T06:44:31.474Z</time>
      </trkpt>
      <trkpt lat="45.968169" lon="6.123078">
        <ele>617.724399</ele>
        <time>2017-06-02T06:44:33.536Z</time>
      </trkpt>
      <trkpt lat="45.968064" lon="6.123172">
        <ele>616.794722</ele>
        <time>2017-06-02T06:44:35.247Z</time>
      </trkpt>
      <trkpt lat="45.967901" lon="6.123516">
        <ele>614.619333</ele>
        <time>2017-06-02T06:44:39.361Z</time>
      </trkpt>
      <trkpt lat="45.967826" lon="6.123674">
        <ele>613.619604</ele>
        <time>2017-06-02T06:44:41.133Z</time>
      </trkpt>
      <trkpt lat="45.967759" lon="6.123769">
        <ele>612.912433</ele>
        <time>2017-06-02T06:44:42.420Z</time>
      </trkpt>
      <trkpt lat="45.967591" lon="6.123907">
        <ele>611.458137</ele>
        <time>2017-06-02T06:44:45.140Z</time>
      </trkpt>
      <trkpt lat="45.967442" lon="6.123857">
        <ele>610.307960</ele>
        <time>2017-06-02T06:44:47.189Z</time>
      </trkpt>
      <trkpt lat="45.967338" lon="6.123627">
        <ele>608.749946</ele>
        <time>2017-06-02T06:44:49.872Z</time>
      </trkpt>
      <trkpt lat="45.967217" lon="6.122904">
        <ele>604.495494</ele>
        <time>2017-06-02T06:44:56.915Z</time>
      </trkpt>
      <trkpt lat="45.967150" lon="6.122724">
        <ele>603.327360</ele>
        <time>2017-06-02T06:44:58.925Z</time>
      </trkpt>
      <trkpt lat="45.966980" lon="6.122586">
        <ele>601.720767</ele>
        <time>2017-06-02T06:45:01.561Z</time>
      </trkpt>
      <trkpt lat="45.966664" lon="6.122601">
        <ele>599.118433</ele>
        <time>2017-06-02T06:45:06.057Z</time>
      </trkpt>
      <trkpt lat="45.966332" lon="6.122696">
        <ele>596.332298</ele>
        <time>2017-06-02T06:45:10.949Z</time>
      </trkpt>
      <trkpt lat="45.966156" lon="6.122721">
        <ele>595.009673</ele>
        <time>2017-06-02T06:45:13.500Z</time>
      </trkpt>
      <trkpt lat="45.966020" lon="6.122714">
        <ele>594.185529</ele>
        <time>2017-06-02T06:45:15.495Z</time>
      </trkpt>
      <trkpt lat="45.965945" lon="6.122694">
        <ele>593.723593</ele>
        <time>2017-06-02T06:45:16.605Z</time>
      </trkpt>
      <trkpt lat="45.963813" lon="6.121441">
        <ele>579.313562</ele>
        <time>2017-06-02T06:45:50.471Z</time>
      </trkpt>
      <trkpt lat="45.963128" lon="6.121246">
        <ele>574.669335</ele>
        <time>2017-06-02T06:46:00.375Z</time>
      </trkpt>
      <trkpt lat="45.962949" lon="6.121120">
        <ele>573.343943</ele>
        <time>2017-06-02T06:46:03.329Z</time>
      </trkpt>
      <trkpt lat="45.962828" lon="6.121053">
        <ele>572.494417</ele>
        <time>2017-06-02T06:46:05.071Z</time>
      </trkpt>
      <trkpt lat="45.962765" lon="6.121009">
        <ele>572.166372</ele>
        <time>2017-06-02T06:46:06.155Z</time>
      </trkpt>
      <trkpt lat="45.962517" lon="6.120957">
        <ele>570.992410</ele>
        <time>2017-06-02T06:46:09.675Z</time>
      </trkpt>
      <trkpt lat="45.962248" lon="6.120988">
        <ele>569.728318</ele>
        <time>2017-06-02T06:46:13.687Z</time>
      </trkpt>
      <trkpt lat="45.961928" lon="6.120918">
        <ele>568.212137</ele>
        <time>2017-06-02T06:46:18.450Z</time>
      </trkpt>
      <trkpt lat="45.960906" lon="6.120620">
        <ele>563.702911</ele>
        <time>2017-06-02T06:46:35.598Z</time>
      </trkpt>
      <trkpt lat="45.960768" lon="6.120434">
        <ele>563.247762</ele>
        <time>2017-06-02T06:46:39.354Z</time>
      </trkpt>
      <trkpt lat="45.960572" lon="6.119572">
        <ele>561.730359</ele>
        <time>2017-06-02T06:46:50.898Z</time>
      </trkpt>
      <trkpt lat="45.960462" lon="6.119323">
        <ele>561.236749</ele>
        <time>2017-06-02T06:46:54.243Z</time>
      </trkpt>
      <trkpt lat="45.960405" lon="6.119242">
        <ele>561.043910</ele>
        <time>2017-06-02T06:46:56.478Z</time>
      </trkpt>
      <trkpt lat="45.960237" lon="6.119003">
        <ele>560.475233</ele>
        <time>2017-06-02T06:47:00.321Z</time>
      </trkpt>
      <trkpt lat="45.959584" lon="6.118418">
        <ele>557.568059</ele>
        <time>2017-06-02T06:47:12.769Z</time>
      </trkpt>
      <trkpt lat="45.958963" lon="6.118195">
        <ele>554.609632</ele>
        <time>2017-06-02T06:47:22.333Z</time>
      </trkpt>
      <trkpt lat="45.958692" lon="6.118168">
        <ele>553.354034</ele>
        <time>2017-06-02T06:47:26.344Z</time>
      </trkpt>
      <trkpt lat="45.958261" lon="6.117761">
        <ele>550.953087</ele>
        <time>2017-06-02T06:47:34.106Z</time>
      </trkpt>
      <trkpt lat="45.958036" lon="6.117420">
        <ele>549.386772</ele>
        <time>2017-06-02T06:47:39.155Z</time>
      </trkpt>
      <trkpt lat="45.957762" lon="6.116289">
        <ele>545.396495</ele>
        <time>2017-06-02T06:47:52.045Z</time>
      </trkpt>
      <trkpt lat="45.957743" lon="6.116038">
        <ele>544.555321</ele>
        <time>2017-06-02T06:47:54.807Z</time>
      </trkpt>
      <trkpt lat="45.957738" lon="6.115970">
        <ele>544.327508</ele>
        <time>2017-06-02T06:47:55.478Z</time>
      </trkpt>
      <trkpt lat="45.957691" lon="6.115376">
        <ele>542.151450</ele>
        <time>2017-06-02T06:48:01.722Z</time>
      </trkpt>
      <trkpt lat="45.957598" lon="6.115052">
        <ele>540.554470</ele>
        <time>2017-06-02T06:48:05.381Z</time>
      </trkpt>
      <trkpt lat="45.957484" lon="6.114833">
        <ele>539.308022</ele>
        <time>2017-06-02T06:48:08.048Z</time>
      </trkpt>
      <trkpt lat="45.957161" lon="6.114210">
        <ele>535.767285</ele>
        <time>2017-06-02T06:48:16.079Z</time>
      </trkpt>
      <trkpt lat="45.957091" lon="6.114015">
        <ele>534.767431</ele>
        <time>2017-06-02T06:48:18.232Z</time>
      </trkpt>
      <trkpt lat="45.957069" lon="6.113755">
        <ele>533.574147</ele>
        <time>2017-06-02T06:48:20.884Z</time>
      </trkpt>
      <trkpt lat="45.957117" lon="6.113471">
        <ele>532.242573</ele>
        <time>2017-06-02T06:48:23.717Z</time>
      </trkpt>
      <trkpt lat="45.957152" lon="6.113257">
        <ele>531.240987</ele>
        <time>2017-06-02T06:48:25.883Z</time>
      </trkpt>
      <trkpt lat="45.957078" lon="6.113096">
        <ele>530.149624</ele>
        <time>2017-06-02T06:48:27.742Z</time>
      </trkpt>
      <trkpt lat="45.957016" lon="6.113070">
        <ele>529.596026</ele>
        <time>2017-06-02T06:48:28.597Z</time>
      </trkpt>
      <trkpt lat="45.956958" lon="6.113100">
        <ele>529.067674</ele>
        <time>2017-06-02T06:48:29.479Z</time>
      </trkpt>
      <trkpt lat="45.956889" lon="6.113211">
        <ele>528.180311</ele>
        <time>2017-06-02T06:48:30.920Z</time>
      </trkpt>
      <trkpt lat="45.956862" lon="6.113301">
        <ele>527.596161</ele>
        <time>2017-06-02T06:48:31.878Z</time>
      </trkpt>
      <trkpt lat="45.956834" lon="6.113389">
        <ele>527.019420</ele>
        <time>2017-06-02T06:48:32.809Z</time>
      </trkpt>
      <trkpt lat="45.956717" lon="6.113733">
        <ele>524.737209</ele>
        <time>2017-06-02T06:48:36.522Z</time>
      </trkpt>
      <trkpt lat="45.956514" lon="6.113724">
        <ele>522.996235</ele>
        <time>2017-06-02T06:48:39.250Z</time>
      </trkpt>
      <trkpt lat="45.956492" lon="6.113705">
        <ele>522.776267</ele>
        <time>2017-06-02T06:48:39.612Z</time>
      </trkpt>
      <trkpt lat="45.955973" lon="6.113248">
        <ele>517.559912</ele>
        <time>2017-06-02T06:48:47.992Z</time>
      </trkpt>
      <trkpt lat="45.955484" lon="6.112579">
        <ele>512.682025</ele>
        <time>2017-06-02T06:48:57.708Z</time>
      </trkpt>
      <trkpt lat="45.955426" lon="6.112545">
        <ele>512.271412</ele>
        <time>2017-06-02T06:48:58.514Z</time>
      </trkpt>
      <trkpt lat="45.955371" lon="6.112513">
        <ele>511.882451</ele>
        <time>2017-06-02T06:48:59.367Z</time>
      </trkpt>
      <trkpt lat="45.955177" lon="6.112478">
        <ele>510.600621</ele>
        <time>2017-06-02T06:49:02.241Z</time>
      </trkpt>
      <trkpt lat="45.955125" lon="6.112489">
        <ele>510.256041</ele>
        <time>2017-06-02T06:49:02.977Z</time>
      </trkpt>
      <trkpt lat="45.955083" lon="6.112497">
        <ele>509.978285</ele>
        <time>2017-06-02T06:49:03.525Z</time>
      </trkpt>
      <trkpt lat="45.954782" lon="6.112503">
        <ele>508.004739</ele>
        <time>2017-06-02T06:49:08.058Z</time>
      </trkpt>
      <trkpt lat="45.954315" lon="6.112395">
        <ele>504.903764</ele>
        <time>2017-06-02T06:49:14.912Z</time>
      </trkpt>
      <trkpt lat="45.954089" lon="6.112044">
        <ele>503.258267</ele>
        <time>2017-06-02T06:49:20.012Z</time>
      </trkpt>
      <trkpt lat="45.954036" lon="6.112008">
        <ele>503.058128</ele>
        <time>2017-06-02T06:49:20.913Z</time>
      </trkpt>
      <trkpt lat="45.953943" lon="6.111909">
        <ele>502.663060</ele>
        <time>2017-06-02T06:49:23.040Z</time>
      </trkpt>
      <trkpt lat="45.953420" lon="6.111021">
        <ele>499.900224</ele>
        <time>2017-06-02T06:49:36.738Z</time>
      </trkpt>
      <trkpt lat="45.953330" lon="6.110966">
        <ele>499.566322</ele>
        <time>2017-06-02T06:49:38.326Z</time>
      </trkpt>
      <trkpt lat="45.953224" lon="6.110948">
        <ele>499.201860</ele>
        <time>2017-06-02T06:49:39.990Z</time>
      </trkpt>
      <trkpt lat="45.952805" lon="6.110981">
        <ele>497.768995</ele>
        <time>2017-06-02T06:49:46.747Z</time>
      </trkpt>
      <trkpt lat="45.952673" lon="6.110979">
        <ele>497.271863</ele>
        <time>2017-06-02T06:49:48.926Z</time>
      </trkpt>
      <trkpt lat="45.952600" lon="6.110955">
        <ele>496.984956</ele>
        <time>2017-06-02T06:49:50.050Z</time>
      </trkpt>
      <trkpt lat="45.952241" lon="6.110733">
        <ele>495.487741</ele>
        <time>2017-06-02T06:49:56.367Z</time>
      </trkpt>
      <trkpt lat="45.951984" lon="6.110474">
        <ele>494.285415</ele>
        <time>2017-06-02T06:50:01.405Z</time>
      </trkpt>
      <trkpt lat="45.951731" lon="6.110206">
        <ele>493.081546</ele>
        <time>2017-06-02T06:50:06.366Z</time>
      </trkpt>
      <trkpt lat="45.951497" lon="6.109892">
        <ele>491.855393</ele>
        <time>2017-06-02T06:50:11.361Z</time>
      </trkpt>
      <trkpt lat="45.951275" lon="6.109456">
        <ele>490.489674</ele>
        <time>2017-06-02T06:50:17.076Z</time>
      </trkpt>
      <trkpt lat="45.951049" lon="6.108814">
        <ele>488.934885</ele>
        <time>2017-06-02T06:50:24.852Z</time>
      </trkpt>
      <trkpt lat="45.951037" lon="6.108790">
        <ele>488.871014</ele>
        <time>2017-06-02T06:50:25.131Z</time>
      </trkpt>
      <trkpt lat="45.951054" lon="6.108762">
        <ele>488.790696</ele>
        <time>2017-06-02T06:50:25.537Z</time>
      </trkpt>
      <trkpt lat="45.951036" lon="6.108629">
        <ele>488.497938</ele>
        <time>2017-06-02T06:50:27.103Z</time>
      </trkpt>
      <trkpt lat="45.950962" lon="6.108617">
        <ele>488.266518</ele>
        <time>2017-06-02T06:50:28.326Z</time>
      </trkpt>
      <trkpt lat="45.950942" lon="6.108634">
        <ele>488.194324</ele>
        <time>2017-06-02T06:50:28.696Z</time>
      </trkpt>
      <trkpt lat="45.950933" lon="6.108609">
        <ele>488.133496</ele>
        <time>2017-06-02T06:50:28.973Z</time>
      </trkpt>
      <trkpt lat="45.950692" lon="6.108378">
        <ele>487.233490</ele>
        <time>2017-06-02T06:50:33.820Z</time>
      </trkpt>
      <trkpt lat="45.950596" lon="6.108306">
        <ele>486.897035</ele>
        <time>2017-06-02T06:50:35.570Z</time>
      </trkpt>
      <trkpt lat="45.950550" lon="6.108272">
        <ele>486.736314</ele>
        <time>2017-06-02T06:50:36.523Z</time>
      </trkpt>
      <trkpt lat="45.950500" lon="6.108233">
        <ele>486.559555</ele>
        <time>2017-06-02T06:50:37.439Z</time>
      </trkpt>
      <trkpt lat="45.950425" lon="6.108173">
        <ele>486.292856</ele>
        <time>2017-06-02T06:50:39.171Z</time>
      </trkpt>
      <trkpt lat="45.950317" lon="6.108086">
        <ele>485.908178</ele>
        <time>2017-06-02T06:50:41.298Z</time>
      </trkpt>
      <trkpt lat="45.950049" lon="6.107742">
        <ele>485.301947</ele>
        <time>2017-06-02T06:50:47.919Z</time>
      </trkpt>
      <trkpt lat="45.949977" lon="6.107615">
        <ele>485.372335</ele>
        <time>2017-06-02T06:50:50.030Z</time>
      </trkpt>
      <trkpt lat="45.949884" lon="6.107443">
        <ele>485.465927</ele>
        <time>2017-06-02T06:50:53.150Z</time>
      </trkpt>
      <trkpt lat="45.949690" lon="6.107117">
        <ele>485.650244</ele>
        <time>2017-06-02T06:50:59.197Z</time>
      </trkpt>
      <trkpt lat="45.949668" lon="6.107100">
        <ele>485.665673</ele>
        <time>2017-06-02T06:50:59.855Z</time>
      </trkpt>
      <trkpt lat="45.949549" lon="6.107013">
        <ele>485.748143</ele>
        <time>2017-06-02T06:51:02.879Z</time>
      </trkpt>
      <trkpt lat="45.949485" lon="6.106967">
        <ele>485.792344</ele>
        <time>2017-06-02T06:51:04.634Z</time>
      </trkpt>
      <trkpt lat="45.949447" lon="6.106934">
        <ele>485.819767</ele>
        <time>2017-06-02T06:51:05.639Z</time>
      </trkpt>
      <trkpt lat="45.949426" lon="6.106915">
        <ele>485.835094</ele>
        <time>2017-06-02T06:51:06.332Z</time>
      </trkpt>
      <trkpt lat="45.949441" lon="6.106887">
        <ele>485.850278</ele>
        <time>2017-06-02T06:51:06.946Z</time>
      </trkpt>
      <trkpt lat="45.949443" lon="6.106820">
        <ele>485.879084</ele>
        <time>2017-06-02T06:51:08.081Z</time>
      </trkpt>
      <trkpt lat="45.949430" lon="6.106790">
        <ele>485.894268</ele>
        <time>2017-06-02T06:51:08.758Z</time>
      </trkpt>
      <trkpt lat="45.949414" lon="6.106774">
        <ele>485.906307</ele>
        <time>2017-06-02T06:51:09.287Z</time>
      </trkpt>
      <trkpt lat="45.949332" lon="6.106817">
        <ele>485.960228</ele>
        <time>2017-06-02T06:51:11.563Z</time>
      </trkpt>
      <trkpt lat="45.949328" lon="6.106844">
        <ele>485.972086</ele>
        <time>2017-06-02T06:51:12.117Z</time>
      </trkpt>
      <trkpt lat="45.949302" lon="6.106847">
        <ele>485.988200</ele>
        <time>2017-06-02T06:51:12.934Z</time>
      </trkpt>
      <trkpt lat="45.949246" lon="6.106853">
        <ele>486.022892</ele>
        <time>2017-06-02T06:51:14.701Z</time>
      </trkpt>
      <trkpt lat="45.949046" lon="6.106879">
        <ele>486.146954</ele>
        <time>2017-06-02T06:51:20.924Z</time>
      </trkpt>
      <trkpt lat="45.948943" lon="6.106901">
        <ele>486.211284</ele>
        <time>2017-06-02T06:51:24.203Z</time>
      </trkpt>
      <trkpt lat="45.948590" lon="6.106937">
        <ele>486.805276</ele>
        <time>2017-06-02T06:51:36.188Z</time>
      </trkpt>
      <trkpt lat="45.948530" lon="6.106929">
        <ele>486.980358</ele>
        <time>2017-06-02T06:51:38.354Z</time>
      </trkpt>
      <trkpt lat="45.948489" lon="6.106914">
        <ele>487.103281</ele>
        <time>2017-06-02T06:51:39.775Z</time>
      </trkpt>
      <trkpt lat="45.948421" lon="6.106892">
        <ele>487.305798</ele>
        <time>2017-06-02T06:51:42.143Z</time>
      </trkpt>
      <trkpt lat="45.948259" lon="6.106835">
        <ele>487.790383</ele>
        <time>2017-06-02T06:51:47.991Z</time>
      </trkpt>
      <trkpt lat="45.947914" lon="6.106716">
        <ele>488.821235</ele>
        <time>2017-06-02T06:52:01.167Z</time>
      </trkpt>
      <trkpt lat="45.947823" lon="6.106687">
        <ele>489.092056</ele>
        <time>2017-06-02T06:52:04.705Z</time>
      </trkpt>
      <trkpt lat="45.947806" lon="6.106683">
        <ele>489.142108</ele>
        <time>2017-06-02T06:52:05.294Z</time>
      </trkpt>
      <trkpt lat="45.947641" lon="6.106627">
        <ele>489.634697</ele>
        <time>2017-06-02T06:52:11.383Z</time>
      </trkpt>
      <trkpt lat="45.947188" lon="6.106483">
        <ele>490.982693</ele>
        <time>2017-06-02T06:52:27.578Z</time>
      </trkpt>
      <trkpt lat="45.946931" lon="6.106420">
        <ele>491.490391</ele>
        <time>2017-06-02T06:52:35.885Z</time>
      </trkpt>
      <trkpt lat="45.946555" lon="6.106337">
        <ele>491.107589</ele>
        <time>2017-06-02T06:52:46.524Z</time>
      </trkpt>
      <trkpt lat="45.945976" lon="6.106210">
        <ele>490.518199</ele>
        <time>2017-06-02T06:52:59.331Z</time>
      </trkpt>
      <trkpt lat="45.945967" lon="6.106242">
        <ele>490.494046</ele>
        <time>2017-06-02T06:52:59.757Z</time>
      </trkpt>
      <trkpt lat="45.945941" lon="6.106316">
        <ele>490.436031</ele>
        <time>2017-06-02T06:53:00.764Z</time>
      </trkpt>
      <trkpt lat="45.945923" lon="6.106366">
        <ele>490.396634</ele>
        <time>2017-06-02T06:53:01.399Z</time>
      </trkpt>
      <trkpt lat="45.945791" lon="6.106721">
        <ele>490.114946</ele>
        <time>2017-06-02T06:53:06.115Z</time>
      </trkpt>
      <trkpt lat="45.945784" lon="6.106741">
        <ele>490.099279</ele>
        <time>2017-06-02T06:53:06.366Z</time>
      </trkpt>
      <trkpt lat="45.945765" lon="6.106792">
        <ele>490.058794</ele>
        <time>2017-06-02T06:53:06.983Z</time>
      </trkpt>
      <trkpt lat="45.945692" lon="6.106986">
        <ele>489.904445</ele>
        <time>2017-06-02T06:53:09.330Z</time>
      </trkpt>
      <trkpt lat="45.945634" lon="6.107142">
        <ele>489.780663</ele>
        <time>2017-06-02T06:53:11.430Z</time>
      </trkpt>
      <trkpt lat="45.945595" lon="6.107237">
        <ele>489.524006</ele>
        <time>2017-06-02T06:53:12.623Z</time>
      </trkpt>
      <trkpt lat="45.945544" lon="6.107348">
        <ele>489.025365</ele>
        <time>2017-06-02T06:53:13.962Z</time>
      </trkpt>
      <trkpt lat="45.945458" lon="6.107505">
        <ele>488.276280</ele>
        <time>2017-06-02T06:53:16.196Z</time>
      </trkpt>
      <trkpt lat="45.945416" lon="6.107558">
        <ele>487.975101</ele>
        <time>2017-06-02T06:53:17.079Z</time>
      </trkpt>
      <trkpt lat="45.945378" lon="6.107606">
        <ele>487.702488</ele>
        <time>2017-06-02T06:53:17.818Z</time>
      </trkpt>
      <trkpt lat="45.945339" lon="6.107655">
        <ele>487.423351</ele>
        <time>2017-06-02T06:53:18.584Z</time>
      </trkpt>
      <trkpt lat="45.945305" lon="6.107699">
        <ele>487.176812</ele>
        <time>2017-06-02T06:53:19.202Z</time>
      </trkpt>
      <trkpt lat="45.945137" lon="6.107942">
        <ele>485.892490</ele>
        <time>2017-06-02T06:53:22.899Z</time>
      </trkpt>
      <trkpt lat="45.945025" lon="6.108069">
        <ele>485.123715</ele>
        <time>2017-06-02T06:53:24.915Z</time>
      </trkpt>
      <trkpt lat="45.944965" lon="6.108135">
        <ele>484.716551</ele>
        <time>2017-06-02T06:53:26.067Z</time>
      </trkpt>
      <trkpt lat="45.944770" lon="6.108356">
        <ele>483.378326</ele>
        <time>2017-06-02T06:53:29.670Z</time>
      </trkpt>
      <trkpt lat="45.944723" lon="6.108410">
        <ele>483.054071</ele>
        <time>2017-06-02T06:53:30.560Z</time>
      </trkpt>
      <trkpt lat="45.944697" lon="6.108439">
        <ele>482.876718</ele>
        <time>2017-06-02T06:53:31.054Z</time>
      </trkpt>
      <trkpt lat="45.944636" lon="6.108509">
        <ele>482.456074</ele>
        <time>2017-06-02T06:53:32.245Z</time>
      </trkpt>
      <trkpt lat="45.944540" lon="6.108614">
        <ele>481.805974</ele>
        <time>2017-06-02T06:53:34.000Z</time>
      </trkpt>
      <trkpt lat="45.944400" lon="6.108767">
        <ele>480.858194</ele>
        <time>2017-06-02T06:53:36.543Z</time>
      </trkpt>
      <trkpt lat="45.944383" lon="6.108785">
        <ele>480.744405</ele>
        <time>2017-06-02T06:53:36.847Z</time>
      </trkpt>
      <trkpt lat="45.944317" lon="6.108855">
        <ele>480.302375</ele>
        <time>2017-06-02T06:53:38.137Z</time>
      </trkpt>
      <trkpt lat="45.944293" lon="6.108873">
        <ele>480.156477</ele>
        <time>2017-06-02T06:53:38.528Z</time>
      </trkpt>
      <trkpt lat="45.944265" lon="6.108891">
        <ele>480.003368</ele>
        <time>2017-06-02T06:53:38.960Z</time>
      </trkpt>
      <trkpt lat="45.944011" lon="6.108955">
        <ele>478.902808</ele>
        <time>2017-06-02T06:53:42.750Z</time>
      </trkpt>
      <trkpt lat="45.943902" lon="6.108957">
        <ele>478.437569</ele>
        <time>2017-06-02T06:53:44.356Z</time>
      </trkpt>
      <trkpt lat="45.943886" lon="6.108957">
        <ele>478.369283</ele>
        <time>2017-06-02T06:53:44.600Z</time>
      </trkpt>
      <trkpt lat="45.943852" lon="6.108956">
        <ele>478.224144</ele>
        <time>2017-06-02T06:53:45.104Z</time>
      </trkpt>
      <trkpt lat="45.943720" lon="6.108957">
        <ele>477.660773</ele>
        <time>2017-06-02T06:53:47.108Z</time>
      </trkpt>
      <trkpt lat="45.943681" lon="6.108956">
        <ele>477.494298</ele>
        <time>2017-06-02T06:53:47.702Z</time>
      </trkpt>
      <trkpt lat="45.943585" lon="6.108954">
        <ele>477.084537</ele>
        <time>2017-06-02T06:53:49.171Z</time>
      </trkpt>
      <trkpt lat="45.943445" lon="6.108957">
        <ele>476.486965</ele>
        <time>2017-06-02T06:53:51.302Z</time>
      </trkpt>
      <trkpt lat="45.943403" lon="6.108957">
        <ele>476.307713</ele>
        <time>2017-06-02T06:53:51.992Z</time>
      </trkpt>
      <trkpt lat="45.943337" lon="6.108958">
        <ele>476.026016</ele>
        <time>2017-06-02T06:53:53.053Z</time>
      </trkpt>
      <trkpt lat="45.943220" lon="6.108954">
        <ele>475.526530</ele>
        <time>2017-06-02T06:53:54.893Z</time>
      </trkpt>
      <trkpt lat="45.943173" lon="6.108952">
        <ele>475.325851</ele>
        <time>2017-06-02T06:53:55.587Z</time>
      </trkpt>
      <trkpt lat="45.943132" lon="6.108951">
        <ele>475.150842</ele>
        <time>2017-06-02T06:53:56.253Z</time>
      </trkpt>
      <trkpt lat="45.943094" lon="6.108953">
        <ele>474.988553</ele>
        <time>2017-06-02T06:53:56.852Z</time>
      </trkpt>
      <trkpt lat="45.942929" lon="6.108956">
        <ele>474.284294</ele>
        <time>2017-06-02T06:53:59.612Z</time>
      </trkpt>
      <trkpt lat="45.942857" lon="6.108931">
        <ele>473.968174</ele>
        <time>2017-06-02T06:54:00.747Z</time>
      </trkpt>
      <trkpt lat="45.942816" lon="6.108917">
        <ele>473.788325</ele>
        <time>2017-06-02T06:54:01.395Z</time>
      </trkpt>
      <trkpt lat="45.942685" lon="6.108872">
        <ele>473.213501</ele>
        <time>2017-06-02T06:54:03.624Z</time>
      </trkpt>
      <trkpt lat="45.942655" lon="6.108857">
        <ele>473.077946</ele>
        <time>2017-06-02T06:54:04.194Z</time>
      </trkpt>
      <trkpt lat="45.942626" lon="6.108835">
        <ele>472.938011</ele>
        <time>2017-06-02T06:54:04.715Z</time>
      </trkpt>
      <trkpt lat="45.942588" lon="6.108798">
        <ele>472.742153</ele>
        <time>2017-06-02T06:54:05.512Z</time>
      </trkpt>
      <trkpt lat="45.942579" lon="6.108794">
        <ele>472.701949</ele>
        <time>2017-06-02T06:54:05.657Z</time>
      </trkpt>
      <trkpt lat="45.942494" lon="6.108755">
        <ele>472.352122</ele>
        <time>2017-06-02T06:54:07.087Z</time>
      </trkpt>
      <trkpt lat="45.942386" lon="6.108714">
        <ele>472.158158</ele>
        <time>2017-06-02T06:54:08.925Z</time>
      </trkpt>
      <trkpt lat="45.942339" lon="6.108697">
        <ele>472.074001</ele>
        <time>2017-06-02T06:54:09.770Z</time>
      </trkpt>
      <trkpt lat="45.942273" lon="6.108673">
        <ele>471.955787</ele>
        <time>2017-06-02T06:54:10.943Z</time>
      </trkpt>
      <trkpt lat="45.942221" lon="6.108655">
        <ele>471.862911</ele>
        <time>2017-06-02T06:54:11.842Z</time>
      </trkpt>
      <trkpt lat="45.941800" lon="6.108488">
        <ele>471.104552</ele>
        <time>2017-06-02T06:54:19.482Z</time>
      </trkpt>
      <trkpt lat="45.941770" lon="6.108467">
        <ele>471.046614</ele>
        <time>2017-06-02T06:54:20.037Z</time>
      </trkpt>
      <trkpt lat="45.941779" lon="6.108436">
        <ele>471.006049</ele>
        <time>2017-06-02T06:54:20.497Z</time>
      </trkpt>
      <trkpt lat="45.941781" lon="6.108368">
        <ele>470.923864</ele>
        <time>2017-06-02T06:54:21.318Z</time>
      </trkpt>
      <trkpt lat="45.941773" lon="6.108336">
        <ele>470.882802</ele>
        <time>2017-06-02T06:54:21.815Z</time>
      </trkpt>
      <trkpt lat="45.941758" lon="6.108303">
        <ele>470.835196</ele>
        <time>2017-06-02T06:54:22.356Z</time>
      </trkpt>
      <trkpt lat="45.941631" lon="6.108281">
        <ele>470.613069</ele>
        <time>2017-06-02T06:54:24.821Z</time>
      </trkpt>
      <trkpt lat="45.941627" lon="6.108286">
        <ele>470.603866</ele>
        <time>2017-06-02T06:54:24.903Z</time>
      </trkpt>
      <trkpt lat="45.941609" lon="6.108257">
        <ele>470.556927</ele>
        <time>2017-06-02T06:54:25.397Z</time>
      </trkpt>
      <trkpt lat="45.941586" lon="6.108208">
        <ele>470.485540</ele>
        <time>2017-06-02T06:54:26.200Z</time>
      </trkpt>
      <trkpt lat="45.941571" lon="6.108172">
        <ele>470.434863</ele>
        <time>2017-06-02T06:54:26.684Z</time>
      </trkpt>
      <trkpt lat="45.941530" lon="6.108071">
        <ele>470.293643</ele>
        <time>2017-06-02T06:54:28.332Z</time>
      </trkpt>
      <trkpt lat="45.941495" lon="6.107975">
        <ele>470.162754</ele>
        <time>2017-06-02T06:54:29.812Z</time>
      </trkpt>
      <trkpt lat="45.941336" lon="6.107527">
        <ele>469.555395</ele>
        <time>2017-06-02T06:54:36.453Z</time>
      </trkpt>
      <trkpt lat="45.941288" lon="6.107403">
        <ele>469.384025</ele>
        <time>2017-06-02T06:54:38.274Z</time>
      </trkpt>
      <trkpt lat="45.941233" lon="6.107260">
        <ele>469.206728</ele>
        <time>2017-06-02T06:54:40.395Z</time>
      </trkpt>
      <trkpt lat="45.941194" lon="6.107147">
        <ele>469.102553</ele>
        <time>2017-06-02T06:54:42.188Z</time>
      </trkpt>
      <trkpt lat="45.941130" lon="6.106945">
        <ele>468.919248</ele>
        <time>2017-06-02T06:54:45.218Z</time>
      </trkpt>
      <trkpt lat="45.941108" lon="6.106876">
        <ele>468.856565</ele>
        <time>2017-06-02T06:54:46.208Z</time>
      </trkpt>
      <trkpt lat="45.941071" lon="6.106768">
        <ele>468.757144</ele>
        <time>2017-06-02T06:54:47.790Z</time>
      </trkpt>
      <trkpt lat="45.941009" lon="6.106593">
        <ele>468.594957</ele>
        <time>2017-06-02T06:54:50.558Z</time>
      </trkpt>
      <trkpt lat="45.940985" lon="6.106525">
        <ele>468.531985</ele>
        <time>2017-06-02T06:54:51.625Z</time>
      </trkpt>
      <trkpt lat="45.940976" lon="6.106501">
        <ele>468.509468</ele>
        <time>2017-06-02T06:54:51.985Z</time>
      </trkpt>
      <trkpt lat="45.940963" lon="6.106465">
        <ele>468.475971</ele>
        <time>2017-06-02T06:54:52.515Z</time>
      </trkpt>
      <trkpt lat="45.940940" lon="6.106418">
        <ele>468.428512</ele>
        <time>2017-06-02T06:54:53.250Z</time>
      </trkpt>
      <trkpt lat="45.940916" lon="6.106384">
        <ele>468.388505</ele>
        <time>2017-06-02T06:54:53.954Z</time>
      </trkpt>
      <trkpt lat="45.940895" lon="6.106375">
        <ele>468.362484</ele>
        <time>2017-06-02T06:54:54.343Z</time>
      </trkpt>
      <trkpt lat="45.940841" lon="6.106368">
        <ele>468.298098</ele>
        <time>2017-06-02T06:54:55.441Z</time>
      </trkpt>
      <trkpt lat="45.940762" lon="6.106388">
        <ele>468.202843</ele>
        <time>2017-06-02T06:54:57.053Z</time>
      </trkpt>
      <trkpt lat="45.940674" lon="6.106410">
        <ele>468.096776</ele>
        <time>2017-06-02T06:54:58.806Z</time>
      </trkpt>
      <trkpt lat="45.940614" lon="6.106426">
        <ele>468.024311</ele>
        <time>2017-06-02T06:54:59.902Z</time>
      </trkpt>
      <trkpt lat="45.940464" lon="6.106510">
        <ele>467.833156</ele>
        <time>2017-06-02T06:55:03.031Z</time>
      </trkpt>
      <trkpt lat="45.940284" lon="6.106674">
        <ele>467.580113</ele>
        <time>2017-06-02T06:55:06.969Z</time>
      </trkpt>
      <trkpt lat="45.940239" lon="6.106714">
        <ele>467.517290</ele>
        <time>2017-06-02T06:55:07.965Z</time>
      </trkpt>
      <trkpt lat="45.940217" lon="6.106730">
        <ele>467.488014</ele>
        <time>2017-06-02T06:55:08.402Z</time>
      </trkpt>
      <trkpt lat="45.940193" lon="6.106735">
        <ele>467.459216</ele>
        <time>2017-06-02T06:55:08.850Z</time>
      </trkpt>
      <trkpt lat="45.940176" lon="6.106733">
        <ele>467.438962</ele>
        <time>2017-06-02T06:55:09.184Z</time>
      </trkpt>
      <trkpt lat="45.939975" lon="6.106619">
        <ele>467.182379</ele>
        <time>2017-06-02T06:55:13.132Z</time>
      </trkpt>
      <trkpt lat="45.939885" lon="6.106571">
        <ele>467.054792</ele>
        <time>2017-06-02T06:55:14.853Z</time>
      </trkpt>
      <trkpt lat="45.939846" lon="6.106558">
        <ele>466.993130</ele>
        <time>2017-06-02T06:55:15.589Z</time>
      </trkpt>
      <trkpt lat="45.939813" lon="6.106545">
        <ele>466.940430</ele>
        <time>2017-06-02T06:55:16.214Z</time>
      </trkpt>
      <trkpt lat="45.939778" lon="6.106526">
        <ele>466.882808</ele>
        <time>2017-06-02T06:55:16.889Z</time>
      </trkpt>
      <trkpt lat="45.939781" lon="6.106508">
        <ele>466.862982</ele>
        <time>2017-06-02T06:55:17.131Z</time>
      </trkpt>
      <trkpt lat="45.939766" lon="6.106440">
        <ele>466.786571</ele>
        <time>2017-06-02T06:55:18.043Z</time>
      </trkpt>
      <trkpt lat="45.939756" lon="6.106428">
        <ele>466.766510</ele>
        <time>2017-06-02T06:55:18.284Z</time>
      </trkpt>
      <trkpt lat="45.939742" lon="6.106418">
        <ele>466.742433</ele>
        <time>2017-06-02T06:55:18.567Z</time>
      </trkpt>
      <trkpt lat="45.939696" lon="6.106427">
        <ele>466.670930</ele>
        <time>2017-06-02T06:55:19.365Z</time>
      </trkpt>
      <trkpt lat="45.939684" lon="6.106441">
        <ele>466.647129</ele>
        <time>2017-06-02T06:55:19.632Z</time>
      </trkpt>
      <trkpt lat="45.939675" lon="6.106459">
        <ele>466.623383</ele>
        <time>2017-06-02T06:55:19.891Z</time>
      </trkpt>
      <trkpt lat="45.939672" lon="6.106522">
        <ele>466.555746</ele>
        <time>2017-06-02T06:55:20.726Z</time>
      </trkpt>
      <trkpt lat="45.939678" lon="6.106541">
        <ele>466.533395</ele>
        <time>2017-06-02T06:55:20.979Z</time>
      </trkpt>
      <trkpt lat="45.939649" lon="6.106570">
        <ele>466.478989</ele>
        <time>2017-06-02T06:55:21.600Z</time>
      </trkpt>
      <trkpt lat="45.939591" lon="6.106618">
        <ele>466.375918</ele>
        <time>2017-06-02T06:55:22.807Z</time>
      </trkpt>
      <trkpt lat="45.939512" lon="6.106675">
        <ele>466.239781</ele>
        <time>2017-06-02T06:55:24.410Z</time>
      </trkpt>
      <trkpt lat="45.939378" lon="6.106788">
        <ele>466.000519</ele>
        <time>2017-06-02T06:55:27.284Z</time>
      </trkpt>
      <trkpt lat="45.939322" lon="6.106851">
        <ele>465.891006</ele>
        <time>2017-06-02T06:55:28.621Z</time>
      </trkpt>
      <trkpt lat="45.939058" lon="6.107198">
        <ele>465.340112</ele>
        <time>2017-06-02T06:55:35.482Z</time>
      </trkpt>
      <trkpt lat="45.938850" lon="6.107527">
        <ele>464.863856</ele>
        <time>2017-06-02T06:55:41.527Z</time>
      </trkpt>
      <trkpt lat="45.938752" lon="6.107653">
        <ele>464.661376</ele>
        <time>2017-06-02T06:55:44.046Z</time>
      </trkpt>
      <trkpt lat="45.938659" lon="6.107754">
        <ele>464.481872</ele>
        <time>2017-06-02T06:55:46.361Z</time>
      </trkpt>
      <trkpt lat="45.938437" lon="6.108097">
        <ele>464.095469</ele>
        <time>2017-06-02T06:55:52.631Z</time>
      </trkpt>
      <trkpt lat="45.938403" lon="6.108160">
        <ele>464.037163</ele>
        <time>2017-06-02T06:55:53.704Z</time>
      </trkpt>
      <trkpt lat="45.938328" lon="6.108319">
        <ele>463.896690</ele>
        <time>2017-06-02T06:55:56.275Z</time>
      </trkpt>
      <trkpt lat="45.938283" lon="6.108274">
        <ele>463.839063</ele>
        <time>2017-06-02T06:55:57.315Z</time>
      </trkpt>
      <trkpt lat="45.938235" lon="6.108341">
        <ele>463.768731</ele>
        <time>2017-06-02T06:55:58.535Z</time>
      </trkpt>
      <trkpt lat="45.937969" lon="6.108802">
        <ele>463.330755</ele>
        <time>2017-06-02T06:56:06.495Z</time>
      </trkpt>
      <trkpt lat="45.937910" lon="6.108916">
        <ele>463.226854</ele>
        <time>2017-06-02T06:56:08.380Z</time>
      </trkpt>
      <trkpt lat="45.937836" lon="6.109036">
        <ele>463.109589</ele>
        <time>2017-06-02T06:56:10.535Z</time>
      </trkpt>
      <trkpt lat="45.937803" lon="6.109076">
        <ele>463.064211</ele>
        <time>2017-06-02T06:56:11.360Z</time>
      </trkpt>
      <trkpt lat="45.937646" lon="6.109243">
        <ele>462.858893</ele>
        <time>2017-06-02T06:56:15.230Z</time>
      </trkpt>
      <trkpt lat="45.937633" lon="6.109265">
        <ele>462.837785</ele>
        <time>2017-06-02T06:56:15.597Z</time>
      </trkpt>
      <trkpt lat="45.937323" lon="6.109845">
        <ele>462.381623</ele>
        <time>2017-06-02T06:56:25.825Z</time>
      </trkpt>
      <trkpt lat="45.937121" lon="6.110257">
        <ele>462.206559</ele>
        <time>2017-06-02T06:56:32.985Z</time>
      </trkpt>
      <trkpt lat="45.936923" lon="6.110546">
        <ele>462.065671</ele>
        <time>2017-06-02T06:56:38.850Z</time>
      </trkpt>
      <trkpt lat="45.936868" lon="6.110565">
        <ele>462.037424</ele>
        <time>2017-06-02T06:56:39.992Z</time>
      </trkpt>
      <trkpt lat="45.936817" lon="6.110577">
        <ele>462.011618</ele>
        <time>2017-06-02T06:56:41.065Z</time>
      </trkpt>
      <trkpt lat="45.936451" lon="6.110562">
        <ele>461.828775</ele>
        <time>2017-06-02T06:56:48.670Z</time>
      </trkpt>
      <trkpt lat="45.936298" lon="6.110511">
        <ele>461.750345</ele>
        <time>2017-06-02T06:56:51.984Z</time>
      </trkpt>
      <trkpt lat="45.936214" lon="6.110464">
        <ele>461.705334</ele>
        <time>2017-06-02T06:56:53.850Z</time>
      </trkpt>
      <trkpt lat="45.936100" lon="6.110387">
        <ele>461.642439</ele>
        <time>2017-06-02T06:56:56.437Z</time>
      </trkpt>
      <trkpt lat="45.935930" lon="6.110244">
        <ele>461.544386</ele>
        <time>2017-06-02T06:57:00.546Z</time>
      </trkpt>
      <trkpt lat="45.935851" lon="6.110104">
        <ele>461.483553</ele>
        <time>2017-06-02T06:57:03.248Z</time>
      </trkpt>
      <trkpt lat="45.935652" lon="6.109861">
        <ele>461.356885</ele>
        <time>2017-06-02T06:57:08.921Z</time>
      </trkpt>
      <trkpt lat="45.935610" lon="6.109955">
        <ele>461.319186</ele>
        <time>2017-06-02T06:57:10.572Z</time>
      </trkpt>
      <trkpt lat="45.935585" lon="6.110012">
        <ele>461.296448</ele>
        <time>2017-06-02T06:57:11.579Z</time>
      </trkpt>
      <trkpt lat="45.935521" lon="6.110012">
        <ele>461.265396</ele>
        <time>2017-06-02T06:57:12.864Z</time>
      </trkpt>
      <trkpt lat="45.935390" lon="6.110097">
        <ele>461.195667</ele>
        <time>2017-06-02T06:57:15.902Z</time>
      </trkpt>
      <trkpt lat="45.935349" lon="6.110140">
        <ele>461.171045</ele>
        <time>2017-06-02T06:57:16.937Z</time>
      </trkpt>
      <trkpt lat="45.935313" lon="6.110182">
        <ele>461.148553</ele>
        <time>2017-06-02T06:57:17.875Z</time>
      </trkpt>
      <trkpt lat="45.935214" lon="6.110346">
        <ele>461.075277</ele>
        <time>2017-06-02T06:57:20.970Z</time>
      </trkpt>
      <trkpt lat="45.935189" lon="6.110395">
        <ele>461.054771</ele>
        <time>2017-06-02T06:57:21.827Z</time>
      </trkpt>
      <trkpt lat="45.935149" lon="6.110474">
        <ele>461.021799</ele>
        <time>2017-06-02T06:57:23.263Z</time>
      </trkpt>
      <trkpt lat="45.935071" lon="6.110627">
        <ele>460.957788</ele>
        <time>2017-06-02T06:57:25.947Z</time>
      </trkpt>
      <trkpt lat="45.935104" lon="6.110750">
        <ele>460.913303</ele>
        <time>2017-06-02T06:57:27.756Z</time>
      </trkpt>
      <trkpt lat="45.935063" lon="6.112216">
        <ele>460.522934</ele>
        <time>2017-06-02T06:57:48.704Z</time>
      </trkpt>
      <trkpt lat="45.935080" lon="6.112918">
        <ele>460.380008</ele>
        <time>2017-06-02T06:57:58.945Z</time>
      </trkpt>
      <trkpt lat="45.935082" lon="6.113193">
        <ele>460.324050</ele>
        <time>2017-06-02T06:58:03.090Z</time>
      </trkpt>
      <trkpt lat="45.935086" lon="6.113437">
        <ele>460.274388</ele>
        <time>2017-06-02T06:58:06.760Z</time>
      </trkpt>
      <trkpt lat="45.935085" lon="6.113682">
        <ele>460.224536</ele>
        <time>2017-06-02T06:58:10.492Z</time>
      </trkpt>
      <trkpt lat="45.935089" lon="6.113720">
        <ele>460.216716</ele>
        <time>2017-06-02T06:58:11.082Z</time>
      </trkpt>
      <trkpt lat="45.935111" lon="6.113880">
        <ele>460.183530</ele>
        <time>2017-06-02T06:58:13.556Z</time>
      </trkpt>
      <trkpt lat="45.935118" lon="6.113912">
        <ele>460.176704</ele>
        <time>2017-06-02T06:58:14.056Z</time>
      </trkpt>
      <trkpt lat="45.935189" lon="6.114356">
        <ele>460.195572</ele>
        <time>2017-06-02T06:58:21.061Z</time>
      </trkpt>
      <trkpt lat="45.935256" lon="6.114740">
        <ele>460.240300</ele>
        <time>2017-06-02T06:58:27.216Z</time>
      </trkpt>
      <trkpt lat="45.935466" lon="6.115631">
        <ele>460.346587</ele>
        <time>2017-06-02T06:58:42.324Z</time>
      </trkpt>
      <trkpt lat="45.935918" lon="6.116347">
        <ele>460.447995</ele>
        <time>2017-06-02T06:58:58.054Z</time>
      </trkpt>
      <trkpt lat="45.935983" lon="6.116524">
        <ele>460.448187</ele>
        <time>2017-06-02T06:59:01.320Z</time>
      </trkpt>
      <trkpt lat="45.936034" lon="6.116941">
        <ele>460.448592</ele>
        <time>2017-06-02T06:59:07.932Z</time>
      </trkpt>
      <trkpt lat="45.936007" lon="6.116956">
        <ele>460.448631</ele>
        <time>2017-06-02T06:59:08.741Z</time>
      </trkpt>
      <trkpt lat="45.935964" lon="6.116967">
        <ele>460.448692</ele>
        <time>2017-06-02T06:59:09.750Z</time>
      </trkpt>
      <trkpt lat="45.935928" lon="6.116968">
        <ele>460.448741</ele>
        <time>2017-06-02T06:59:10.582Z</time>
      </trkpt>
      <trkpt lat="45.935882" lon="6.116961">
        <ele>460.448805</ele>
        <time>2017-06-02T06:59:11.692Z</time>
      </trkpt>
      <trkpt lat="45.935702" lon="6.117205">
        <ele>460.449145</ele>
        <time>2017-06-02T06:59:17.292Z</time>
      </trkpt>
      <trkpt lat="45.935617" lon="6.117352">
        <ele>460.449328</ele>
        <time>2017-06-02T06:59:20.391Z</time>
      </trkpt>
      <trkpt lat="45.935045" lon="6.117422">
        <ele>460.450117</ele>
        <time>2017-06-02T06:59:32.703Z</time>
      </trkpt>
      <trkpt lat="45.934885" lon="6.117433">
        <ele>460.450338</ele>
        <time>2017-06-02T06:59:36.366Z</time>
      </trkpt>
      <trkpt lat="45.934707" lon="6.117447">
        <ele>460.237763</ele>
        <time>2017-06-02T06:59:39.984Z</time>
      </trkpt>
      <trkpt lat="45.934712" lon="6.117504">
        <ele>460.173115</ele>
        <time>2017-06-02T06:59:40.957Z</time>
      </trkpt>
      <trkpt lat="45.934716" lon="6.117554">
        <ele>460.116480</ele>
        <time>2017-06-02T06:59:41.711Z</time>
      </trkpt>
      <trkpt lat="45.934718" lon="6.117664">
        <ele>459.992658</ele>
        <time>2017-06-02T06:59:43.591Z</time>
      </trkpt>
      <trkpt lat="45.934720" lon="6.117760">
        <ele>459.884584</ele>
        <time>2017-06-02T06:59:44.949Z</time>
      </trkpt>
      <trkpt lat="45.934697" lon="6.117793">
        <ele>459.832012</ele>
        <time>2017-06-02T06:59:45.520Z</time>
      </trkpt>
      <trkpt lat="45.934480" lon="6.118046">
        <ele>459.379990</ele>
        <time>2017-06-02T06:59:51.395Z</time>
      </trkpt>
      <trkpt lat="45.934421" lon="6.118042">
        <ele>459.284423</ele>
        <time>2017-06-02T06:59:52.341Z</time>
      </trkpt>
      <trkpt lat="45.934373" lon="6.118025">
        <ele>459.204439</ele>
        <time>2017-06-02T06:59:53.067Z</time>
      </trkpt>
      <trkpt lat="45.934343" lon="6.118008">
        <ele>459.152266</ele>
        <time>2017-06-02T06:59:53.732Z</time>
      </trkpt>
      <trkpt lat="45.934207" lon="6.117891">
        <ele>458.895841</ele>
        <time>2017-06-02T06:59:56.954Z</time>
      </trkpt>
      <trkpt lat="45.934165" lon="6.117961">
        <ele>458.791809</ele>
        <time>2017-06-02T06:59:58.301Z</time>
      </trkpt>
      <trkpt lat="45.934070" lon="6.118490">
        <ele>458.177010</ele>
        <time>2017-06-02T07:00:05.035Z</time>
      </trkpt>
      <trkpt lat="45.933920" lon="6.118785">
        <ele>457.765793</ele>
        <time>2017-06-02T07:00:09.359Z</time>
      </trkpt>
      <trkpt lat="45.933867" lon="6.118860">
        <ele>457.645475</ele>
        <time>2017-06-02T07:00:10.643Z</time>
      </trkpt>
      <trkpt lat="45.933774" lon="6.118962">
        <ele>457.291549</ele>
        <time>2017-06-02T07:00:12.342Z</time>
      </trkpt>
      <trkpt lat="45.933575" lon="6.119100">
        <ele>456.233326</ele>
        <time>2017-06-02T07:00:16.228Z</time>
      </trkpt>
      <trkpt lat="45.933516" lon="6.119122">
        <ele>455.941383</ele>
        <time>2017-06-02T07:00:17.175Z</time>
      </trkpt>
      <trkpt lat="45.933448" lon="6.119134">
        <ele>455.613238</ele>
        <time>2017-06-02T07:00:18.129Z</time>
      </trkpt>
      <trkpt lat="45.933244" lon="6.119117">
        <ele>454.634494</ele>
        <time>2017-06-02T07:00:21.490Z</time>
      </trkpt>
      <trkpt lat="45.932564" lon="6.118872">
        <ele>451.276779</ele>
        <time>2017-06-02T07:00:32.087Z</time>
      </trkpt>
      <trkpt lat="45.932426" lon="6.118822">
        <ele>450.595133</ele>
        <time>2017-06-02T07:00:34.127Z</time>
      </trkpt>
      <trkpt lat="45.932250" lon="6.118768">
        <ele>449.733161</ele>
        <time>2017-06-02T07:00:36.751Z</time>
      </trkpt>
      <trkpt lat="45.932097" lon="6.118728">
        <ele>448.988317</ele>
        <time>2017-06-02T07:00:39.051Z</time>
      </trkpt>
      <trkpt lat="45.931921" lon="6.118701">
        <ele>448.142069</ele>
        <time>2017-06-02T07:00:41.582Z</time>
      </trkpt>
      <trkpt lat="45.931601" lon="6.118694">
        <ele>446.612166</ele>
        <time>2017-06-02T07:00:46.290Z</time>
      </trkpt>
      <trkpt lat="45.931340" lon="6.118735">
        <ele>445.357059</ele>
        <time>2017-06-02T07:00:50.153Z</time>
      </trkpt>
      <trkpt lat="45.931057" lon="6.118819">
        <ele>443.975680</ele>
        <time>2017-06-02T07:00:54.393Z</time>
      </trkpt>
      <trkpt lat="45.930769" lon="6.118948">
        <ele>442.533662</ele>
        <time>2017-06-02T07:00:58.917Z</time>
      </trkpt>
      <trkpt lat="45.930415" lon="6.119218">
        <ele>440.618030</ele>
        <time>2017-06-02T07:01:05.386Z</time>
      </trkpt>
      <trkpt lat="45.930191" lon="6.119434">
        <ele>441.055785</ele>
        <time>2017-06-02T07:01:10.060Z</time>
      </trkpt>
      <trkpt lat="45.930168" lon="6.119457">
        <ele>441.153555</ele>
        <time>2017-06-02T07:01:10.585Z</time>
      </trkpt>
      <trkpt lat="45.930055" lon="6.119577">
        <ele>441.643805</ele>
        <time>2017-06-02T07:01:13.514Z</time>
      </trkpt>
      <trkpt lat="45.929970" lon="6.119673">
        <ele>442.021014</ele>
        <time>2017-06-02T07:01:16.017Z</time>
      </trkpt>
      <trkpt lat="45.929804" lon="6.119957">
        <ele>442.921449</ele>
        <time>2017-06-02T07:01:23.721Z</time>
      </trkpt>
      <trkpt lat="45.929198" lon="6.121049">
        <ele>446.312319</ele>
        <time>2017-06-02T07:02:08.905Z</time>
      </trkpt>
      <trkpt lat="45.929176" lon="6.121088">
        <ele>446.434203</ele>
        <time>2017-06-02T07:02:10.926Z</time>
      </trkpt>
      <trkpt lat="45.929094" lon="6.121191">
        <ele>447.073504</ele>
        <time>2017-06-02T07:02:17.718Z</time>
      </trkpt>
      <trkpt lat="45.929036" lon="6.121262">
        <ele>447.667041</ele>
        <time>2017-06-02T07:02:22.338Z</time>
      </trkpt>
      <trkpt lat="45.928927" lon="6.121393">
        <ele>448.773987</ele>
        <time>2017-06-02T07:02:30.350Z</time>
      </trkpt>
      <trkpt lat="45.928792" lon="6.121586">
        <ele>450.257388</ele>
        <time>2017-06-02T07:02:42.573Z</time>
      </trkpt>
      <trkpt lat="45.928756" lon="6.121658">
        <ele>450.737950</ele>
        <time>2017-06-02T07:02:46.198Z</time>
      </trkpt>
      <trkpt lat="45.928730" lon="6.121712">
        <ele>451.093880</ele>
        <time>2017-06-02T07:02:49.333Z</time>
      </trkpt>
      <trkpt lat="45.928673" lon="6.121799">
        <ele>451.741612</ele>
        <time>2017-06-02T07:02:53.522Z</time>
      </trkpt>
      <trkpt lat="45.928622" lon="6.121883">
        <ele>452.345888</ele>
        <time>2017-06-02T07:02:58.556Z</time>
      </trkpt>
      <trkpt lat="45.928284" lon="6.122094">
        <ele>455.217020</ele>
        <time>2017-06-02T07:03:20.184Z</time>
      </trkpt>
      <trkpt lat="45.928101" lon="6.122299">
        <ele>457.024633</ele>
        <time>2017-06-02T07:03:33.469Z</time>
      </trkpt>
      <trkpt lat="45.927939" lon="6.122582">
        <ele>459.010995</ele>
        <time>2017-06-02T07:03:48.112Z</time>
      </trkpt>
      <trkpt lat="45.927798" lon="6.122971">
        <ele>460.916097</ele>
        <time>2017-06-02T07:04:03.993Z</time>
      </trkpt>
      <trkpt lat="45.927585" lon="6.123277">
        <ele>461.823559</ele>
        <time>2017-06-02T07:04:16.760Z</time>
      </trkpt>
      <trkpt lat="45.927549" lon="6.123392">
        <ele>462.087911</ele>
        <time>2017-06-02T07:04:20.195Z</time>
      </trkpt>
      <trkpt lat="45.927478" lon="6.123383">
        <ele>462.302711</ele>
        <time>2017-06-02T07:04:22.420Z</time>
      </trkpt>
      <trkpt lat="45.927434" lon="6.123412">
        <ele>462.448582</ele>
        <time>2017-06-02T07:04:24.015Z</time>
      </trkpt>
      <trkpt lat="45.927148" lon="6.123748">
        <ele>463.561667</ele>
        <time>2017-06-02T07:04:34.825Z</time>
      </trkpt>
      <trkpt lat="45.927098" lon="6.123755">
        <ele>463.713063</ele>
        <time>2017-06-02T07:04:36.187Z</time>
      </trkpt>
      <trkpt lat="45.927098" lon="6.123828">
        <ele>463.866087</ele>
        <time>2017-06-02T07:04:37.473Z</time>
      </trkpt>
      <trkpt lat="45.927099" lon="6.123874">
        <ele>463.962560</ele>
        <time>2017-06-02T07:04:38.349Z</time>
      </trkpt>
      <trkpt lat="45.927065" lon="6.123875">
        <ele>464.065046</ele>
        <time>2017-06-02T07:04:39.228Z</time>
      </trkpt>
      <trkpt lat="45.927066" lon="6.123945">
        <ele>464.211812</ele>
        <time>2017-06-02T07:04:40.843Z</time>
      </trkpt>
      <trkpt lat="45.927068" lon="6.124098">
        <ele>464.532590</ele>
        <time>2017-06-02T07:04:43.855Z</time>
      </trkpt>
      <trkpt lat="45.926717" lon="6.124003">
        <ele>465.608966</ele>
        <time>2017-06-02T07:04:53.855Z</time>
      </trkpt>
      <trkpt lat="45.926610" lon="6.124011">
        <ele>465.931863</ele>
        <time>2017-06-02T07:04:56.781Z</time>
      </trkpt>
      <trkpt lat="45.926517" lon="6.124057">
        <ele>466.099760</ele>
        <time>2017-06-02T07:04:59.626Z</time>
      </trkpt>
      <trkpt lat="45.926490" lon="6.124067">
        <ele>466.126810</ele>
        <time>2017-06-02T07:05:00.687Z</time>
      </trkpt>
      <trkpt lat="45.926172" lon="6.124066">
        <ele>466.435320</ele>
        <time>2017-06-02T07:05:09.828Z</time>
      </trkpt>
      <trkpt lat="45.926165" lon="6.124054">
        <ele>466.445889</ele>
        <time>2017-06-02T07:05:10.051Z</time>
      </trkpt>
      <trkpt lat="45.926147" lon="6.124024">
        <ele>466.472625</ele>
        <time>2017-06-02T07:05:10.863Z</time>
      </trkpt>
      <trkpt lat="45.926132" lon="6.124010">
        <ele>466.489975</ele>
        <time>2017-06-02T07:05:11.375Z</time>
      </trkpt>
      <trkpt lat="45.926118" lon="6.124007">
        <ele>466.503707</ele>
        <time>2017-06-02T07:05:11.706Z</time>
      </trkpt>
      <trkpt lat="45.926026" lon="6.124008">
        <ele>466.592964</ele>
        <time>2017-06-02T07:05:14.597Z</time>
      </trkpt>
      <trkpt lat="45.925881" lon="6.124010">
        <ele>466.733643</ele>
        <time>2017-06-02T07:05:18.128Z</time>
      </trkpt>
      <trkpt lat="45.925862" lon="6.124010">
        <ele>466.752076</ele>
        <time>2017-06-02T07:05:18.571Z</time>
      </trkpt>
      <trkpt lat="45.925862" lon="6.124032">
        <ele>466.766923</ele>
        <time>2017-06-02T07:05:19.063Z</time>
      </trkpt>
      <trkpt lat="45.925862" lon="6.124049">
        <ele>466.778395</ele>
        <time>2017-06-02T07:05:19.411Z</time>
      </trkpt>
      <trkpt lat="45.925862" lon="6.124158">
        <ele>466.851951</ele>
        <time>2017-06-02T07:05:21.399Z</time>
      </trkpt>
      <trkpt lat="45.925862" lon="6.124215">
        <ele>466.890416</ele>
        <time>2017-06-02T07:05:22.566Z</time>
      </trkpt>
      <trkpt lat="45.925862" lon="6.124253">
        <ele>466.916060</ele>
        <time>2017-06-02T07:05:23.430Z</time>
      </trkpt>
      <trkpt lat="45.925864" lon="6.124975">
        <ele>467.403291</ele>
        <time>2017-06-02T07:05:35.437Z</time>
      </trkpt>
      <trkpt lat="45.925865" lon="6.125056">
        <ele>467.457961</ele>
        <time>2017-06-02T07:05:36.607Z</time>
      </trkpt>
      <trkpt lat="45.925871" lon="6.125140">
        <ele>467.514945</ele>
        <time>2017-06-02T07:05:38.138Z</time>
      </trkpt>
      <trkpt lat="45.925871" lon="6.125159">
        <ele>467.527766</ele>
        <time>2017-06-02T07:05:38.589Z</time>
      </trkpt>
      <trkpt lat="45.925874" lon="6.125199">
        <ele>467.554916</ele>
        <time>2017-06-02T07:05:39.426Z</time>
      </trkpt>
      <trkpt lat="45.925887" lon="6.125262">
        <ele>467.599261</ele>
        <time>2017-06-02T07:05:41.033Z</time>
      </trkpt>
      <trkpt lat="45.925886" lon="6.125433">
        <ele>467.714661</ele>
        <time>2017-06-02T07:05:43.858Z</time>
      </trkpt>
      <trkpt lat="45.925788" lon="6.125700">
        <ele>467.751332</ele>
        <time>2017-06-02T07:05:48.950Z</time>
      </trkpt>
      <trkpt lat="45.925748" lon="6.125768">
        <ele>467.736878</ele>
        <time>2017-06-02T07:05:50.786Z</time>
      </trkpt>
      <trkpt lat="45.925669" lon="6.125733">
        <ele>467.717589</ele>
        <time>2017-06-02T07:05:52.534Z</time>
      </trkpt>
      <trkpt lat="45.925576" lon="6.125689">
        <ele>467.694744</ele>
        <time>2017-06-02T07:05:54.621Z</time>
      </trkpt>
      <trkpt lat="45.925243" lon="6.125506">
        <ele>467.611558</ele>
        <time>2017-06-02T07:06:03.278Z</time>
      </trkpt>
      <trkpt lat="45.925207" lon="6.125486">
        <ele>467.602553</ele>
        <time>2017-06-02T07:06:04.263Z</time>
      </trkpt>
      <trkpt lat="45.925079" lon="6.125451">
        <ele>467.572150</ele>
        <time>2017-06-02T07:06:07.594Z</time>
      </trkpt>
      <trkpt lat="45.924928" lon="6.125456">
        <ele>467.536907</ele>
        <time>2017-06-02T07:06:10.619Z</time>
      </trkpt>
      <trkpt lat="45.924748" lon="6.125463">
        <ele>467.494891</ele>
        <time>2017-06-02T07:06:14.560Z</time>
      </trkpt>
      <trkpt lat="45.924561" lon="6.125422">
        <ele>467.450752</ele>
        <time>2017-06-02T07:06:18.279Z</time>
      </trkpt>
      <trkpt lat="45.924435" lon="6.125422">
        <ele>467.421351</ele>
        <time>2017-06-02T07:06:20.618Z</time>
      </trkpt>
      <trkpt lat="45.924296" lon="6.125424">
        <ele>467.388916</ele>
        <time>2017-06-02T07:06:23.311Z</time>
      </trkpt>
      <trkpt lat="45.923340" lon="6.125463">
        <ele>466.100751</ele>
        <time>2017-06-02T07:06:41.534Z</time>
      </trkpt>
      <trkpt lat="45.922734" lon="6.125481">
        <ele>465.199633</ele>
        <time>2017-06-02T07:06:53.215Z</time>
      </trkpt>
      <trkpt lat="45.922525" lon="6.125500">
        <ele>464.888297</ele>
        <time>2017-06-02T07:06:57.209Z</time>
      </trkpt>
      <trkpt lat="45.921136" lon="6.125546">
        <ele>462.839449</ele>
        <time>2017-06-02T07:07:23.896Z</time>
      </trkpt>
      <trkpt lat="45.920835" lon="6.125556">
        <ele>462.395842</ele>
        <time>2017-06-02T07:07:29.773Z</time>
      </trkpt>
      <trkpt lat="45.920345" lon="6.125551">
        <ele>461.681959</ele>
        <time>2017-06-02T07:07:39.141Z</time>
      </trkpt>
      <trkpt lat="45.919285" lon="6.125606">
        <ele>460.153709</ele>
        <time>2017-06-02T07:07:59.584Z</time>
      </trkpt>
      <trkpt lat="45.919214" lon="6.125629">
        <ele>460.048846</ele>
        <time>2017-06-02T07:08:00.896Z</time>
      </trkpt>
      <trkpt lat="45.919075" lon="6.125634">
        <ele>459.848511</ele>
        <time>2017-06-02T07:08:03.501Z</time>
      </trkpt>
      <trkpt lat="45.918086" lon="6.125667">
        <ele>458.724767</ele>
        <time>2017-06-02T07:08:22.089Z</time>
      </trkpt>
      <trkpt lat="45.917332" lon="6.125692">
        <ele>457.957766</ele>
        <time>2017-06-02T07:08:36.757Z</time>
      </trkpt>
      <trkpt lat="45.917136" lon="6.125677">
        <ele>457.758158</ele>
        <time>2017-06-02T07:08:40.716Z</time>
      </trkpt>
      <trkpt lat="45.917064" lon="6.125680">
        <ele>457.684905</ele>
        <time>2017-06-02T07:08:42.141Z</time>
      </trkpt>
      <trkpt lat="45.916827" lon="6.125688">
        <ele>457.500201</ele>
        <time>2017-06-02T07:08:46.983Z</time>
      </trkpt>
      <trkpt lat="45.916780" lon="6.125689">
        <ele>457.467761</ele>
        <time>2017-06-02T07:08:47.925Z</time>
      </trkpt>
      <trkpt lat="45.916704" lon="6.125691">
        <ele>457.415301</ele>
        <time>2017-06-02T07:08:49.432Z</time>
      </trkpt>
      <trkpt lat="45.916238" lon="6.125704">
        <ele>457.093633</ele>
        <time>2017-06-02T07:08:58.829Z</time>
      </trkpt>
      <trkpt lat="45.916134" lon="6.125705">
        <ele>457.021856</ele>
        <time>2017-06-02T07:09:00.931Z</time>
      </trkpt>
      <trkpt lat="45.915951" lon="6.125707">
        <ele>456.895556</ele>
        <time>2017-06-02T07:09:04.547Z</time>
      </trkpt>
      <trkpt lat="45.915740" lon="6.125714">
        <ele>456.749897</ele>
        <time>2017-06-02T07:09:08.824Z</time>
      </trkpt>
      <trkpt lat="45.915377" lon="6.125726">
        <ele>456.499308</ele>
        <time>2017-06-02T07:09:16.090Z</time>
      </trkpt>
      <trkpt lat="45.915301" lon="6.125728">
        <ele>456.446848</ele>
        <time>2017-06-02T07:09:17.549Z</time>
      </trkpt>
      <trkpt lat="45.915152" lon="6.125733">
        <ele>456.339876</ele>
        <time>2017-06-02T07:09:20.610Z</time>
      </trkpt>
      <trkpt lat="45.915092" lon="6.125749">
        <ele>456.292660</ele>
        <time>2017-06-02T07:09:21.801Z</time>
      </trkpt>
      <trkpt lat="45.914982" lon="6.125799">
        <ele>456.203395</ele>
        <time>2017-06-02T07:09:24.063Z</time>
      </trkpt>
      <trkpt lat="45.914974" lon="6.125799">
        <ele>456.197205</ele>
        <time>2017-06-02T07:09:24.205Z</time>
      </trkpt>
      <trkpt lat="45.914750" lon="6.125802">
        <ele>456.023881</ele>
        <time>2017-06-02T07:09:28.686Z</time>
      </trkpt>
      <trkpt lat="45.914687" lon="6.125782">
        <ele>455.973961</ele>
        <time>2017-06-02T07:09:29.935Z</time>
      </trkpt>
      <trkpt lat="45.914108" lon="6.125797">
        <ele>455.525896</ele>
        <time>2017-06-02T07:09:41.288Z</time>
      </trkpt>
      <trkpt lat="45.913504" lon="6.125818">
        <ele>455.058424</ele>
        <time>2017-06-02T07:09:53.222Z</time>
      </trkpt>
      <trkpt lat="45.912840" lon="6.125839">
        <ele>454.671814</ele>
        <time>2017-06-02T07:10:06.564Z</time>
      </trkpt>
      <trkpt lat="45.912481" lon="6.125848">
        <ele>454.474045</ele>
        <time>2017-06-02T07:10:13.870Z</time>
      </trkpt>
      <trkpt lat="45.912131" lon="6.125861">
        <ele>454.281200</ele>
        <time>2017-06-02T07:10:21.078Z</time>
      </trkpt>
      <trkpt lat="45.912083" lon="6.125861">
        <ele>454.254762</ele>
        <time>2017-06-02T07:10:22.114Z</time>
      </trkpt>
      <trkpt lat="45.911636" lon="6.125878">
        <ele>454.008467</ele>
        <time>2017-06-02T07:10:31.480Z</time>
      </trkpt>
      <trkpt lat="45.911497" lon="6.125883">
        <ele>453.952012</ele>
        <time>2017-06-02T07:10:34.403Z</time>
      </trkpt>
      <trkpt lat="45.911475" lon="6.125884">
        <ele>453.943720</ele>
        <time>2017-06-02T07:10:34.805Z</time>
      </trkpt>
      <trkpt lat="45.909212" lon="6.125959">
        <ele>453.032506</ele>
        <time>2017-06-02T07:11:22.320Z</time>
      </trkpt>
      <trkpt lat="45.909074" lon="6.125965">
        <ele>452.967096</ele>
        <time>2017-06-02T07:11:25.248Z</time>
      </trkpt>
      <trkpt lat="45.908102" lon="6.126001">
        <ele>452.506443</ele>
        <time>2017-06-02T07:11:45.229Z</time>
      </trkpt>
      <trkpt lat="45.907989" lon="6.126004">
        <ele>452.440077</ele>
        <time>2017-06-02T07:11:47.432Z</time>
      </trkpt>
      <trkpt lat="45.907923" lon="6.126006">
        <ele>452.377874</ele>
        <time>2017-06-02T07:11:48.727Z</time>
      </trkpt>
      <trkpt lat="45.907093" lon="6.126035">
        <ele>451.595570</ele>
        <time>2017-06-02T07:12:05.076Z</time>
      </trkpt>
      <trkpt lat="45.907025" lon="6.126020">
        <ele>451.530746</ele>
        <time>2017-06-02T07:12:06.350Z</time>
      </trkpt>
      <trkpt lat="45.906882" lon="6.126019">
        <ele>451.396002</ele>
        <time>2017-06-02T07:12:09.096Z</time>
      </trkpt>
      <trkpt lat="45.906697" lon="6.126026">
        <ele>451.221624</ele>
        <time>2017-06-02T07:12:12.615Z</time>
      </trkpt>
      <trkpt lat="45.906653" lon="6.126027">
        <ele>451.180159</ele>
        <time>2017-06-02T07:12:13.455Z</time>
      </trkpt>
      <trkpt lat="45.906566" lon="6.126043">
        <ele>451.097514</ele>
        <time>2017-06-02T07:12:15.110Z</time>
      </trkpt>
      <trkpt lat="45.906041" lon="6.125988">
        <ele>450.597768</ele>
        <time>2017-06-02T07:12:25.209Z</time>
      </trkpt>
      <trkpt lat="45.905986" lon="6.125972">
        <ele>450.543723</ele>
        <time>2017-06-02T07:12:26.204Z</time>
      </trkpt>
      <trkpt lat="45.905908" lon="6.125930">
        <ele>450.463502</ele>
        <time>2017-06-02T07:12:27.804Z</time>
      </trkpt>
      <trkpt lat="45.905870" lon="6.125898">
        <ele>450.421084</ele>
        <time>2017-06-02T07:12:28.624Z</time>
      </trkpt>
      <trkpt lat="45.905870" lon="6.125845">
        <ele>450.385566</ele>
        <time>2017-06-02T07:12:29.389Z</time>
      </trkpt>
      <trkpt lat="45.905843" lon="6.125745">
        <ele>450.313682</ele>
        <time>2017-06-02T07:12:30.886Z</time>
      </trkpt>
      <trkpt lat="45.905818" lon="6.125705">
        <ele>450.277650</ele>
        <time>2017-06-02T07:12:31.630Z</time>
      </trkpt>
      <trkpt lat="45.905789" lon="6.125677">
        <ele>450.244002</ele>
        <time>2017-06-02T07:12:32.281Z</time>
      </trkpt>
      <trkpt lat="45.905758" lon="6.125660">
        <ele>450.212047</ele>
        <time>2017-06-02T07:12:32.892Z</time>
      </trkpt>
      <trkpt lat="45.905713" lon="6.125653">
        <ele>450.168454</ele>
        <time>2017-06-02T07:12:33.710Z</time>
      </trkpt>
      <trkpt lat="45.905669" lon="6.125665">
        <ele>450.125322</ele>
        <time>2017-06-02T07:12:34.584Z</time>
      </trkpt>
      <trkpt lat="45.905630" lon="6.125695">
        <ele>450.082719</ele>
        <time>2017-06-02T07:12:35.385Z</time>
      </trkpt>
      <trkpt lat="45.905592" lon="6.125752">
        <ele>450.029818</ele>
        <time>2017-06-02T07:12:36.476Z</time>
      </trkpt>
      <trkpt lat="45.905571" lon="6.125825">
        <ele>449.976880</ele>
        <time>2017-06-02T07:12:37.567Z</time>
      </trkpt>
      <trkpt lat="45.905570" lon="6.125902">
        <ele>449.925269</ele>
        <time>2017-06-02T07:12:38.620Z</time>
      </trkpt>
      <trkpt lat="45.905525" lon="6.125939">
        <ele>449.875338</ele>
        <time>2017-06-02T07:12:39.572Z</time>
      </trkpt>
      <trkpt lat="45.905493" lon="6.125992">
        <ele>449.828313</ele>
        <time>2017-06-02T07:12:40.482Z</time>
      </trkpt>
      <trkpt lat="45.905450" lon="6.125957">
        <ele>449.780718</ele>
        <time>2017-06-02T07:12:41.455Z</time>
      </trkpt>
      <trkpt lat="45.905404" lon="6.125919">
        <ele>449.729618</ele>
        <time>2017-06-02T07:12:42.406Z</time>
      </trkpt>
      <trkpt lat="45.905303" lon="6.125832">
        <ele>449.616211</ele>
        <time>2017-06-02T07:12:44.820Z</time>
      </trkpt>
      <trkpt lat="45.905300" lon="6.125829">
        <ele>449.612691</ele>
        <time>2017-06-02T07:12:44.889Z</time>
      </trkpt>
      <trkpt lat="45.905260" lon="6.125795">
        <ele>449.567933</ele>
        <time>2017-06-02T07:12:45.792Z</time>
      </trkpt>
      <trkpt lat="45.904485" lon="6.125242">
        <ele>448.825926</ele>
        <time>2017-06-02T07:13:03.028Z</time>
      </trkpt>
      <trkpt lat="45.904445" lon="6.125260">
        <ele>448.797676</ele>
        <time>2017-06-02T07:13:03.825Z</time>
      </trkpt>
      <trkpt lat="45.903975" lon="6.125579">
        <ele>448.447362</ele>
        <time>2017-06-02T07:13:14.269Z</time>
      </trkpt>
      <trkpt lat="45.903896" lon="6.125632">
        <ele>448.388602</ele>
        <time>2017-06-02T07:13:16.037Z</time>
      </trkpt>
      <trkpt lat="45.903882" lon="6.125577">
        <ele>448.361136</ele>
        <time>2017-06-02T07:13:16.930Z</time>
      </trkpt>
      <trkpt lat="45.903860" lon="6.125484">
        <ele>448.315069</ele>
        <time>2017-06-02T07:13:18.296Z</time>
      </trkpt>
      <trkpt lat="45.903852" lon="6.125454">
        <ele>448.300002</ele>
        <time>2017-06-02T07:13:18.742Z</time>
      </trkpt>
      <trkpt lat="45.903733" lon="6.124865">
        <ele>448.012361</ele>
        <time>2017-06-02T07:13:27.292Z</time>
      </trkpt>
      <trkpt lat="45.903762" lon="6.124820">
        <ele>447.983596</ele>
        <time>2017-06-02T07:13:28.135Z</time>
      </trkpt>
      <trkpt lat="45.903815" lon="6.124736">
        <ele>447.930419</ele>
        <time>2017-06-02T07:13:29.705Z</time>
      </trkpt>
      <trkpt lat="45.903779" lon="6.124708">
        <ele>447.902830</ele>
        <time>2017-06-02T07:13:30.535Z</time>
      </trkpt>
      <trkpt lat="45.903772" lon="6.124694">
        <ele>447.894745</ele>
        <time>2017-06-02T07:13:30.781Z</time>
      </trkpt>
      <trkpt lat="45.903745" lon="6.124646">
        <ele>447.865799</ele>
        <time>2017-06-02T07:13:31.659Z</time>
      </trkpt>
      <trkpt lat="45.903723" lon="6.124585">
        <ele>447.833577</ele>
        <time>2017-06-02T07:13:32.595Z</time>
      </trkpt>
      <trkpt lat="45.903708" lon="6.124520">
        <ele>447.804852</ele>
        <time>2017-06-02T07:13:33.543Z</time>
      </trkpt>
      <trkpt lat="45.903662" lon="6.124317">
        <ele>447.718237</ele>
        <time>2017-06-02T07:13:36.468Z</time>
      </trkpt>
      <trkpt lat="45.903529" lon="6.124162">
        <ele>447.618401</ele>
        <time>2017-06-02T07:13:39.985Z</time>
      </trkpt>
      <trkpt lat="45.903365" lon="6.124041">
        <ele>447.510919</ele>
        <time>2017-06-02T07:13:43.677Z</time>
      </trkpt>
      <trkpt lat="45.903327" lon="6.124012">
        <ele>447.485834</ele>
        <time>2017-06-02T07:13:44.573Z</time>
      </trkpt>
      <trkpt lat="45.903276" lon="6.123971">
        <ele>447.451763</ele>
        <time>2017-06-02T07:13:45.793Z</time>
      </trkpt>
      <trkpt lat="45.903218" lon="6.123918">
        <ele>447.411690</ele>
        <time>2017-06-02T07:13:47.221Z</time>
      </trkpt>
      <trkpt lat="45.903147" lon="6.123858">
        <ele>447.363669</ele>
        <time>2017-06-02T07:13:48.904Z</time>
      </trkpt>
      <trkpt lat="45.903073" lon="6.123787">
        <ele>447.311792</ele>
        <time>2017-06-02T07:13:50.687Z</time>
      </trkpt>
      <trkpt lat="45.902977" lon="6.123691">
        <ele>447.243604</ele>
        <time>2017-06-02T07:13:53.130Z</time>
      </trkpt>
      <trkpt lat="45.902853" lon="6.123535">
        <ele>447.147519</ele>
        <time>2017-06-02T07:13:56.540Z</time>
      </trkpt>
      <trkpt lat="45.902831" lon="6.123507">
        <ele>447.130385</ele>
        <time>2017-06-02T07:13:57.125Z</time>
      </trkpt>
      <trkpt lat="45.902710" lon="6.123343">
        <ele>447.033411</ele>
        <time>2017-06-02T07:14:00.557Z</time>
      </trkpt>
      <trkpt lat="45.902119" lon="6.122526">
        <ele>446.504429</ele>
        <time>2017-06-02T07:14:17.301Z</time>
      </trkpt>
      <trkpt lat="45.902055" lon="6.122440">
        <ele>446.441674</ele>
        <time>2017-06-02T07:14:19.068Z</time>
      </trkpt>
      <trkpt lat="45.901729" lon="6.122003">
        <ele>446.122375</ele>
        <time>2017-06-02T07:14:28.066Z</time>
      </trkpt>
      <trkpt lat="45.901692" lon="6.121956">
        <ele>446.087007</ele>
        <time>2017-06-02T07:14:29.054Z</time>
      </trkpt>
      <trkpt lat="45.901606" lon="6.121840">
        <ele>446.002530</ele>
        <time>2017-06-02T07:14:31.384Z</time>
      </trkpt>
      <trkpt lat="45.901567" lon="6.121794">
        <ele>445.966394</ele>
        <time>2017-06-02T07:14:32.390Z</time>
      </trkpt>
      <trkpt lat="45.901504" lon="6.121721">
        <ele>445.908431</ele>
        <time>2017-06-02T07:14:33.979Z</time>
      </trkpt>
      <trkpt lat="45.901483" lon="6.121606">
        <ele>445.849174</ele>
        <time>2017-06-02T07:14:36.195Z</time>
      </trkpt>
      <trkpt lat="45.901441" lon="6.121409">
        <ele>445.746484</ele>
        <time>2017-06-02T07:14:39.968Z</time>
      </trkpt>
      <trkpt lat="45.901408" lon="6.121241">
        <ele>445.659481</ele>
        <time>2017-06-02T07:14:43.189Z</time>
      </trkpt>
      <trkpt lat="45.901382" lon="6.121137">
        <ele>445.604404</ele>
        <time>2017-06-02T07:14:45.215Z</time>
      </trkpt>
      <trkpt lat="45.901347" lon="6.121101">
        <ele>445.573577</ele>
        <time>2017-06-02T07:14:46.360Z</time>
      </trkpt>
      <trkpt lat="45.901308" lon="6.121096">
        <ele>445.545534</ele>
        <time>2017-06-02T07:14:47.372Z</time>
      </trkpt>
      <trkpt lat="45.901159" lon="6.121164">
        <ele>445.414935</ele>
        <time>2017-06-02T07:14:51.505Z</time>
      </trkpt>
      <trkpt lat="45.901067" lon="6.121205">
        <ele>445.323071</ele>
        <time>2017-06-02T07:14:54.044Z</time>
      </trkpt>
      <trkpt lat="45.901010" lon="6.121234">
        <ele>445.265403</ele>
        <time>2017-06-02T07:14:55.626Z</time>
      </trkpt>
      <trkpt lat="45.900972" lon="6.121125">
        <ele>445.184491</ele>
        <time>2017-06-02T07:14:57.804Z</time>
      </trkpt>
      <trkpt lat="45.900857" lon="6.120987">
        <ele>445.041602</ele>
        <time>2017-06-02T07:15:01.745Z</time>
      </trkpt>
      <trkpt lat="45.900674" lon="6.120706">
        <ele>444.786178</ele>
        <time>2017-06-02T07:15:06.857Z</time>
      </trkpt>
      <trkpt lat="45.900597" lon="6.120589">
        <ele>444.679302</ele>
        <time>2017-06-02T07:15:09.009Z</time>
      </trkpt>
      <trkpt lat="45.900475" lon="6.120415">
        <ele>444.515369</ele>
        <time>2017-06-02T07:15:12.282Z</time>
      </trkpt>
      <trkpt lat="45.900414" lon="6.120329">
        <ele>444.433869</ele>
        <time>2017-06-02T07:15:13.950Z</time>
      </trkpt>
      <trkpt lat="45.900021" lon="6.119774">
        <ele>443.908357</ele>
        <time>2017-06-02T07:15:24.644Z</time>
      </trkpt>
      <trkpt lat="45.899689" lon="6.119306">
        <ele>443.696798</ele>
        <time>2017-06-02T07:15:33.793Z</time>
      </trkpt>
      <trkpt lat="45.899532" lon="6.119082">
        <ele>443.643921</ele>
        <time>2017-06-02T07:15:38.263Z</time>
      </trkpt>
      <trkpt lat="45.899316" lon="6.118783">
        <ele>443.572240</ele>
        <time>2017-06-02T07:15:44.378Z</time>
      </trkpt>
      <trkpt lat="45.899250" lon="6.118690">
        <ele>443.550148</ele>
        <time>2017-06-02T07:15:46.298Z</time>
      </trkpt>
      <trkpt lat="45.899134" lon="6.118523">
        <ele>443.510904</ele>
        <time>2017-06-02T07:15:49.735Z</time>
      </trkpt>
      <trkpt lat="45.899017" lon="6.118346">
        <ele>443.470301</ele>
        <time>2017-06-02T07:15:53.364Z</time>
      </trkpt>
      <trkpt lat="45.899000" lon="6.118309">
        <ele>443.462927</ele>
        <time>2017-06-02T07:15:54.021Z</time>
      </trkpt>
      <trkpt lat="45.898978" lon="6.118274">
        <ele>443.455083</ele>
        <time>2017-06-02T07:15:54.736Z</time>
      </trkpt>
      <trkpt lat="45.898913" lon="6.118207">
        <ele>443.435964</ele>
        <time>2017-06-02T07:15:56.543Z</time>
      </trkpt>
      <trkpt lat="45.898904" lon="6.118126">
        <ele>443.422322</ele>
        <time>2017-06-02T07:15:57.836Z</time>
      </trkpt>
      <trkpt lat="45.898882" lon="6.118073">
        <ele>443.412057</ele>
        <time>2017-06-02T07:15:58.811Z</time>
      </trkpt>
      <trkpt lat="45.898849" lon="6.118034">
        <ele>443.401846</ele>
        <time>2017-06-02T07:15:59.793Z</time>
      </trkpt>
      <trkpt lat="45.898810" lon="6.118011">
        <ele>443.391770</ele>
        <time>2017-06-02T07:16:00.794Z</time>
      </trkpt>
      <trkpt lat="45.898774" lon="6.118008">
        <ele>443.383152</ele>
        <time>2017-06-02T07:16:01.633Z</time>
      </trkpt>
      <trkpt lat="45.898734" lon="6.118020">
        <ele>443.373386</ele>
        <time>2017-06-02T07:16:02.589Z</time>
      </trkpt>
      <trkpt lat="45.898673" lon="6.118094">
        <ele>443.354306</ele>
        <time>2017-06-02T07:16:04.552Z</time>
      </trkpt>
      <trkpt lat="45.898656" lon="6.118148">
        <ele>443.344829</ele>
        <time>2017-06-02T07:16:05.554Z</time>
      </trkpt>
      <trkpt lat="45.898653" lon="6.118214">
        <ele>443.409461</ele>
        <time>2017-06-02T07:16:06.699Z</time>
      </trkpt>
      <trkpt lat="45.898594" lon="6.118375">
        <ele>443.587270</ele>
        <time>2017-06-02T07:16:09.903Z</time>
      </trkpt>
      <trkpt lat="45.898526" lon="6.118502">
        <ele>443.743856</ele>
        <time>2017-06-02T07:16:12.801Z</time>
      </trkpt>
      <trkpt lat="45.898441" lon="6.118710">
        <ele>443.979566</ele>
        <time>2017-06-02T07:16:17.305Z</time>
      </trkpt>
      <trkpt lat="45.898311" lon="6.118931">
        <ele>444.262340</ele>
        <time>2017-06-02T07:16:23.022Z</time>
      </trkpt>
      <trkpt lat="45.898119" lon="6.119128">
        <ele>444.593617</ele>
        <time>2017-06-02T07:16:29.671Z</time>
      </trkpt>
      <trkpt lat="45.898081" lon="6.119179">
        <ele>444.666630</ele>
        <time>2017-06-02T07:16:31.277Z</time>
      </trkpt>
      <trkpt lat="45.898059" lon="6.119207">
        <ele>444.707897</ele>
        <time>2017-06-02T07:16:32.203Z</time>
      </trkpt>
      <trkpt lat="45.897904" lon="6.119421">
        <ele>445.009728</ele>
        <time>2017-06-02T07:16:38.457Z</time>
      </trkpt>
      <trkpt lat="45.897880" lon="6.119462">
        <ele>445.062082</ele>
        <time>2017-06-02T07:16:39.641Z</time>
      </trkpt>
      <trkpt lat="45.897861" lon="6.119494">
        <ele>445.103188</ele>
        <time>2017-06-02T07:16:40.541Z</time>
      </trkpt>
      <trkpt lat="45.897759" lon="6.119666">
        <ele>445.324015</ele>
        <time>2017-06-02T07:16:45.133Z</time>
      </trkpt>
      <trkpt lat="45.897379" lon="6.120084">
        <ele>445.953553</ele>
        <time>2017-06-02T07:16:59.047Z</time>
      </trkpt>
      <trkpt lat="45.897228" lon="6.120197">
        <ele>446.112017</ele>
        <time>2017-06-02T07:17:04.196Z</time>
      </trkpt>
      <trkpt lat="45.897046" lon="6.120392">
        <ele>446.323325</ele>
        <time>2017-06-02T07:17:10.724Z</time>
      </trkpt>
      <trkpt lat="45.896878" lon="6.120575">
        <ele>446.519547</ele>
        <time>2017-06-02T07:17:16.902Z</time>
      </trkpt>
      <trkpt lat="45.896739" lon="6.120726">
        <ele>446.681737</ele>
        <time>2017-06-02T07:17:21.899Z</time>
      </trkpt>
      <trkpt lat="45.896629" lon="6.120629">
        <ele>446.801864</ele>
        <time>2017-06-02T07:17:25.506Z</time>
      </trkpt>
      <trkpt lat="45.895243" lon="6.119427">
        <ele>447.249854</ele>
        <time>2017-06-02T07:18:01.365Z</time>
      </trkpt>
      <trkpt lat="45.895177" lon="6.119348">
        <ele>447.219068</ele>
        <time>2017-06-02T07:18:03.019Z</time>
      </trkpt>
      <trkpt lat="45.895109" lon="6.119271">
        <ele>447.188040</ele>
        <time>2017-06-02T07:18:04.673Z</time>
      </trkpt>
      <trkpt lat="45.894865" lon="6.119080">
        <ele>447.088458</ele>
        <time>2017-06-02T07:18:10.236Z</time>
      </trkpt>
      <trkpt lat="45.894747" lon="6.118971">
        <ele>447.038183</ele>
        <time>2017-06-02T07:18:12.966Z</time>
      </trkpt>
      <trkpt lat="45.894659" lon="6.118889">
        <ele>447.000593</ele>
        <time>2017-06-02T07:18:15.134Z</time>
      </trkpt>
      <trkpt lat="45.893837" lon="6.118184">
        <ele>447.042302</ele>
        <time>2017-06-02T07:18:35.045Z</time>
      </trkpt>
      <trkpt lat="45.893738" lon="6.118095">
        <ele>447.066973</ele>
        <time>2017-06-02T07:18:37.655Z</time>
      </trkpt>
      <trkpt lat="45.893626" lon="6.117996">
        <ele>447.094753</ele>
        <time>2017-06-02T07:18:40.940Z</time>
      </trkpt>
      <trkpt lat="45.893555" lon="6.117933">
        <ele>447.112383</ele>
        <time>2017-06-02T07:18:42.851Z</time>
      </trkpt>
      <trkpt lat="45.893381" lon="6.117775">
        <ele>447.155867</ele>
        <time>2017-06-02T07:18:47.695Z</time>
      </trkpt>
      <trkpt lat="45.893340" lon="6.117738">
        <ele>447.166096</ele>
        <time>2017-06-02T07:18:48.954Z</time>
      </trkpt>
      <trkpt lat="45.893120" lon="6.117541">
        <ele>447.220860</ele>
        <time>2017-06-02T07:18:55.247Z</time>
      </trkpt>
      <trkpt lat="45.893108" lon="6.117530">
        <ele>447.223867</ele>
        <time>2017-06-02T07:18:55.649Z</time>
      </trkpt>
      <trkpt lat="45.893097" lon="6.117521">
        <ele>447.226542</ele>
        <time>2017-06-02T07:18:55.974Z</time>
      </trkpt>
      <trkpt lat="45.893060" lon="6.117487">
        <ele>447.235820</ele>
        <time>2017-06-02T07:18:57.129Z</time>
      </trkpt>
      <trkpt lat="45.893033" lon="6.117464">
        <ele>447.242451</ele>
        <time>2017-06-02T07:18:57.965Z</time>
      </trkpt>
      <trkpt lat="45.892884" lon="6.117335">
        <ele>447.279202</ele>
        <time>2017-06-02T07:19:02.359Z</time>
      </trkpt>
      <trkpt lat="45.892794" lon="6.117257">
        <ele>447.429991</ele>
        <time>2017-06-02T07:19:05.026Z</time>
      </trkpt>
      <trkpt lat="45.892627" lon="6.117105">
        <ele>447.717747</ele>
        <time>2017-06-02T07:19:10.317Z</time>
      </trkpt>
      <trkpt lat="45.891895" lon="6.116451">
        <ele>448.972458</ele>
        <time>2017-06-02T07:19:33.872Z</time>
      </trkpt>
      <trkpt lat="45.891478" lon="6.116073">
        <ele>449.690156</ele>
        <time>2017-06-02T07:19:48.708Z</time>
      </trkpt>
      <trkpt lat="45.890755" lon="6.115427">
        <ele>451.630160</ele>
        <time>2017-06-02T07:20:15.207Z</time>
      </trkpt>
      <trkpt lat="45.890435" lon="6.115141">
        <ele>452.551258</ele>
        <time>2017-06-02T07:20:27.441Z</time>
      </trkpt>
      <trkpt lat="45.890149" lon="6.114860">
        <ele>453.398098</ele>
        <time>2017-06-02T07:20:38.857Z</time>
      </trkpt>
      <trkpt lat="45.890109" lon="6.114771">
        <ele>453.578324</ele>
        <time>2017-06-02T07:20:41.339Z</time>
      </trkpt>
      <trkpt lat="45.890094" lon="6.114736">
        <ele>453.648248</ele>
        <time>2017-06-02T07:20:42.341Z</time>
      </trkpt>
      <trkpt lat="45.890068" lon="6.114665">
        <ele>453.784729</ele>
        <time>2017-06-02T07:20:44.197Z</time>
      </trkpt>
      <trkpt lat="45.890076" lon="6.114625">
        <ele>453.855530</ele>
        <time>2017-06-02T07:20:45.103Z</time>
      </trkpt>
      <trkpt lat="45.890078" lon="6.114584">
        <ele>453.925450</ele>
        <time>2017-06-02T07:20:46.021Z</time>
      </trkpt>
      <trkpt lat="45.890074" lon="6.114535">
        <ele>454.009380</ele>
        <time>2017-06-02T07:20:47.169Z</time>
      </trkpt>
      <trkpt lat="45.890045" lon="6.114447">
        <ele>454.175016</ele>
        <time>2017-06-02T07:20:49.260Z</time>
      </trkpt>
      <trkpt lat="45.890022" lon="6.114411">
        <ele>454.258147</ele>
        <time>2017-06-02T07:20:50.407Z</time>
      </trkpt>
      <trkpt lat="45.890004" lon="6.114392">
        <ele>454.315442</ele>
        <time>2017-06-02T07:20:51.130Z</time>
      </trkpt>
      <trkpt lat="45.889985" lon="6.114377">
        <ele>454.375981</ele>
        <time>2017-06-02T07:20:51.848Z</time>
      </trkpt>
      <trkpt lat="45.889939" lon="6.114357">
        <ele>454.510186</ele>
        <time>2017-06-02T07:20:53.516Z</time>
      </trkpt>
      <trkpt lat="45.889891" lon="6.114358">
        <ele>454.644237</ele>
        <time>2017-06-02T07:20:55.149Z</time>
      </trkpt>
      <trkpt lat="45.889872" lon="6.114365">
        <ele>454.699010</ele>
        <time>2017-06-02T07:20:55.800Z</time>
      </trkpt>
      <trkpt lat="45.889836" lon="6.114387">
        <ele>454.808254</ele>
        <time>2017-06-02T07:20:57.033Z</time>
      </trkpt>
      <trkpt lat="45.889759" lon="6.114379">
        <ele>455.023833</ele>
        <time>2017-06-02T07:20:59.540Z</time>
      </trkpt>
      <trkpt lat="45.889740" lon="6.114376">
        <ele>455.077209</ele>
        <time>2017-06-02T07:21:00.158Z</time>
      </trkpt>
      <trkpt lat="45.889623" lon="6.114341">
        <ele>455.410931</ele>
        <time>2017-06-02T07:21:04.044Z</time>
      </trkpt>
      <trkpt lat="45.889577" lon="6.114292">
        <ele>455.570839</ele>
        <time>2017-06-02T07:21:06.048Z</time>
      </trkpt>
      <trkpt lat="45.889305" lon="6.114004">
        <ele>456.514370</ele>
        <time>2017-06-02T07:21:17.076Z</time>
      </trkpt>
      <trkpt lat="45.889169" lon="6.113860">
        <ele>456.986136</ele>
        <time>2017-06-02T07:21:22.538Z</time>
      </trkpt>
      <trkpt lat="45.888398" lon="6.113059">
        <ele>459.967236</ele>
        <time>2017-06-02T07:21:53.618Z</time>
      </trkpt>
      <trkpt lat="45.888276" lon="6.112932">
        <ele>460.805433</ele>
        <time>2017-06-02T07:21:58.883Z</time>
      </trkpt>
      <trkpt lat="45.887439" lon="6.112084">
        <ele>466.503550</ele>
        <time>2017-06-02T07:22:42.748Z</time>
      </trkpt>
      <trkpt lat="45.887389" lon="6.111983">
        <ele>466.983513</ele>
        <time>2017-06-02T07:22:48.097Z</time>
      </trkpt>
      <trkpt lat="45.887361" lon="6.111910">
        <ele>467.306291</ele>
        <time>2017-06-02T07:22:51.243Z</time>
      </trkpt>
      <trkpt lat="45.887345" lon="6.111805">
        <ele>467.722543</ele>
        <time>2017-06-02T07:22:54.893Z</time>
      </trkpt>
      <trkpt lat="45.887353" lon="6.111757">
        <ele>467.913681</ele>
        <time>2017-06-02T07:22:56.557Z</time>
      </trkpt>
      <trkpt lat="45.887341" lon="6.111661">
        <ele>468.291397</ele>
        <time>2017-06-02T07:22:59.173Z</time>
      </trkpt>
      <trkpt lat="45.887321" lon="6.111621">
        <ele>468.482122</ele>
        <time>2017-06-02T07:23:00.956Z</time>
      </trkpt>
      <trkpt lat="45.887282" lon="6.111582">
        <ele>468.746488</ele>
        <time>2017-06-02T07:23:03.805Z</time>
      </trkpt>
      <trkpt lat="45.887235" lon="6.111567">
        <ele>469.014347</ele>
        <time>2017-06-02T07:23:07.209Z</time>
      </trkpt>
      <trkpt lat="45.887218" lon="6.111569">
        <ele>469.109243</ele>
        <time>2017-06-02T07:23:08.248Z</time>
      </trkpt>
      <trkpt lat="45.887194" lon="6.111504">
        <ele>469.439861</ele>
        <time>2017-06-02T07:23:11.076Z</time>
      </trkpt>
      <trkpt lat="45.887170" lon="6.111437">
        <ele>469.919191</ele>
        <time>2017-06-02T07:23:13.749Z</time>
      </trkpt>
      <trkpt lat="45.887167" lon="6.111429">
        <ele>469.976996</ele>
        <time>2017-06-02T07:23:14.201Z</time>
      </trkpt>
      <trkpt lat="45.887110" lon="6.111274">
        <ele>471.092138</ele>
        <time>2017-06-02T07:23:19.902Z</time>
      </trkpt>
      <trkpt lat="45.887088" lon="6.111235">
        <ele>471.411467</ele>
        <time>2017-06-02T07:23:21.821Z</time>
      </trkpt>
      <trkpt lat="45.887035" lon="6.111144">
        <ele>472.166252</ele>
        <time>2017-06-02T07:23:27.636Z</time>
      </trkpt>
      <trkpt lat="45.886578" lon="6.110468">
        <ele>478.160810</ele>
        <time>2017-06-02T07:24:04.944Z</time>
      </trkpt>
      <trkpt lat="45.886433" lon="6.110359">
        <ele>479.656384</ele>
        <time>2017-06-02T07:24:16.254Z</time>
      </trkpt>
      <trkpt lat="45.886026" lon="6.109981">
        <ele>484.085461</ele>
        <time>2017-06-02T07:24:46.462Z</time>
      </trkpt>
      <trkpt lat="45.885575" lon="6.109605">
        <ele>488.220178</ele>
        <time>2017-06-02T07:25:18.117Z</time>
      </trkpt>
      <trkpt lat="45.885331" lon="6.109383">
        <ele>490.320988</ele>
        <time>2017-06-02T07:25:34.265Z</time>
      </trkpt>
      <trkpt lat="45.885294" lon="6.109349">
        <ele>490.640467</ele>
        <time>2017-06-02T07:25:36.964Z</time>
      </trkpt>
      <trkpt lat="45.885177" lon="6.109246">
        <ele>491.638584</ele>
        <time>2017-06-02T07:25:44.613Z</time>
      </trkpt>
      <trkpt lat="45.885020" lon="6.109128">
        <ele>492.927420</ele>
        <time>2017-06-02T07:25:54.085Z</time>
      </trkpt>
      <trkpt lat="45.884735" lon="6.108933">
        <ele>495.223570</ele>
        <time>2017-06-02T07:26:09.472Z</time>
      </trkpt>
      <trkpt lat="45.884553" lon="6.108801">
        <ele>496.706550</ele>
        <time>2017-06-02T07:26:18.480Z</time>
      </trkpt>
      <trkpt lat="45.884421" lon="6.108744">
        <ele>497.709129</ele>
        <time>2017-06-02T07:26:24.800Z</time>
      </trkpt>
      <trkpt lat="45.884299" lon="6.108713">
        <ele>498.610307</ele>
        <time>2017-06-02T07:26:30.778Z</time>
      </trkpt>
      <trkpt lat="45.882991" lon="6.108421">
        <ele>502.147150</ele>
        <time>2017-06-02T07:27:16.852Z</time>
      </trkpt>
      <trkpt lat="45.882944" lon="6.108406">
        <ele>502.270294</ele>
        <time>2017-06-02T07:27:18.444Z</time>
      </trkpt>
      <trkpt lat="45.882899" lon="6.108391">
        <ele>502.388450</ele>
        <time>2017-06-02T07:27:19.623Z</time>
      </trkpt>
      <trkpt lat="45.882760" lon="6.108311">
        <ele>502.771445</ele>
        <time>2017-06-02T07:27:22.867Z</time>
      </trkpt>
      <trkpt lat="45.882681" lon="6.108210">
        <ele>503.041940</ele>
        <time>2017-06-02T07:27:25.123Z</time>
      </trkpt>
      <trkpt lat="45.882675" lon="6.108146">
        <ele>503.156921</ele>
        <time>2017-06-02T07:27:26.368Z</time>
      </trkpt>
      <trkpt lat="45.882654" lon="6.108089">
        <ele>503.271746</ele>
        <time>2017-06-02T07:27:27.523Z</time>
      </trkpt>
      <trkpt lat="45.882619" lon="6.108047">
        <ele>503.388392</ele>
        <time>2017-06-02T07:27:28.362Z</time>
      </trkpt>
      <trkpt lat="45.882577" lon="6.108025">
        <ele>503.439052</ele>
        <time>2017-06-02T07:27:29.322Z</time>
      </trkpt>
      <trkpt lat="45.882532" lon="6.108026">
        <ele>503.429527</ele>
        <time>2017-06-02T07:27:30.287Z</time>
      </trkpt>
      <trkpt lat="45.882481" lon="6.108059">
        <ele>503.417687</ele>
        <time>2017-06-02T07:27:31.417Z</time>
      </trkpt>
      <trkpt lat="45.882445" lon="6.108122">
        <ele>503.405678</ele>
        <time>2017-06-02T07:27:32.593Z</time>
      </trkpt>
      <trkpt lat="45.882395" lon="6.108171">
        <ele>503.392867</ele>
        <time>2017-06-02T07:27:34.103Z</time>
      </trkpt>
      <trkpt lat="45.882348" lon="6.108200">
        <ele>503.382040</ele>
        <time>2017-06-02T07:27:35.428Z</time>
      </trkpt>
      <trkpt lat="45.882326" lon="6.108213">
        <ele>503.377005</ele>
        <time>2017-06-02T07:27:35.836Z</time>
      </trkpt>
      <trkpt lat="45.882123" lon="6.108229">
        <ele>503.333974</ele>
        <time>2017-06-02T07:27:40.041Z</time>
      </trkpt>
      <trkpt lat="45.881878" lon="6.108176">
        <ele>503.281533</ele>
        <time>2017-06-02T07:27:45.397Z</time>
      </trkpt>
      <trkpt lat="45.881748" lon="6.108147">
        <ele>503.253687</ele>
        <time>2017-06-02T07:27:48.027Z</time>
      </trkpt>
      <trkpt lat="45.881667" lon="6.108117">
        <ele>503.235982</ele>
        <time>2017-06-02T07:27:50.117Z</time>
      </trkpt>
      <trkpt lat="45.881576" lon="6.108076">
        <ele>503.215796</ele>
        <time>2017-06-02T07:27:51.996Z</time>
      </trkpt>
      <trkpt lat="45.881482" lon="6.107999">
        <ele>503.192893</ele>
        <time>2017-06-02T07:27:54.158Z</time>
      </trkpt>
      <trkpt lat="45.881388" lon="6.107922">
        <ele>503.169989</ele>
        <time>2017-06-02T07:27:56.364Z</time>
      </trkpt>
      <trkpt lat="45.881314" lon="6.107877">
        <ele>503.152981</ele>
        <time>2017-06-02T07:27:58.028Z</time>
      </trkpt>
      <trkpt lat="45.881193" lon="6.107762">
        <ele>503.122272</ele>
        <time>2017-06-02T07:28:00.859Z</time>
      </trkpt>
      <trkpt lat="45.880362" lon="6.107010">
        <ele>503.449922</ele>
        <time>2017-06-02T07:28:21.609Z</time>
      </trkpt>
      <trkpt lat="45.879604" lon="6.106283">
        <ele>503.951161</ele>
        <time>2017-06-02T07:28:45.624Z</time>
      </trkpt>
      <trkpt lat="45.878992" lon="6.105700">
        <ele>504.944312</ele>
        <time>2017-06-02T07:29:06.327Z</time>
      </trkpt>
      <trkpt lat="45.878812" lon="6.105588">
        <ele>505.262253</ele>
        <time>2017-06-02T07:29:11.864Z</time>
      </trkpt>
      <trkpt lat="45.878570" lon="6.105497">
        <ele>505.667705</ele>
        <time>2017-06-02T07:29:19.289Z</time>
      </trkpt>
      <trkpt lat="45.878424" lon="6.105444">
        <ele>505.911782</ele>
        <time>2017-06-02T07:29:23.619Z</time>
      </trkpt>
      <trkpt lat="45.878321" lon="6.105400">
        <ele>506.085951</ele>
        <time>2017-06-02T07:29:26.884Z</time>
      </trkpt>
      <trkpt lat="45.877394" lon="6.105046">
        <ele>507.755032</ele>
        <time>2017-06-02T07:29:54.931Z</time>
      </trkpt>
      <trkpt lat="45.877012" lon="6.104903">
        <ele>508.503626</ele>
        <time>2017-06-02T07:30:06.594Z</time>
      </trkpt>
      <trkpt lat="45.876688" lon="6.104732">
        <ele>509.158200</ele>
        <time>2017-06-02T07:30:16.306Z</time>
      </trkpt>
      <trkpt lat="45.876376" lon="6.104450">
        <ele>509.857246</ele>
        <time>2017-06-02T07:30:27.004Z</time>
      </trkpt>
      <trkpt lat="45.876151" lon="6.104242">
        <ele>510.364652</ele>
        <time>2017-06-02T07:30:35.247Z</time>
      </trkpt>
      <trkpt lat="45.875917" lon="6.104024">
        <ele>511.304421</ele>
        <time>2017-06-02T07:30:44.331Z</time>
      </trkpt>
      <trkpt lat="45.875267" lon="6.103374">
        <ele>514.004291</ele>
        <time>2017-06-02T07:31:12.160Z</time>
      </trkpt>
      <trkpt lat="45.875223" lon="6.103294">
        <ele>514.246253</ele>
        <time>2017-06-02T07:31:14.849Z</time>
      </trkpt>
      <trkpt lat="45.875209" lon="6.103267">
        <ele>514.326152</ele>
        <time>2017-06-02T07:31:15.658Z</time>
      </trkpt>
      <trkpt lat="45.874964" lon="6.102783">
        <ele>515.746359</ele>
        <time>2017-06-02T07:31:31.714Z</time>
      </trkpt>
      <trkpt lat="45.874707" lon="6.102399">
        <ele>517.220581</ele>
        <time>2017-06-02T07:31:46.151Z</time>
      </trkpt>
      <trkpt lat="45.874612" lon="6.102286">
        <ele>517.817436</ele>
        <time>2017-06-02T07:31:51.460Z</time>
      </trkpt>
      <trkpt lat="45.874341" lon="6.102007">
        <ele>519.430827</ele>
        <time>2017-06-02T07:32:05.000Z</time>
      </trkpt>
      <trkpt lat="45.874027" lon="6.101688">
        <ele>521.291877</ele>
        <time>2017-06-02T07:32:21.483Z</time>
      </trkpt>
      <trkpt lat="45.873538" lon="6.101204">
        <ele>524.165484</ele>
        <time>2017-06-02T07:32:46.153Z</time>
      </trkpt>
      <trkpt lat="45.872713" lon="6.100408">
        <ele>529.393459</ele>
        <time>2017-06-02T07:33:29.649Z</time>
      </trkpt>
      <trkpt lat="45.871708" lon="6.099388">
        <ele>536.131967</ele>
        <time>2017-06-02T07:34:23.522Z</time>
      </trkpt>
      <trkpt lat="45.871094" lon="6.098781">
        <ele>540.570661</ele>
        <time>2017-06-02T07:34:57.214Z</time>
      </trkpt>
      <trkpt lat="45.870905" lon="6.098597">
        <ele>541.930318</ele>
        <time>2017-06-02T07:35:07.558Z</time>
      </trkpt>
      <trkpt lat="45.870873" lon="6.098563">
        <ele>542.167348</ele>
        <time>2017-06-02T07:35:09.566Z</time>
      </trkpt>
      <trkpt lat="45.870505" lon="6.098200">
        <ele>544.825793</ele>
        <time>2017-06-02T07:35:30.312Z</time>
      </trkpt>
      <trkpt lat="45.867285" lon="6.095031">
        <ele>571.755127</ele>
        <time>2017-06-02T07:38:47.923Z</time>
      </trkpt>
      <trkpt lat="45.867211" lon="6.094953">
        <ele>572.247744</ele>
        <time>2017-06-02T07:38:52.166Z</time>
      </trkpt>
      <trkpt lat="45.867036" lon="6.094762">
        <ele>573.427345</ele>
        <time>2017-06-02T07:39:02.905Z</time>
      </trkpt>
      <trkpt lat="45.866967" lon="6.094674">
        <ele>573.922584</ele>
        <time>2017-06-02T07:39:06.952Z</time>
      </trkpt>
      <trkpt lat="45.866918" lon="6.094592">
        <ele>574.326376</ele>
        <time>2017-06-02T07:39:10.242Z</time>
      </trkpt>
      <trkpt lat="45.866899" lon="6.094558">
        <ele>574.489288</ele>
        <time>2017-06-02T07:39:11.571Z</time>
      </trkpt>
      <trkpt lat="45.866873" lon="6.094509">
        <ele>574.719501</ele>
        <time>2017-06-02T07:39:14.418Z</time>
      </trkpt>
      <trkpt lat="45.865981" lon="6.092663">
        <ele>582.008746</ele>
        <time>2017-06-02T07:40:17.421Z</time>
      </trkpt>
      <trkpt lat="45.865700" lon="6.092091">
        <ele>583.534705</ele>
        <time>2017-06-02T07:40:32.949Z</time>
      </trkpt>
      <trkpt lat="45.865626" lon="6.091915">
        <ele>583.982878</ele>
        <time>2017-06-02T07:40:37.073Z</time>
      </trkpt>
      <trkpt lat="45.865485" lon="6.091635">
        <ele>584.736127</ele>
        <time>2017-06-02T07:40:44.436Z</time>
      </trkpt>
      <trkpt lat="45.865225" lon="6.091101">
        <ele>586.181756</ele>
        <time>2017-06-02T07:40:58.903Z</time>
      </trkpt>
      <trkpt lat="45.864915" lon="6.090461">
        <ele>588.516715</ele>
        <time>2017-06-02T07:41:19.319Z</time>
      </trkpt>
      <trkpt lat="45.864879" lon="6.090378">
        <ele>588.809584</ele>
        <time>2017-06-02T07:41:22.111Z</time>
      </trkpt>
      <trkpt lat="45.864712" lon="6.090029">
        <ele>590.077864</ele>
        <time>2017-06-02T07:41:33.104Z</time>
      </trkpt>
      <trkpt lat="45.864665" lon="6.089929">
        <ele>590.439208</ele>
        <time>2017-06-02T07:41:36.533Z</time>
      </trkpt>
      <trkpt lat="45.864371" lon="6.089289">
        <ele>592.735582</ele>
        <time>2017-06-02T07:41:58.806Z</time>
      </trkpt>
      <trkpt lat="45.864286" lon="6.089114">
        <ele>593.374629</ele>
        <time>2017-06-02T07:42:05.701Z</time>
      </trkpt>
      <trkpt lat="45.863856" lon="6.088254">
        <ele>596.905449</ele>
        <time>2017-06-02T07:42:38.487Z</time>
      </trkpt>
      <trkpt lat="45.863786" lon="6.088080">
        <ele>597.586922</ele>
        <time>2017-06-02T07:42:44.600Z</time>
      </trkpt>
      <trkpt lat="45.863690" lon="6.087581">
        <ele>599.342561</ele>
        <time>2017-06-02T07:43:00.987Z</time>
      </trkpt>
      <trkpt lat="45.863697" lon="6.087377">
        <ele>600.035221</ele>
        <time>2017-06-02T07:43:07.478Z</time>
      </trkpt>
      <trkpt lat="45.863708" lon="6.087327">
        <ele>600.213046</ele>
        <time>2017-06-02T07:43:09.074Z</time>
      </trkpt>
      <trkpt lat="45.863709" lon="6.087275">
        <ele>600.389459</ele>
        <time>2017-06-02T07:43:10.571Z</time>
      </trkpt>
      <trkpt lat="45.863698" lon="6.087213">
        <ele>600.606436</ele>
        <time>2017-06-02T07:43:12.324Z</time>
      </trkpt>
      <trkpt lat="45.863674" lon="6.087160">
        <ele>600.820833</ele>
        <time>2017-06-02T07:43:13.951Z</time>
      </trkpt>
      <trkpt lat="45.863639" lon="6.087122">
        <ele>601.034515</ele>
        <time>2017-06-02T07:43:15.671Z</time>
      </trkpt>
      <trkpt lat="45.863590" lon="6.087099">
        <ele>601.285567</ele>
        <time>2017-06-02T07:43:17.516Z</time>
      </trkpt>
      <trkpt lat="45.863553" lon="6.087100">
        <ele>601.465787</ele>
        <time>2017-06-02T07:43:18.803Z</time>
      </trkpt>
      <trkpt lat="45.863517" lon="6.087115">
        <ele>601.648336</ele>
        <time>2017-06-02T07:43:20.355Z</time>
      </trkpt>
      <trkpt lat="45.863428" lon="6.087096">
        <ele>602.086525</ele>
        <time>2017-06-02T07:43:23.498Z</time>
      </trkpt>
      <trkpt lat="45.863381" lon="6.087069">
        <ele>602.333048</ele>
        <time>2017-06-02T07:43:25.355Z</time>
      </trkpt>
      <trkpt lat="45.863266" lon="6.086965">
        <ele>602.792469</ele>
        <time>2017-06-02T07:43:30.436Z</time>
      </trkpt>
      <trkpt lat="45.863251" lon="6.086943">
        <ele>602.845388</ele>
        <time>2017-06-02T07:43:31.254Z</time>
      </trkpt>
      <trkpt lat="45.863235" lon="6.086914">
        <ele>602.908980</ele>
        <time>2017-06-02T07:43:32.125Z</time>
      </trkpt>
      <trkpt lat="45.863204" lon="6.086858">
        <ele>603.031937</ele>
        <time>2017-06-02T07:43:34.071Z</time>
      </trkpt>
      <trkpt lat="45.862533" lon="6.085411">
        <ele>606.019957</ele>
        <time>2017-06-02T07:44:12.103Z</time>
      </trkpt>
      <trkpt lat="45.862532" lon="6.085385">
        <ele>606.064713</ele>
        <time>2017-06-02T07:44:12.998Z</time>
      </trkpt>
      <trkpt lat="45.862531" lon="6.085347">
        <ele>606.130074</ele>
        <time>2017-06-02T07:44:13.681Z</time>
      </trkpt>
      <trkpt lat="45.862538" lon="6.085287">
        <ele>606.234638</ele>
        <time>2017-06-02T07:44:14.836Z</time>
      </trkpt>
      <trkpt lat="45.862549" lon="6.085250">
        <ele>606.303786</ele>
        <time>2017-06-02T07:44:15.521Z</time>
      </trkpt>
      <trkpt lat="45.862503" lon="6.085234">
        <ele>606.420604</ele>
        <time>2017-06-02T07:44:17.051Z</time>
      </trkpt>
      <trkpt lat="45.862378" lon="6.085120">
        <ele>606.786087</ele>
        <time>2017-06-02T07:44:21.435Z</time>
      </trkpt>
      <trkpt lat="45.862054" lon="6.084426">
        <ele>608.103520</ele>
        <time>2017-06-02T07:44:38.328Z</time>
      </trkpt>
      <trkpt lat="45.861934" lon="6.084384">
        <ele>608.378184</ele>
        <time>2017-06-02T07:44:41.712Z</time>
      </trkpt>
      <trkpt lat="45.861853" lon="6.084216">
        <ele>608.694621</ele>
        <time>2017-06-02T07:44:46.076Z</time>
      </trkpt>
      <trkpt lat="45.861678" lon="6.083851">
        <ele>609.380876</ele>
        <time>2017-06-02T07:44:55.658Z</time>
      </trkpt>
      <trkpt lat="45.861687" lon="6.083663">
        <ele>609.672704</ele>
        <time>2017-06-02T07:44:59.660Z</time>
      </trkpt>
      <trkpt lat="45.861111" lon="6.082449">
        <ele>611.897568</ele>
        <time>2017-06-02T07:45:33.802Z</time>
      </trkpt>
      <trkpt lat="45.860949" lon="6.082110">
        <ele>612.499791</ele>
        <time>2017-06-02T07:45:43.183Z</time>
      </trkpt>
      <trkpt lat="45.860794" lon="6.081786">
        <ele>613.075569</ele>
        <time>2017-06-02T07:45:52.109Z</time>
      </trkpt>
      <trkpt lat="45.860732" lon="6.081647">
        <ele>613.317355</ele>
        <time>2017-06-02T07:45:55.856Z</time>
      </trkpt>
      <trkpt lat="45.860692" lon="6.081552">
        <ele>613.479965</ele>
        <time>2017-06-02T07:45:58.773Z</time>
      </trkpt>
      <trkpt lat="45.859724" lon="6.079468">
        <ele>615.130604</ele>
        <time>2017-06-02T07:46:44.765Z</time>
      </trkpt>
      <trkpt lat="45.859640" lon="6.079285">
        <ele>615.174993</ele>
        <time>2017-06-02T07:46:47.990Z</time>
      </trkpt>
      <trkpt lat="45.859568" lon="6.079130">
        <ele>615.212727</ele>
        <time>2017-06-02T07:46:50.259Z</time>
      </trkpt>
      <trkpt lat="45.858992" lon="6.077818">
        <ele>614.426772</ele>
        <time>2017-06-02T07:47:11.271Z</time>
      </trkpt>
      <trkpt lat="45.858940" lon="6.077709">
        <ele>614.304149</ele>
        <time>2017-06-02T07:47:13.326Z</time>
      </trkpt>
      <trkpt lat="45.858743" lon="6.077313">
        <ele>613.852483</ele>
        <time>2017-06-02T07:47:19.635Z</time>
      </trkpt>
      <trkpt lat="45.858536" lon="6.077024">
        <ele>613.467719</ele>
        <time>2017-06-02T07:47:24.676Z</time>
      </trkpt>
      <trkpt lat="45.858509" lon="6.076892">
        <ele>613.340034</ele>
        <time>2017-06-02T07:47:26.640Z</time>
      </trkpt>
      <trkpt lat="45.858485" lon="6.076563">
        <ele>613.033015</ele>
        <time>2017-06-02T07:47:30.630Z</time>
      </trkpt>
      <trkpt lat="45.858520" lon="6.076563">
        <ele>612.986372</ele>
        <time>2017-06-02T07:47:31.233Z</time>
      </trkpt>
      <trkpt lat="45.858598" lon="6.076509">
        <ele>612.793996</ele>
        <time>2017-06-02T07:47:33.010Z</time>
      </trkpt>
      <trkpt lat="45.858612" lon="6.076483">
        <ele>612.725515</ele>
        <time>2017-06-02T07:47:33.409Z</time>
      </trkpt>
      <trkpt lat="45.858629" lon="6.076434">
        <ele>612.611446</ele>
        <time>2017-06-02T07:47:34.035Z</time>
      </trkpt>
      <trkpt lat="45.858624" lon="6.076310">
        <ele>612.352634</ele>
        <time>2017-06-02T07:47:35.463Z</time>
      </trkpt>
      <trkpt lat="45.858570" lon="6.076222">
        <ele>612.108243</ele>
        <time>2017-06-02T07:47:36.946Z</time>
      </trkpt>
      <trkpt lat="45.858428" lon="6.076235">
        <ele>611.682521</ele>
        <time>2017-06-02T07:47:39.601Z</time>
      </trkpt>
      <trkpt lat="45.858402" lon="6.076271">
        <ele>611.574453</ele>
        <time>2017-06-02T07:47:40.316Z</time>
      </trkpt>
      <trkpt lat="45.858243" lon="6.076102">
        <ele>610.982574</ele>
        <time>2017-06-02T07:47:43.616Z</time>
      </trkpt>
      <trkpt lat="45.858134" lon="6.075922">
        <ele>610.485548</ele>
        <time>2017-06-02T07:47:46.517Z</time>
      </trkpt>
      <trkpt lat="45.858119" lon="6.075902">
        <ele>610.424303</ele>
        <time>2017-06-02T07:47:46.792Z</time>
      </trkpt>
      <trkpt lat="45.856943" lon="6.073328">
        <ele>603.578333</ele>
        <time>2017-06-02T07:48:21.043Z</time>
      </trkpt>
      <trkpt lat="45.856790" lon="6.073054">
        <ele>602.757407</ele>
        <time>2017-06-02T07:48:24.993Z</time>
      </trkpt>
      <trkpt lat="45.856531" lon="6.072777">
        <ele>601.673471</ele>
        <time>2017-06-02T07:48:30.372Z</time>
      </trkpt>
      <trkpt lat="45.855894" lon="6.072303">
        <ele>599.438873</ele>
        <time>2017-06-02T07:48:42.392Z</time>
      </trkpt>
      <trkpt lat="45.855866" lon="6.072276">
        <ele>599.334399</ele>
        <time>2017-06-02T07:48:42.905Z</time>
      </trkpt>
      <trkpt lat="45.855690" lon="6.072151">
        <ele>598.726191</ele>
        <time>2017-06-02T07:48:46.247Z</time>
      </trkpt>
      <trkpt lat="45.855626" lon="6.072097">
        <ele>598.496256</ele>
        <time>2017-06-02T07:48:47.480Z</time>
      </trkpt>
      <trkpt lat="45.855529" lon="6.072017">
        <ele>598.149758</ele>
        <time>2017-06-02T07:48:49.297Z</time>
      </trkpt>
      <trkpt lat="45.854911" lon="6.071527">
        <ele>595.963022</ele>
        <time>2017-06-02T07:49:00.826Z</time>
      </trkpt>
      <trkpt lat="45.854545" lon="6.071104">
        <ele>593.926569</ele>
        <time>2017-06-02T07:49:08.191Z</time>
      </trkpt>
      <trkpt lat="45.854051" lon="6.070440">
        <ele>590.981986</ele>
        <time>2017-06-02T07:49:18.541Z</time>
      </trkpt>
      <trkpt lat="45.853425" lon="6.069452">
        <ele>587.229440</ele>
        <time>2017-06-02T07:49:32.645Z</time>
      </trkpt>
      <trkpt lat="45.853139" lon="6.069228">
        <ele>586.166028</ele>
        <time>2017-06-02T07:49:37.822Z</time>
      </trkpt>
      <trkpt lat="45.852953" lon="6.069197">
        <ele>585.554821</ele>
        <time>2017-06-02T07:49:41.192Z</time>
      </trkpt>
      <trkpt lat="45.852771" lon="6.069193">
        <ele>584.960679</ele>
        <time>2017-06-02T07:49:43.956Z</time>
      </trkpt>
      <trkpt lat="45.852655" lon="6.069210">
        <ele>584.580071</ele>
        <time>2017-06-02T07:49:46.387Z</time>
      </trkpt>
      <trkpt lat="45.852324" lon="6.069140">
        <ele>583.487984</ele>
        <time>2017-06-02T07:49:51.909Z</time>
      </trkpt>
      <trkpt lat="45.851660" lon="6.068800">
        <ele>581.328828</ele>
        <time>2017-06-02T07:50:04.005Z</time>
      </trkpt>
      <trkpt lat="45.849969" lon="6.067184">
        <ele>574.806763</ele>
        <time>2017-06-02T07:50:37.622Z</time>
      </trkpt>
      <trkpt lat="45.849788" lon="6.067074">
        <ele>573.975807</ele>
        <time>2017-06-02T07:50:40.638Z</time>
      </trkpt>
      <trkpt lat="45.849293" lon="6.067048">
        <ele>571.881680</ele>
        <time>2017-06-02T07:50:48.184Z</time>
      </trkpt>
      <trkpt lat="45.848878" lon="6.067301">
        <ele>569.975536</ele>
        <time>2017-06-02T07:50:55.049Z</time>
      </trkpt>
      <trkpt lat="45.848535" lon="6.067339">
        <ele>568.489076</ele>
        <time>2017-06-02T07:51:00.206Z</time>
      </trkpt>
      <trkpt lat="45.847911" lon="6.067066">
        <ele>565.645941</ele>
        <time>2017-06-02T07:51:10.046Z</time>
      </trkpt>
      <trkpt lat="45.847704" lon="6.066907">
        <ele>564.622730</ele>
        <time>2017-06-02T07:51:13.673Z</time>
      </trkpt>
      <trkpt lat="45.847363" lon="6.066517">
        <ele>562.722533</ele>
        <time>2017-06-02T07:51:20.604Z</time>
      </trkpt>
      <trkpt lat="45.847223" lon="6.066367">
        <ele>561.961153</ele>
        <time>2017-06-02T07:51:23.350Z</time>
      </trkpt>
      <trkpt lat="45.847161" lon="6.066300">
        <ele>561.657742</ele>
        <time>2017-06-02T07:51:24.635Z</time>
      </trkpt>
      <trkpt lat="45.846938" lon="6.066016">
        <ele>560.832731</ele>
        <time>2017-06-02T07:51:29.508Z</time>
      </trkpt>
      <trkpt lat="45.846748" lon="6.065645">
        <ele>559.945015</ele>
        <time>2017-06-02T07:51:34.820Z</time>
      </trkpt>
      <trkpt lat="45.846311" lon="6.064421">
        <ele>557.293472</ele>
        <time>2017-06-02T07:51:51.004Z</time>
      </trkpt>
      <trkpt lat="45.845715" lon="6.063365">
        <ele>554.714399</ele>
        <time>2017-06-02T07:52:07.459Z</time>
      </trkpt>
      <trkpt lat="45.845426" lon="6.062935">
        <ele>553.585371</ele>
        <time>2017-06-02T07:52:14.337Z</time>
      </trkpt>
      <trkpt lat="45.844887" lon="6.062421">
        <ele>551.812068</ele>
        <time>2017-06-02T07:52:24.911Z</time>
      </trkpt>
      <trkpt lat="45.844575" lon="6.062181">
        <ele>550.301005</ele>
        <time>2017-06-02T07:52:30.674Z</time>
      </trkpt>
      <trkpt lat="45.844159" lon="6.061798">
        <ele>548.191292</ele>
        <time>2017-06-02T07:52:38.603Z</time>
      </trkpt>
      <trkpt lat="45.843063" lon="6.060845">
        <ele>541.849578</ele>
        <time>2017-06-02T07:52:57.945Z</time>
      </trkpt>
      <trkpt lat="45.842721" lon="6.060547">
        <ele>539.123617</ele>
        <time>2017-06-02T07:53:03.917Z</time>
      </trkpt>
      <trkpt lat="45.842676" lon="6.060513">
        <ele>538.777125</ele>
        <time>2017-06-02T07:53:04.627Z</time>
      </trkpt>
      <trkpt lat="45.841525" lon="6.059476">
        <ele>529.152539</ele>
        <time>2017-06-02T07:53:24.751Z</time>
      </trkpt>
      <trkpt lat="45.841114" lon="6.059132">
        <ele>525.419446</ele>
        <time>2017-06-02T07:53:31.579Z</time>
      </trkpt>
      <trkpt lat="45.840770" lon="6.058820">
        <ele>522.226583</ele>
        <time>2017-06-02T07:53:37.600Z</time>
      </trkpt>
      <trkpt lat="45.840649" lon="6.058725">
        <ele>521.144415</ele>
        <time>2017-06-02T07:53:39.762Z</time>
      </trkpt>
      <trkpt lat="45.840517" lon="6.058632">
        <ele>519.990640</ele>
        <time>2017-06-02T07:53:41.872Z</time>
      </trkpt>
      <trkpt lat="45.840475" lon="6.058577">
        <ele>519.544551</ele>
        <time>2017-06-02T07:53:43.306Z</time>
      </trkpt>
      <trkpt lat="45.840586" lon="6.058461">
        <ele>518.467214</ele>
        <time>2017-06-02T07:53:47.057Z</time>
      </trkpt>
      <trkpt lat="45.840581" lon="6.058423">
        <ele>518.255821</ele>
        <time>2017-06-02T07:53:47.750Z</time>
      </trkpt>
      <trkpt lat="45.840471" lon="6.058457">
        <ele>517.497102</ele>
        <time>2017-06-02T07:53:49.313Z</time>
      </trkpt>
      <trkpt lat="45.840431" lon="6.058475">
        <ele>517.260583</ele>
        <time>2017-06-02T07:53:49.856Z</time>
      </trkpt>
      <trkpt lat="45.839448" lon="6.058920">
        <ele>511.444989</ele>
        <time>2017-06-02T07:54:04.978Z</time>
      </trkpt>
      <trkpt lat="45.838828" lon="6.059601">
        <ele>507.311650</ele>
        <time>2017-06-02T07:54:16.998Z</time>
      </trkpt>
      <trkpt lat="45.838642" lon="6.059665">
        <ele>506.700197</ele>
        <time>2017-06-02T07:54:20.004Z</time>
      </trkpt>
      <trkpt lat="45.838356" lon="6.059614">
        <ele>505.778881</ele>
        <time>2017-06-02T07:54:24.592Z</time>
      </trkpt>
      <trkpt lat="45.837325" lon="6.058920">
        <ele>502.138532</ele>
        <time>2017-06-02T07:54:43.231Z</time>
      </trkpt>
      <trkpt lat="45.836570" lon="6.058413">
        <ele>501.429887</ele>
        <time>2017-06-02T07:54:58.599Z</time>
      </trkpt>
      <trkpt lat="45.836362" lon="6.058130">
        <ele>501.247307</ele>
        <time>2017-06-02T07:55:04.416Z</time>
      </trkpt>
      <trkpt lat="45.836200" lon="6.057780">
        <ele>501.060805</ele>
        <time>2017-06-02T07:55:10.775Z</time>
      </trkpt>
      <trkpt lat="45.835970" lon="6.057771">
        <ele>500.914228</ele>
        <time>2017-06-02T07:55:16.757Z</time>
      </trkpt>
      <trkpt lat="45.835007" lon="6.057520">
        <ele>501.765200</ele>
        <time>2017-06-02T07:55:43.764Z</time>
      </trkpt>
      <trkpt lat="45.834136" lon="6.056929">
        <ele>503.036235</ele>
        <time>2017-06-02T07:56:12.067Z</time>
      </trkpt>
      <trkpt lat="45.833995" lon="6.056902">
        <ele>503.315202</ele>
        <time>2017-06-02T07:56:16.176Z</time>
      </trkpt>
      <trkpt lat="45.833678" lon="6.056972">
        <ele>504.220489</ele>
        <time>2017-06-02T07:56:25.610Z</time>
      </trkpt>
      <trkpt lat="45.833497" lon="6.056986">
        <ele>504.732118</ele>
        <time>2017-06-02T07:56:30.960Z</time>
      </trkpt>
      <trkpt lat="45.833304" lon="6.056887">
        <ele>505.310623</ele>
        <time>2017-06-02T07:56:37.694Z</time>
      </trkpt>
      <trkpt lat="45.833152" lon="6.056701">
        <ele>505.874426</ele>
        <time>2017-06-02T07:56:43.601Z</time>
      </trkpt>
      <trkpt lat="45.832884" lon="6.056130">
        <ele>507.228398</ele>
        <time>2017-06-02T07:56:59.774Z</time>
      </trkpt>
      <trkpt lat="45.832695" lon="6.055882">
        <ele>507.951217</ele>
        <time>2017-06-02T07:57:11.061Z</time>
      </trkpt>
      <trkpt lat="45.832522" lon="6.055713">
        <ele>508.887723</ele>
        <time>2017-06-02T07:57:21.384Z</time>
      </trkpt>
      <trkpt lat="45.832343" lon="6.055630">
        <ele>509.990148</ele>
        <time>2017-06-02T07:57:28.420Z</time>
      </trkpt>
      <trkpt lat="45.832103" lon="6.055760">
        <ele>511.493514</ele>
        <time>2017-06-02T07:57:40.754Z</time>
      </trkpt>
      <trkpt lat="45.832046" lon="6.055886">
        <ele>512.106954</ele>
        <time>2017-06-02T07:57:44.754Z</time>
      </trkpt>
      <trkpt lat="45.832026" lon="6.056136">
        <ele>513.134512</ele>
        <time>2017-06-02T07:57:54.557Z</time>
      </trkpt>
      <trkpt lat="45.832070" lon="6.056500">
        <ele>514.643074</ele>
        <time>2017-06-02T07:58:05.267Z</time>
      </trkpt>
      <trkpt lat="45.832074" lon="6.056605">
        <ele>515.072471</ele>
        <time>2017-06-02T07:58:10.408Z</time>
      </trkpt>
      <trkpt lat="45.832068" lon="6.056686">
        <ele>515.405091</ele>
        <time>2017-06-02T07:58:13.103Z</time>
      </trkpt>
      <trkpt lat="45.832039" lon="6.056853">
        <ele>516.107879</ele>
        <time>2017-06-02T07:58:17.767Z</time>
      </trkpt>
      <trkpt lat="45.831940" lon="6.057142">
        <ele>517.422897</ele>
        <time>2017-06-02T07:58:30.339Z</time>
      </trkpt>
      <trkpt lat="45.831787" lon="6.057432">
        <ele>518.900128</ele>
        <time>2017-06-02T07:58:41.153Z</time>
      </trkpt>
      <trkpt lat="45.831570" lon="6.057690">
        <ele>520.459972</ele>
        <time>2017-06-02T07:58:54.854Z</time>
      </trkpt>
      <trkpt lat="45.831533" lon="6.057721">
        <ele>520.697132</ele>
        <time>2017-06-02T07:58:56.746Z</time>
      </trkpt>
      <trkpt lat="45.831359" lon="6.057863">
        <ele>521.805138</ele>
        <time>2017-06-02T07:59:07.334Z</time>
      </trkpt>
      <trkpt lat="45.830956" lon="6.058039">
        <ele>524.136945</ele>
        <time>2017-06-02T07:59:27.747Z</time>
      </trkpt>
      <trkpt lat="45.830382" lon="6.058066">
        <ele>527.316032</ele>
        <time>2017-06-02T07:59:51.986Z</time>
      </trkpt>
      <trkpt lat="45.830269" lon="6.058145">
        <ele>528.011814</ele>
        <time>2017-06-02T07:59:56.960Z</time>
      </trkpt>
      <trkpt lat="45.830031" lon="6.058862">
        <ele>530.648345</ele>
        <time>2017-06-02T08:00:19.358Z</time>
      </trkpt>
      <trkpt lat="45.829963" lon="6.059217">
        <ele>531.811298</ele>
        <time>2017-06-02T08:00:29.706Z</time>
      </trkpt>
      <trkpt lat="45.829868" lon="6.059339">
        <ele>532.389206</ele>
        <time>2017-06-02T08:00:34.463Z</time>
      </trkpt>
      <trkpt lat="45.829719" lon="6.059429">
        <ele>533.122052</ele>
        <time>2017-06-02T08:00:40.804Z</time>
      </trkpt>
      <trkpt lat="45.829663" lon="6.059409">
        <ele>533.383659</ele>
        <time>2017-06-02T08:00:43.437Z</time>
      </trkpt>
      <trkpt lat="45.829417" lon="6.060331">
        <ele>536.502252</ele>
        <time>2017-06-02T08:01:12.091Z</time>
      </trkpt>
      <trkpt lat="45.829122" lon="6.060821">
        <ele>538.405138</ele>
        <time>2017-06-02T08:01:31.360Z</time>
      </trkpt>
      <trkpt lat="45.828941" lon="6.060933">
        <ele>539.222644</ele>
        <time>2017-06-02T08:01:39.194Z</time>
      </trkpt>
      <trkpt lat="45.828715" lon="6.061026">
        <ele>540.197753</ele>
        <time>2017-06-02T08:01:48.430Z</time>
      </trkpt>
      <trkpt lat="45.828550" lon="6.061011">
        <ele>540.883464</ele>
        <time>2017-06-02T08:01:55.172Z</time>
      </trkpt>
      <trkpt lat="45.828383" lon="6.060977">
        <ele>541.583033</ele>
        <time>2017-06-02T08:02:01.278Z</time>
      </trkpt>
      <trkpt lat="45.828028" lon="6.060748">
        <ele>543.197301</ele>
        <time>2017-06-02T08:02:15.786Z</time>
      </trkpt>
      <trkpt lat="45.827446" lon="6.060374">
        <ele>545.297525</ele>
        <time>2017-06-02T08:02:39.239Z</time>
      </trkpt>
      <trkpt lat="45.825848" lon="6.059295">
        <ele>549.859535</ele>
        <time>2017-06-02T08:03:34.940Z</time>
      </trkpt>
      <trkpt lat="45.824650" lon="6.058805">
        <ele>552.705534</ele>
        <time>2017-06-02T08:04:12.769Z</time>
      </trkpt>
      <trkpt lat="45.823474" lon="6.058880">
        <ele>556.090971</ele>
        <time>2017-06-02T08:04:53.280Z</time>
      </trkpt>
      <trkpt lat="45.822977" lon="6.058911">
        <ele>557.589776</ele>
        <time>2017-06-02T08:05:10.885Z</time>
      </trkpt>
      <trkpt lat="45.822726" lon="6.058927">
        <ele>558.346750</ele>
        <time>2017-06-02T08:05:19.838Z</time>
      </trkpt>
      <trkpt lat="45.821695" lon="6.058874">
        <ele>560.335660</ele>
        <time>2017-06-02T08:05:54.323Z</time>
      </trkpt>
      <trkpt lat="45.821312" lon="6.058855">
        <ele>561.032740</ele>
        <time>2017-06-02T08:06:04.994Z</time>
      </trkpt>
      <trkpt lat="45.820679" lon="6.058676">
        <ele>561.862509</ele>
        <time>2017-06-02T08:06:20.408Z</time>
      </trkpt>
      <trkpt lat="45.820176" lon="6.058561">
        <ele>561.742445</ele>
        <time>2017-06-02T08:06:31.145Z</time>
      </trkpt>
      <trkpt lat="45.819301" lon="6.058442">
        <ele>561.535264</ele>
        <time>2017-06-02T08:06:48.504Z</time>
      </trkpt>
      <trkpt lat="45.818714" lon="6.058553">
        <ele>562.020069</ele>
        <time>2017-06-02T08:07:01.768Z</time>
      </trkpt>
      <trkpt lat="45.818309" lon="6.058731">
        <ele>562.677976</ele>
        <time>2017-06-02T08:07:12.792Z</time>
      </trkpt>
      <trkpt lat="45.817976" lon="6.058942">
        <ele>563.243389</ele>
        <time>2017-06-02T08:07:23.353Z</time>
      </trkpt>
      <trkpt lat="45.817797" lon="6.059096">
        <ele>563.567566</ele>
        <time>2017-06-02T08:07:30.270Z</time>
      </trkpt>
      <trkpt lat="45.817097" lon="6.059863">
        <ele>565.757475</ele>
        <time>2017-06-02T08:07:59.943Z</time>
      </trkpt>
      <trkpt lat="45.815986" lon="6.060587">
        <ele>569.998926</ele>
        <time>2017-06-02T08:08:46.410Z</time>
      </trkpt>
      <trkpt lat="45.815713" lon="6.060673">
        <ele>570.965786</ele>
        <time>2017-06-02T08:08:55.116Z</time>
      </trkpt>
      <trkpt lat="45.815653" lon="6.060677">
        <ele>571.172380</ele>
        <time>2017-06-02T08:08:57.796Z</time>
      </trkpt>
      <trkpt lat="45.815623" lon="6.060679">
        <ele>571.275678</ele>
        <time>2017-06-02T08:08:58.907Z</time>
      </trkpt>
      <trkpt lat="45.814600" lon="6.060381">
        <ele>574.866107</ele>
        <time>2017-06-02T08:09:35.830Z</time>
      </trkpt>
      <trkpt lat="45.814240" lon="6.060394">
        <ele>576.104731</ele>
        <time>2017-06-02T08:09:49.158Z</time>
      </trkpt>
      <trkpt lat="45.814145" lon="6.060436">
        <ele>576.446648</ele>
        <time>2017-06-02T08:09:52.911Z</time>
      </trkpt>
      <trkpt lat="45.814048" lon="6.060479">
        <ele>576.805405</ele>
        <time>2017-06-02T08:09:56.751Z</time>
      </trkpt>
      <trkpt lat="45.813919" lon="6.060603">
        <ele>577.399097</ele>
        <time>2017-06-02T08:10:01.659Z</time>
      </trkpt>
      <trkpt lat="45.813669" lon="6.060962">
        <ele>578.751493</ele>
        <time>2017-06-02T08:10:15.306Z</time>
      </trkpt>
      <trkpt lat="45.813455" lon="6.061247">
        <ele>579.867888</ele>
        <time>2017-06-02T08:10:27.093Z</time>
      </trkpt>
      <trkpt lat="45.813113" lon="6.061478">
        <ele>581.313175</ele>
        <time>2017-06-02T08:10:41.217Z</time>
      </trkpt>
      <trkpt lat="45.812606" lon="6.061687">
        <ele>583.330103</ele>
        <time>2017-06-02T08:11:00.177Z</time>
      </trkpt>
      <trkpt lat="45.812482" lon="6.061743">
        <ele>583.818150</ele>
        <time>2017-06-02T08:11:06.066Z</time>
      </trkpt>
      <trkpt lat="45.812301" lon="6.061751">
        <ele>584.484561</ele>
        <time>2017-06-02T08:11:12.003Z</time>
      </trkpt>
      <trkpt lat="45.812047" lon="6.061638">
        <ele>585.463209</ele>
        <time>2017-06-02T08:11:22.707Z</time>
      </trkpt>
      <trkpt lat="45.811761" lon="6.061350">
        <ele>586.749094</ele>
        <time>2017-06-02T08:11:35.332Z</time>
      </trkpt>
      <trkpt lat="45.811625" lon="6.061194">
        <ele>587.389885</ele>
        <time>2017-06-02T08:11:41.101Z</time>
      </trkpt>
      <trkpt lat="45.811482" lon="6.061104">
        <ele>587.964547</ele>
        <time>2017-06-02T08:11:47.618Z</time>
      </trkpt>
      <trkpt lat="45.811349" lon="6.061073">
        <ele>588.460414</ele>
        <time>2017-06-02T08:11:52.052Z</time>
      </trkpt>
      <trkpt lat="45.811133" lon="6.061131">
        <ele>589.269114</ele>
        <time>2017-06-02T08:12:00.993Z</time>
      </trkpt>
      <trkpt lat="45.810984" lon="6.061210">
        <ele>589.853693</ele>
        <time>2017-06-02T08:12:06.431Z</time>
      </trkpt>
      <trkpt lat="45.810571" lon="6.061475">
        <ele>591.310485</ele>
        <time>2017-06-02T08:12:22.715Z</time>
      </trkpt>
      <trkpt lat="45.809932" lon="6.061999">
        <ele>593.589427</ele>
        <time>2017-06-02T08:12:49.564Z</time>
      </trkpt>
      <trkpt lat="45.809827" lon="6.062083">
        <ele>593.961670</ele>
        <time>2017-06-02T08:12:53.748Z</time>
      </trkpt>
      <trkpt lat="45.809688" lon="6.062195">
        <ele>594.455292</ele>
        <time>2017-06-02T08:12:59.326Z</time>
      </trkpt>
      <trkpt lat="45.809603" lon="6.062224">
        <ele>594.725818</ele>
        <time>2017-06-02T08:13:02.501Z</time>
      </trkpt>
      <trkpt lat="45.809528" lon="6.062216">
        <ele>594.958682</ele>
        <time>2017-06-02T08:13:05.095Z</time>
      </trkpt>
      <trkpt lat="45.809309" lon="6.062056">
        <ele>595.719638</ele>
        <time>2017-06-02T08:13:12.985Z</time>
      </trkpt>
      <trkpt lat="45.808955" lon="6.061804">
        <ele>595.728175</ele>
        <time>2017-06-02T08:13:24.499Z</time>
      </trkpt>
      <trkpt lat="45.808847" lon="6.061721">
        <ele>595.712789</ele>
        <time>2017-06-02T08:13:27.693Z</time>
      </trkpt>
      <trkpt lat="45.807976" lon="6.061017">
        <ele>595.587240</ele>
        <time>2017-06-02T08:13:48.078Z</time>
      </trkpt>
      <trkpt lat="45.807880" lon="6.060940">
        <ele>595.573428</ele>
        <time>2017-06-02T08:13:50.072Z</time>
      </trkpt>
      <trkpt lat="45.807855" lon="6.060920">
        <ele>595.569833</ele>
        <time>2017-06-02T08:13:50.542Z</time>
      </trkpt>
      <trkpt lat="45.807452" lon="6.060602">
        <ele>594.880966</ele>
        <time>2017-06-02T08:13:58.481Z</time>
      </trkpt>
      <trkpt lat="45.807180" lon="6.060345">
        <ele>594.153273</ele>
        <time>2017-06-02T08:14:04.064Z</time>
      </trkpt>
      <trkpt lat="45.807088" lon="6.060254">
        <ele>593.903595</ele>
        <time>2017-06-02T08:14:05.914Z</time>
      </trkpt>
      <trkpt lat="45.807035" lon="6.060201">
        <ele>593.759248</ele>
        <time>2017-06-02T08:14:07.053Z</time>
      </trkpt>
      <trkpt lat="45.806928" lon="6.060122">
        <ele>593.490377</ele>
        <time>2017-06-02T08:14:09.095Z</time>
      </trkpt>
      <trkpt lat="45.806825" lon="6.060071">
        <ele>593.246925</ele>
        <time>2017-06-02T08:14:10.930Z</time>
      </trkpt>
      <trkpt lat="45.806639" lon="6.059941">
        <ele>592.784652</ele>
        <time>2017-06-02T08:14:14.499Z</time>
      </trkpt>
      <trkpt lat="45.806604" lon="6.059917">
        <ele>592.697978</ele>
        <time>2017-06-02T08:14:15.110Z</time>
      </trkpt>
      <trkpt lat="45.806274" lon="6.059690">
        <ele>591.880286</ele>
        <time>2017-06-02T08:14:21.338Z</time>
      </trkpt>
      <trkpt lat="45.805905" lon="6.059475">
        <ele>591.185335</ele>
        <time>2017-06-02T08:14:28.301Z</time>
      </trkpt>
      <trkpt lat="45.805027" lon="6.059065">
        <ele>589.866143</ele>
        <time>2017-06-02T08:14:45.207Z</time>
      </trkpt>
      <trkpt lat="45.804920" lon="6.059011">
        <ele>589.704087</ele>
        <time>2017-06-02T08:14:47.408Z</time>
      </trkpt>
      <trkpt lat="45.803713" lon="6.058463">
        <ele>588.314937</ele>
        <time>2017-06-02T08:15:12.271Z</time>
      </trkpt>
      <trkpt lat="45.803159" lon="6.058213">
        <ele>587.811820</ele>
        <time>2017-06-02T08:15:23.610Z</time>
      </trkpt>
      <trkpt lat="45.802230" lon="6.057859">
        <ele>587.078426</ele>
        <time>2017-06-02T08:15:42.621Z</time>
      </trkpt>
      <trkpt lat="45.802042" lon="6.057819">
        <ele>586.952343</ele>
        <time>2017-06-02T08:15:46.270Z</time>
      </trkpt>
      <trkpt lat="45.801484" lon="6.057698">
        <ele>586.577962</ele>
        <time>2017-06-02T08:15:57.379Z</time>
      </trkpt>
      <trkpt lat="45.800913" lon="6.057567">
        <ele>586.215019</ele>
        <time>2017-06-02T08:16:09.112Z</time>
      </trkpt>
      <trkpt lat="45.800369" lon="6.057433">
        <ele>586.335482</ele>
        <time>2017-06-02T08:16:21.704Z</time>
      </trkpt>
      <trkpt lat="45.799894" lon="6.057455">
        <ele>586.439202</ele>
        <time>2017-06-02T08:16:33.172Z</time>
      </trkpt>
      <trkpt lat="45.799445" lon="6.057635">
        <ele>586.540949</ele>
        <time>2017-06-02T08:16:44.326Z</time>
      </trkpt>
      <trkpt lat="45.799094" lon="6.057803">
        <ele>586.535555</ele>
        <time>2017-06-02T08:16:53.176Z</time>
      </trkpt>
      <trkpt lat="45.799040" lon="6.057800">
        <ele>586.494591</ele>
        <time>2017-06-02T08:16:54.522Z</time>
      </trkpt>
      <trkpt lat="45.798862" lon="6.057790">
        <ele>586.359560</ele>
        <time>2017-06-02T08:16:58.776Z</time>
      </trkpt>
      <trkpt lat="45.798279" lon="6.057551">
        <ele>585.899940</ele>
        <time>2017-06-02T08:17:12.427Z</time>
      </trkpt>
      <trkpt lat="45.797885" lon="6.057305">
        <ele>585.574211</ele>
        <time>2017-06-02T08:17:20.968Z</time>
      </trkpt>
      <trkpt lat="45.796686" lon="6.056557">
        <ele>582.623007</ele>
        <time>2017-06-02T08:17:42.983Z</time>
      </trkpt>
      <trkpt lat="45.796529" lon="6.056459">
        <ele>582.105375</ele>
        <time>2017-06-02T08:17:45.658Z</time>
      </trkpt>
      <trkpt lat="45.795846" lon="6.056058">
        <ele>579.874279</ele>
        <time>2017-06-02T08:17:57.494Z</time>
      </trkpt>
      <trkpt lat="45.794949" lon="6.055803">
        <ele>577.479181</ele>
        <time>2017-06-02T08:18:12.405Z</time>
      </trkpt>
      <trkpt lat="45.794541" lon="6.055756">
        <ele>576.411590</ele>
        <time>2017-06-02T08:18:19.386Z</time>
      </trkpt>
      <trkpt lat="45.794022" lon="6.055796">
        <ele>575.098962</ele>
        <time>2017-06-02T08:18:28.550Z</time>
      </trkpt>
      <trkpt lat="45.793959" lon="6.055801">
        <ele>575.064870</ele>
        <time>2017-06-02T08:18:29.610Z</time>
      </trkpt>
      <trkpt lat="45.793636" lon="6.055684">
        <ele>574.884868</ele>
        <time>2017-06-02T08:18:36.030Z</time>
      </trkpt>
      <trkpt lat="45.793218" lon="6.055361">
        <ele>574.628320</ele>
        <time>2017-06-02T08:18:45.681Z</time>
      </trkpt>
      <trkpt lat="45.793085" lon="6.055326">
        <ele>574.555258</ele>
        <time>2017-06-02T08:18:48.454Z</time>
      </trkpt>
      <trkpt lat="45.793029" lon="6.055311">
        <ele>574.524477</ele>
        <time>2017-06-02T08:18:49.824Z</time>
      </trkpt>
      <trkpt lat="45.792903" lon="6.055277">
        <ele>574.455202</ele>
        <time>2017-06-02T08:18:52.428Z</time>
      </trkpt>
      <trkpt lat="45.792309" lon="6.055296">
        <ele>574.138364</ele>
        <time>2017-06-02T08:19:06.072Z</time>
      </trkpt>
      <trkpt lat="45.791600" lon="6.055601">
        <ele>574.138745</ele>
        <time>2017-06-02T08:19:23.993Z</time>
      </trkpt>
      <trkpt lat="45.790978" lon="6.055587">
        <ele>574.139065</ele>
        <time>2017-06-02T08:19:38.448Z</time>
      </trkpt>
      <trkpt lat="45.790692" lon="6.055523">
        <ele>574.139213</ele>
        <time>2017-06-02T08:19:44.481Z</time>
      </trkpt>
      <trkpt lat="45.790047" lon="6.055074">
        <ele>573.579404</ele>
        <time>2017-06-02T08:19:57.991Z</time>
      </trkpt>
      <trkpt lat="45.789380" lon="6.054608">
        <ele>572.860499</ele>
        <time>2017-06-02T08:20:11.987Z</time>
      </trkpt>
      <trkpt lat="45.789216" lon="6.054502">
        <ele>572.686197</ele>
        <time>2017-06-02T08:20:15.213Z</time>
      </trkpt>
      <trkpt lat="45.789126" lon="6.054443">
        <ele>572.590311</ele>
        <time>2017-06-02T08:20:17.125Z</time>
      </trkpt>
      <trkpt lat="45.788712" lon="6.054473">
        <ele>572.638416</ele>
        <time>2017-06-02T08:20:25.499Z</time>
      </trkpt>
      <trkpt lat="45.788423" lon="6.054494">
        <ele>572.964815</ele>
        <time>2017-06-02T08:20:32.135Z</time>
      </trkpt>
      <trkpt lat="45.788287" lon="6.054449">
        <ele>573.122248</ele>
        <time>2017-06-02T08:20:35.814Z</time>
      </trkpt>
      <trkpt lat="45.788065" lon="6.054396">
        <ele>573.376102</ele>
        <time>2017-06-02T08:20:41.663Z</time>
      </trkpt>
      <trkpt lat="45.787634" lon="6.054263">
        <ele>573.873381</ele>
        <time>2017-06-02T08:20:53.949Z</time>
      </trkpt>
      <trkpt lat="45.787313" lon="6.054235">
        <ele>574.236126</ele>
        <time>2017-06-02T08:21:04.242Z</time>
      </trkpt>
      <trkpt lat="45.787113" lon="6.054362">
        <ele>574.552619</ele>
        <time>2017-06-02T08:21:11.984Z</time>
      </trkpt>
      <trkpt lat="45.786947" lon="6.054435">
        <ele>574.985859</ele>
        <time>2017-06-02T08:21:17.395Z</time>
      </trkpt>
      <trkpt lat="45.786748" lon="6.054507">
        <ele>575.497962</ele>
        <time>2017-06-02T08:21:24.889Z</time>
      </trkpt>
      <trkpt lat="45.786635" lon="6.054463">
        <ele>575.790128</ele>
        <time>2017-06-02T08:21:28.364Z</time>
      </trkpt>
      <trkpt lat="45.786338" lon="6.054345">
        <ele>576.559117</ele>
        <time>2017-06-02T08:21:38.799Z</time>
      </trkpt>
      <trkpt lat="45.785765" lon="6.054094">
        <ele>578.054079</ele>
        <time>2017-06-02T08:21:58.549Z</time>
      </trkpt>
      <trkpt lat="45.785520" lon="6.053986">
        <ele>578.693633</ele>
        <time>2017-06-02T08:22:06.155Z</time>
      </trkpt>
      <trkpt lat="45.785336" lon="6.053908">
        <ele>579.053626</ele>
        <time>2017-06-02T08:22:12.067Z</time>
      </trkpt>
      <trkpt lat="45.785181" lon="6.053846">
        <ele>579.271134</ele>
        <time>2017-06-02T08:22:16.457Z</time>
      </trkpt>
      <trkpt lat="45.785075" lon="6.053816">
        <ele>579.417176</ele>
        <time>2017-06-02T08:22:19.483Z</time>
      </trkpt>
      <trkpt lat="45.784703" lon="6.053753">
        <ele>579.923495</ele>
        <time>2017-06-02T08:22:30.128Z</time>
      </trkpt>
      <trkpt lat="45.784338" lon="6.053664">
        <ele>580.423939</ele>
        <time>2017-06-02T08:22:40.378Z</time>
      </trkpt>
      <trkpt lat="45.784097" lon="6.053598">
        <ele>580.755581</ele>
        <time>2017-06-02T08:22:46.884Z</time>
      </trkpt>
      <trkpt lat="45.783806" lon="6.053477">
        <ele>581.165122</ele>
        <time>2017-06-02T08:22:54.817Z</time>
      </trkpt>
      <trkpt lat="45.783646" lon="6.053429">
        <ele>581.376926</ele>
        <time>2017-06-02T08:22:58.840Z</time>
      </trkpt>
      <trkpt lat="45.783375" lon="6.053348">
        <ele>581.668916</ele>
        <time>2017-06-02T08:23:05.987Z</time>
      </trkpt>
      <trkpt lat="45.783033" lon="6.053252">
        <ele>582.036498</ele>
        <time>2017-06-02T08:23:15.049Z</time>
      </trkpt>
      <trkpt lat="45.782501" lon="6.053101">
        <ele>582.608529</ele>
        <time>2017-06-02T08:23:29.335Z</time>
      </trkpt>
      <trkpt lat="45.782453" lon="6.053087">
        <ele>582.660195</ele>
        <time>2017-06-02T08:23:30.669Z</time>
      </trkpt>
      <trkpt lat="45.782040" lon="6.052913">
        <ele>583.114234</ele>
        <time>2017-06-02T08:23:42.206Z</time>
      </trkpt>
      <trkpt lat="45.781995" lon="6.052905">
        <ele>583.162062</ele>
        <time>2017-06-02T08:23:43.460Z</time>
      </trkpt>
      <trkpt lat="45.781890" lon="6.052885">
        <ele>583.279328</ele>
        <time>2017-06-02T08:23:46.408Z</time>
      </trkpt>
      <trkpt lat="45.780076" lon="6.052858">
        <ele>585.523584</ele>
        <time>2017-06-02T08:24:35.580Z</time>
      </trkpt>
      <trkpt lat="45.779421" lon="6.053143">
        <ele>586.388970</ele>
        <time>2017-06-02T08:24:54.583Z</time>
      </trkpt>
      <trkpt lat="45.779150" lon="6.053285">
        <ele>586.753749</ele>
        <time>2017-06-02T08:25:02.620Z</time>
      </trkpt>
      <trkpt lat="45.778951" lon="6.053389">
        <ele>587.021530</ele>
        <time>2017-06-02T08:25:08.470Z</time>
      </trkpt>
      <trkpt lat="45.778627" lon="6.053554">
        <ele>587.456223</ele>
        <time>2017-06-02T08:25:17.868Z</time>
      </trkpt>
      <trkpt lat="45.778260" lon="6.053741">
        <ele>587.881777</ele>
        <time>2017-06-02T08:25:28.473Z</time>
      </trkpt>
      <trkpt lat="45.776916" lon="6.054427">
        <ele>589.108942</ele>
        <time>2017-06-02T08:26:05.166Z</time>
      </trkpt>
      <trkpt lat="45.776345" lon="6.054723">
        <ele>589.350910</ele>
        <time>2017-06-02T08:26:19.561Z</time>
      </trkpt>
      <trkpt lat="45.776050" lon="6.054876">
        <ele>589.401252</ele>
        <time>2017-06-02T08:26:26.882Z</time>
      </trkpt>
      <trkpt lat="45.775360" lon="6.055232">
        <ele>589.518930</ele>
        <time>2017-06-02T08:26:43.507Z</time>
      </trkpt>
      <trkpt lat="45.774480" lon="6.055676">
        <ele>588.806215</ele>
        <time>2017-06-02T08:27:04.175Z</time>
      </trkpt>
      <trkpt lat="45.774039" lon="6.055826">
        <ele>588.207207</ele>
        <time>2017-06-02T08:27:12.979Z</time>
      </trkpt>
      <trkpt lat="45.773206" lon="6.056062">
        <ele>586.754350</ele>
        <time>2017-06-02T08:27:27.482Z</time>
      </trkpt>
      <trkpt lat="45.772925" lon="6.056261">
        <ele>585.129489</ele>
        <time>2017-06-02T08:27:32.918Z</time>
      </trkpt>
      <trkpt lat="45.772901" lon="6.056218">
        <ele>584.930340</ele>
        <time>2017-06-02T08:27:33.424Z</time>
      </trkpt>
      <trkpt lat="45.772814" lon="6.056172">
        <ele>584.449599</ele>
        <time>2017-06-02T08:27:34.961Z</time>
      </trkpt>
      <trkpt lat="45.772295" lon="6.056221">
        <ele>581.753057</ele>
        <time>2017-06-02T08:27:43.194Z</time>
      </trkpt>
      <trkpt lat="45.770627" lon="6.055859">
        <ele>569.323694</ele>
        <time>2017-06-02T08:28:06.930Z</time>
      </trkpt>
      <trkpt lat="45.770347" lon="6.055795">
        <ele>566.741124</ele>
        <time>2017-06-02T08:28:10.736Z</time>
      </trkpt>
      <trkpt lat="45.770040" lon="6.055716">
        <ele>563.900149</ele>
        <time>2017-06-02T08:28:14.945Z</time>
      </trkpt>
      <trkpt lat="45.769429" lon="6.055617">
        <ele>557.346992</ele>
        <time>2017-06-02T08:28:23.328Z</time>
      </trkpt>
      <trkpt lat="45.769141" lon="6.055744">
        <ele>553.783248</ele>
        <time>2017-06-02T08:28:27.404Z</time>
      </trkpt>
      <trkpt lat="45.769050" lon="6.055830">
        <ele>552.494149</ele>
        <time>2017-06-02T08:28:28.821Z</time>
      </trkpt>
      <trkpt lat="45.768998" lon="6.055878">
        <ele>551.762668</ele>
        <time>2017-06-02T08:28:29.651Z</time>
      </trkpt>
      <trkpt lat="45.768691" lon="6.056202">
        <ele>547.253897</ele>
        <time>2017-06-02T08:28:34.730Z</time>
      </trkpt>
      <trkpt lat="45.768485" lon="6.056536">
        <ele>543.575693</ele>
        <time>2017-06-02T08:28:38.869Z</time>
      </trkpt>
      <trkpt lat="45.768454" lon="6.056600">
        <ele>542.932867</ele>
        <time>2017-06-02T08:28:39.608Z</time>
      </trkpt>
      <trkpt lat="45.768382" lon="6.056786">
        <ele>541.177886</ele>
        <time>2017-06-02T08:28:41.575Z</time>
      </trkpt>
      <trkpt lat="45.768266" lon="6.057110">
        <ele>537.478271</ele>
        <time>2017-06-02T08:28:44.895Z</time>
      </trkpt>
      <trkpt lat="45.768174" lon="6.057200">
        <ele>535.713071</ele>
        <time>2017-06-02T08:28:46.352Z</time>
      </trkpt>
      <trkpt lat="45.767819" lon="6.057200">
        <ele>530.086851</ele>
        <time>2017-06-02T08:28:50.940Z</time>
      </trkpt>
      <trkpt lat="45.766977" lon="6.057430">
        <ele>516.502309</ele>
        <time>2017-06-02T08:29:01.964Z</time>
      </trkpt>
      <trkpt lat="45.766845" lon="6.057411">
        <ele>514.399787</ele>
        <time>2017-06-02T08:29:03.668Z</time>
      </trkpt>
      <trkpt lat="45.766418" lon="6.057166">
        <ele>508.541010</ele>
        <time>2017-06-02T08:29:09.567Z</time>
      </trkpt>
      <trkpt lat="45.765988" lon="6.057149">
        <ele>503.843082</ele>
        <time>2017-06-02T08:29:15.117Z</time>
      </trkpt>
      <trkpt lat="45.765705" lon="6.057050">
        <ele>500.661666</ele>
        <time>2017-06-02T08:29:18.916Z</time>
      </trkpt>
      <trkpt lat="45.765204" lon="6.057061">
        <ele>495.189472</ele>
        <time>2017-06-02T08:29:25.663Z</time>
      </trkpt>
      <trkpt lat="45.764733" lon="6.057340">
        <ele>495.648239</ele>
        <time>2017-06-02T08:29:35.057Z</time>
      </trkpt>
      <trkpt lat="45.764717" lon="6.057332">
        <ele>495.919267</ele>
        <time>2017-06-02T08:29:35.595Z</time>
      </trkpt>
      <trkpt lat="45.764703" lon="6.057323">
        <ele>496.164672</ele>
        <time>2017-06-02T08:29:35.899Z</time>
      </trkpt>
      <trkpt lat="45.764671" lon="6.057287">
        <ele>496.815285</ele>
        <time>2017-06-02T08:29:37.575Z</time>
      </trkpt>
      <trkpt lat="45.764663" lon="6.057272">
        <ele>497.025958</ele>
        <time>2017-06-02T08:29:37.862Z</time>
      </trkpt>
      <trkpt lat="45.764352" lon="6.056559">
        <ele>506.408474</ele>
        <time>2017-06-02T08:30:20.256Z</time>
      </trkpt>
      <trkpt lat="45.764335" lon="6.056519">
        <ele>506.931085</ele>
        <time>2017-06-02T08:30:23.520Z</time>
      </trkpt>
      <trkpt lat="45.764246" lon="6.056308">
        <ele>509.682258</ele>
        <time>2017-06-02T08:30:41.252Z</time>
      </trkpt>
      <trkpt lat="45.763922" lon="6.055566">
        <ele>519.449419</ele>
        <time>2017-06-02T08:31:51.164Z</time>
      </trkpt>
      <trkpt lat="45.763900" lon="6.055516">
        <ele>520.109007</ele>
        <time>2017-06-02T08:31:55.873Z</time>
      </trkpt>
      <trkpt lat="45.763873" lon="6.055454">
        <ele>520.988792</ele>
        <time>2017-06-02T08:32:01.671Z</time>
      </trkpt>
      <trkpt lat="45.763843" lon="6.055385">
        <ele>522.555203</ele>
        <time>2017-06-02T08:32:08.143Z</time>
      </trkpt>
      <trkpt lat="45.763722" lon="6.055120">
        <ele>528.657108</ele>
        <time>2017-06-02T08:32:33.742Z</time>
      </trkpt>
      <trkpt lat="45.763690" lon="6.055051">
        <ele>530.253424</ele>
        <time>2017-06-02T08:32:40.312Z</time>
      </trkpt>
      <trkpt lat="45.763416" lon="6.054470">
        <ele>543.764882</ele>
        <time>2017-06-02T08:33:36.875Z</time>
      </trkpt>
      <trkpt lat="45.763394" lon="6.054417">
        <ele>544.953083</ele>
        <time>2017-06-02T08:33:42.229Z</time>
      </trkpt>
      <trkpt lat="45.763321" lon="6.054187">
        <ele>549.821395</ele>
        <time>2017-06-02T08:34:02.472Z</time>
      </trkpt>
      <trkpt lat="45.763318" lon="6.054004">
        <ele>553.348108</ele>
        <time>2017-06-02T08:34:17.076Z</time>
      </trkpt>
      <trkpt lat="45.763467" lon="6.052831">
        <ele>572.867849</ele>
        <time>2017-06-02T08:35:51.935Z</time>
      </trkpt>
      <trkpt lat="45.763552" lon="6.052584">
        <ele>575.021974</ele>
        <time>2017-06-02T08:36:06.438Z</time>
      </trkpt>
      <trkpt lat="45.763866" lon="6.052327">
        <ele>579.075795</ele>
        <time>2017-06-02T08:36:31.698Z</time>
      </trkpt>
      <trkpt lat="45.763951" lon="6.052170">
        <ele>580.630138</ele>
        <time>2017-06-02T08:36:38.723Z</time>
      </trkpt>
      <trkpt lat="45.763980" lon="6.051956">
        <ele>582.335173</ele>
        <time>2017-06-02T08:36:46.335Z</time>
      </trkpt>
      <trkpt lat="45.763880" lon="6.051371">
        <ele>587.045965</ele>
        <time>2017-06-02T08:37:06.103Z</time>
      </trkpt>
      <trkpt lat="45.763907" lon="6.050961">
        <ele>590.266939</ele>
        <time>2017-06-02T08:37:18.237Z</time>
      </trkpt>
      <trkpt lat="45.764147" lon="6.050493">
        <ele>592.536006</ele>
        <time>2017-06-02T08:37:36.404Z</time>
      </trkpt>
      <trkpt lat="45.764428" lon="6.050351">
        <ele>594.039612</ele>
        <time>2017-06-02T08:37:48.777Z</time>
      </trkpt>
      <trkpt lat="45.764546" lon="6.050132">
        <ele>595.013793</ele>
        <time>2017-06-02T08:37:56.860Z</time>
      </trkpt>
      <trkpt lat="45.764538" lon="6.049902">
        <ele>595.824511</ele>
        <time>2017-06-02T08:38:03.184Z</time>
      </trkpt>
      <trkpt lat="45.764398" lon="6.049395">
        <ele>597.744144</ele>
        <time>2017-06-02T08:38:18.775Z</time>
      </trkpt>
      <trkpt lat="45.764363" lon="6.049265">
        <ele>598.234710</ele>
        <time>2017-06-02T08:38:22.910Z</time>
      </trkpt>
      <trkpt lat="45.764293" lon="6.049046">
        <ele>599.082775</ele>
        <time>2017-06-02T08:38:30.328Z</time>
      </trkpt>
      <trkpt lat="45.764197" lon="6.048636">
        <ele>600.652725</ele>
        <time>2017-06-02T08:38:42.913Z</time>
      </trkpt>
      <trkpt lat="45.764352" lon="6.047775">
        <ele>603.957002</ele>
        <time>2017-06-02T08:39:10.897Z</time>
      </trkpt>
      <trkpt lat="45.764357" lon="6.047432">
        <ele>605.231861</ele>
        <time>2017-06-02T08:39:22.124Z</time>
      </trkpt>
      <trkpt lat="45.764152" lon="6.046008">
        <ele>609.611602</ele>
        <time>2017-06-02T08:40:06.409Z</time>
      </trkpt>
      <trkpt lat="45.764132" lon="6.045827">
        <ele>609.757575</ele>
        <time>2017-06-02T08:40:11.163Z</time>
      </trkpt>
      <trkpt lat="45.764176" lon="6.045624">
        <ele>609.926901</ele>
        <time>2017-06-02T08:40:16.781Z</time>
      </trkpt>
      <trkpt lat="45.764186" lon="6.045479">
        <ele>610.042965</ele>
        <time>2017-06-02T08:40:19.503Z</time>
      </trkpt>
      <trkpt lat="45.764030" lon="6.045241">
        <ele>610.303098</ele>
        <time>2017-06-02T08:40:25.959Z</time>
      </trkpt>
      <trkpt lat="45.763995" lon="6.045219">
        <ele>610.346735</ele>
        <time>2017-06-02T08:40:27.894Z</time>
      </trkpt>
      <trkpt lat="45.764038" lon="6.044891">
        <ele>610.612579</ele>
        <time>2017-06-02T08:40:32.763Z</time>
      </trkpt>
      <trkpt lat="45.764183" lon="6.044161">
        <ele>611.217176</ele>
        <time>2017-06-02T08:40:43.641Z</time>
      </trkpt>
      <trkpt lat="45.764351" lon="6.043537">
        <ele>609.496934</ele>
        <time>2017-06-02T08:40:51.553Z</time>
      </trkpt>
      <trkpt lat="45.764564" lon="6.042813">
        <ele>606.246905</ele>
        <time>2017-06-02T08:40:59.661Z</time>
      </trkpt>
      <trkpt lat="45.764832" lon="6.042016">
        <ele>602.587369</ele>
        <time>2017-06-02T08:41:08.348Z</time>
      </trkpt>
      <trkpt lat="45.764963" lon="6.041354">
        <ele>599.529210</ele>
        <time>2017-06-02T08:41:15.039Z</time>
      </trkpt>
      <trkpt lat="45.765001" lon="6.041161">
        <ele>598.520432</ele>
        <time>2017-06-02T08:41:17.016Z</time>
      </trkpt>
      <trkpt lat="45.765017" lon="6.041081">
        <ele>598.101795</ele>
        <time>2017-06-02T08:41:17.845Z</time>
      </trkpt>
      <trkpt lat="45.765117" lon="6.040593">
        <ele>595.543289</ele>
        <time>2017-06-02T08:41:22.900Z</time>
      </trkpt>
      <trkpt lat="45.765136" lon="6.040469">
        <ele>594.904663</ele>
        <time>2017-06-02T08:41:24.102Z</time>
      </trkpt>
      <trkpt lat="45.765284" lon="6.039610">
        <ele>590.453803</ele>
        <time>2017-06-02T08:41:33.054Z</time>
      </trkpt>
      <trkpt lat="45.765297" lon="6.039526">
        <ele>590.020986</ele>
        <time>2017-06-02T08:41:33.857Z</time>
      </trkpt>
      <trkpt lat="45.765322" lon="6.039366">
        <ele>589.196199</ele>
        <time>2017-06-02T08:41:35.515Z</time>
      </trkpt>
      <trkpt lat="45.765228" lon="6.038512">
        <ele>585.429388</ele>
        <time>2017-06-02T08:41:44.224Z</time>
      </trkpt>
      <trkpt lat="45.765186" lon="6.037898">
        <ele>582.947980</ele>
        <time>2017-06-02T08:41:50.726Z</time>
      </trkpt>
      <trkpt lat="45.765170" lon="6.037095">
        <ele>579.716922</ele>
        <time>2017-06-02T08:41:59.186Z</time>
      </trkpt>
      <trkpt lat="45.765093" lon="6.036076">
        <ele>574.920890</ele>
        <time>2017-06-02T08:42:09.763Z</time>
      </trkpt>
      <trkpt lat="45.764944" lon="6.035147">
        <ele>569.642018</ele>
        <time>2017-06-02T08:42:19.175Z</time>
      </trkpt>
      <trkpt lat="45.764916" lon="6.034276">
        <ele>564.813435</ele>
        <time>2017-06-02T08:42:27.622Z</time>
      </trkpt>
      <trkpt lat="45.764888" lon="6.033573">
        <ele>560.526925</ele>
        <time>2017-06-02T08:42:34.254Z</time>
      </trkpt>
      <trkpt lat="45.764876" lon="6.033172">
        <ele>557.911254</ele>
        <time>2017-06-02T08:42:38.040Z</time>
      </trkpt>
      <trkpt lat="45.764868" lon="6.032735">
        <ele>555.062398</ele>
        <time>2017-06-02T08:42:42.174Z</time>
      </trkpt>
      <trkpt lat="45.764863" lon="6.032531">
        <ele>553.732135</ele>
        <time>2017-06-02T08:42:44.042Z</time>
      </trkpt>
      <trkpt lat="45.764848" lon="6.032022">
        <ele>550.412085</ele>
        <time>2017-06-02T08:42:48.882Z</time>
      </trkpt>
      <trkpt lat="45.764838" lon="6.031724">
        <ele>548.467809</ele>
        <time>2017-06-02T08:42:51.858Z</time>
      </trkpt>
      <trkpt lat="45.764807" lon="6.031476">
        <ele>546.825881</ele>
        <time>2017-06-02T08:42:54.254Z</time>
      </trkpt>
      <trkpt lat="45.764855" lon="6.030934">
        <ele>545.879336</ele>
        <time>2017-06-02T08:42:59.861Z</time>
      </trkpt>
      <trkpt lat="45.764930" lon="6.030697">
        <ele>545.643826</ele>
        <time>2017-06-02T08:43:03.089Z</time>
      </trkpt>
      <trkpt lat="45.764991" lon="6.030514">
        <ele>545.460286</ele>
        <time>2017-06-02T08:43:05.241Z</time>
      </trkpt>
      <trkpt lat="45.765024" lon="6.030418">
        <ele>545.363436</ele>
        <time>2017-06-02T08:43:06.555Z</time>
      </trkpt>
      <trkpt lat="45.765031" lon="6.030341">
        <ele>545.293165</ele>
        <time>2017-06-02T08:43:07.723Z</time>
      </trkpt>
      <trkpt lat="45.765030" lon="6.030263">
        <ele>545.222567</ele>
        <time>2017-06-02T08:43:08.888Z</time>
      </trkpt>
      <trkpt lat="45.765013" lon="6.030136">
        <ele>545.105542</ele>
        <time>2017-06-02T08:43:10.501Z</time>
      </trkpt>
      <trkpt lat="45.764994" lon="6.030053">
        <ele>545.026490</ele>
        <time>2017-06-02T08:43:11.666Z</time>
      </trkpt>
      <trkpt lat="45.764951" lon="6.029948">
        <ele>544.916307</ele>
        <time>2017-06-02T08:43:13.222Z</time>
      </trkpt>
      <trkpt lat="45.764872" lon="6.029825">
        <ele>544.765006</ele>
        <time>2017-06-02T08:43:16.397Z</time>
      </trkpt>
      <trkpt lat="45.764859" lon="6.029808">
        <ele>544.742179</ele>
        <time>2017-06-02T08:43:17.111Z</time>
      </trkpt>
      <trkpt lat="45.764711" lon="6.029614">
        <ele>544.482022</ele>
        <time>2017-06-02T08:43:21.371Z</time>
      </trkpt>
      <trkpt lat="45.764671" lon="6.029563">
        <ele>544.412577</ele>
        <time>2017-06-02T08:43:23.273Z</time>
      </trkpt>
      <trkpt lat="45.764274" lon="6.029057">
        <ele>544.797364</ele>
        <time>2017-06-02T08:43:42.953Z</time>
      </trkpt>
      <trkpt lat="45.764206" lon="6.028970">
        <ele>545.199196</ele>
        <time>2017-06-02T08:43:46.496Z</time>
      </trkpt>
      <trkpt lat="45.763581" lon="6.028172">
        <ele>548.889179</ele>
        <time>2017-06-02T08:44:22.922Z</time>
      </trkpt>
      <trkpt lat="45.763525" lon="6.028095">
        <ele>549.231285</ele>
        <time>2017-06-02T08:44:26.282Z</time>
      </trkpt>
      <trkpt lat="45.763412" lon="6.027941">
        <ele>549.918686</ele>
        <time>2017-06-02T08:44:33.364Z</time>
      </trkpt>
      <trkpt lat="45.763343" lon="6.027846">
        <ele>550.340477</ele>
        <time>2017-06-02T08:44:37.179Z</time>
      </trkpt>
      <trkpt lat="45.763056" lon="6.027402">
        <ele>552.026201</ele>
        <time>2017-06-02T08:44:53.604Z</time>
      </trkpt>
      <trkpt lat="45.762844" lon="6.027036">
        <ele>552.645071</ele>
        <time>2017-06-02T08:45:04.843Z</time>
      </trkpt>
      <trkpt lat="45.762726" lon="6.026805">
        <ele>553.017535</ele>
        <time>2017-06-02T08:45:11.488Z</time>
      </trkpt>
      <trkpt lat="45.762593" lon="6.026515">
        <ele>553.469029</ele>
        <time>2017-06-02T08:45:19.498Z</time>
      </trkpt>
      <trkpt lat="45.762218" lon="6.025669">
        <ele>554.772997</ele>
        <time>2017-06-02T08:45:38.589Z</time>
      </trkpt>
      <trkpt lat="45.762005" lon="6.024839">
        <ele>554.439687</ele>
        <time>2017-06-02T08:45:51.673Z</time>
      </trkpt>
      <trkpt lat="45.761998" lon="6.024652">
        <ele>554.145516</ele>
        <time>2017-06-02T08:45:54.352Z</time>
      </trkpt>
      <trkpt lat="45.761997" lon="6.024455">
        <ele>553.836051</ele>
        <time>2017-06-02T08:45:56.689Z</time>
      </trkpt>
      <trkpt lat="45.762005" lon="6.024158">
        <ele>553.369162</ele>
        <time>2017-06-02T08:46:00.430Z</time>
      </trkpt>
      <trkpt lat="45.762015" lon="6.023859">
        <ele>552.898939</ele>
        <time>2017-06-02T08:46:03.917Z</time>
      </trkpt>
      <trkpt lat="45.762020" lon="6.023755">
        <ele>552.735184</ele>
        <time>2017-06-02T08:46:05.040Z</time>
      </trkpt>
      <trkpt lat="45.762050" lon="6.023009">
        <ele>551.561387</ele>
        <time>2017-06-02T08:46:13.597Z</time>
      </trkpt>
      <trkpt lat="45.762046" lon="6.022842">
        <ele>551.298902</ele>
        <time>2017-06-02T08:46:15.347Z</time>
      </trkpt>
      <trkpt lat="45.762013" lon="6.022566">
        <ele>550.603256</ele>
        <time>2017-06-02T08:46:18.451Z</time>
      </trkpt>
      <trkpt lat="45.762009" lon="6.022428">
        <ele>550.224210</ele>
        <time>2017-06-02T08:46:19.891Z</time>
      </trkpt>
      <trkpt lat="45.761916" lon="6.021924">
        <ele>548.793499</ele>
        <time>2017-06-02T08:46:25.427Z</time>
      </trkpt>
      <trkpt lat="45.761862" lon="6.021772">
        <ele>548.325387</ele>
        <time>2017-06-02T08:46:27.173Z</time>
      </trkpt>
      <trkpt lat="45.761739" lon="6.021265">
        <ele>546.852273</ele>
        <time>2017-06-02T08:46:32.960Z</time>
      </trkpt>
      <trkpt lat="45.761654" lon="6.020917">
        <ele>545.840397</ele>
        <time>2017-06-02T08:46:36.982Z</time>
      </trkpt>
      <trkpt lat="45.761492" lon="6.020253">
        <ele>544.033750</ele>
        <time>2017-06-02T08:46:44.869Z</time>
      </trkpt>
      <trkpt lat="45.760808" lon="6.017415">
        <ele>540.929726</ele>
        <time>2017-06-02T08:47:23.611Z</time>
      </trkpt>
      <trkpt lat="45.760180" lon="6.014777">
        <ele>540.150854</ele>
        <time>2017-06-02T08:48:05.172Z</time>
      </trkpt>
      <trkpt lat="45.759873" lon="6.013663">
        <ele>540.058001</ele>
        <time>2017-06-02T08:48:23.563Z</time>
      </trkpt>
      <trkpt lat="45.759561" lon="6.012506">
        <ele>540.004835</ele>
        <time>2017-06-02T08:48:42.748Z</time>
      </trkpt>
      <trkpt lat="45.759299" lon="6.011579">
        <ele>540.002412</ele>
        <time>2017-06-02T08:48:58.271Z</time>
      </trkpt>
      <trkpt lat="45.759132" lon="6.011061">
        <ele>540.001029</ele>
        <time>2017-06-02T08:49:07.108Z</time>
      </trkpt>
      <trkpt lat="45.758290" lon="6.008420">
        <ele>539.999976</ele>
        <time>2017-06-02T08:49:52.186Z</time>
      </trkpt>
      <trkpt lat="45.758114" lon="6.007869">
        <ele>539.999778</ele>
        <time>2017-06-02T08:50:01.597Z</time>
      </trkpt>
      <trkpt lat="45.757537" lon="6.006064">
        <ele>539.998990</ele>
        <time>2017-06-02T08:50:32.431Z</time>
      </trkpt>
      <trkpt lat="45.757272" lon="6.005257">
        <ele>539.721984</ele>
        <time>2017-06-02T08:50:46.262Z</time>
      </trkpt>
      <trkpt lat="45.757160" lon="6.005002">
        <ele>539.617175</ele>
        <time>2017-06-02T08:50:50.956Z</time>
      </trkpt>
      <trkpt lat="45.756873" lon="6.004443">
        <ele>539.375764</ele>
        <time>2017-06-02T08:51:01.303Z</time>
      </trkpt>
      <trkpt lat="45.756784" lon="6.004290">
        <ele>539.306475</ele>
        <time>2017-06-02T08:51:04.129Z</time>
      </trkpt>
      <trkpt lat="45.756445" lon="6.003875">
        <ele>539.002967</ele>
        <time>2017-06-02T08:51:12.587Z</time>
      </trkpt>
      <trkpt lat="45.755919" lon="6.003307">
        <ele>537.195848</ele>
        <time>2017-06-02T08:51:24.178Z</time>
      </trkpt>
      <trkpt lat="45.753518" lon="6.000741">
        <ele>527.847170</ele>
        <time>2017-06-02T08:52:12.290Z</time>
      </trkpt>
      <trkpt lat="45.753439" lon="6.000657">
        <ele>527.562001</ele>
        <time>2017-06-02T08:52:14.109Z</time>
      </trkpt>
      <trkpt lat="45.753159" lon="6.000297">
        <ele>526.471509</ele>
        <time>2017-06-02T08:52:20.473Z</time>
      </trkpt>
      <trkpt lat="45.751660" lon="5.998353">
        <ele>520.194630</ele>
        <time>2017-06-02T08:52:53.943Z</time>
      </trkpt>
      <trkpt lat="45.751546" lon="5.998185">
        <ele>519.634452</ele>
        <time>2017-06-02T08:52:56.528Z</time>
      </trkpt>
      <trkpt lat="45.751418" lon="5.997997">
        <ele>519.006562</ele>
        <time>2017-06-02T08:52:59.435Z</time>
      </trkpt>
      <trkpt lat="45.751179" lon="5.997366">
        <ele>517.290300</ele>
        <time>2017-06-02T08:53:07.380Z</time>
      </trkpt>
      <trkpt lat="45.750992" lon="5.995600">
        <ele>512.635623</ele>
        <time>2017-06-02T08:53:26.991Z</time>
      </trkpt>
      <trkpt lat="45.750725" lon="5.994698">
        <ele>510.051078</ele>
        <time>2017-06-02T08:53:37.882Z</time>
      </trkpt>
      <trkpt lat="45.750365" lon="5.993759">
        <ele>507.776163</ele>
        <time>2017-06-02T08:53:49.909Z</time>
      </trkpt>
      <trkpt lat="45.750245" lon="5.993453">
        <ele>507.038245</ele>
        <time>2017-06-02T08:53:53.901Z</time>
      </trkpt>
      <trkpt lat="45.750112" lon="5.993108">
        <ele>506.209641</ele>
        <time>2017-06-02T08:53:58.513Z</time>
      </trkpt>
      <trkpt lat="45.750090" lon="5.993050">
        <ele>506.070860</ele>
        <time>2017-06-02T08:53:59.243Z</time>
      </trkpt>
      <trkpt lat="45.749888" lon="5.992649">
        <ele>505.031137</ele>
        <time>2017-06-02T08:54:05.092Z</time>
      </trkpt>
      <trkpt lat="45.749799" lon="5.992502">
        <ele>504.621995</ele>
        <time>2017-06-02T08:54:07.384Z</time>
      </trkpt>
      <trkpt lat="45.749763" lon="5.992399">
        <ele>504.378469</ele>
        <time>2017-06-02T08:54:08.770Z</time>
      </trkpt>
      <trkpt lat="45.749437" lon="5.991905">
        <ele>502.935438</ele>
        <time>2017-06-02T08:54:17.247Z</time>
      </trkpt>
      <trkpt lat="45.749369" lon="5.991848">
        <ele>502.695835</ele>
        <time>2017-06-02T08:54:18.478Z</time>
      </trkpt>
      <trkpt lat="45.749227" lon="5.991626">
        <ele>502.056676</ele>
        <time>2017-06-02T08:54:22.175Z</time>
      </trkpt>
      <trkpt lat="45.748947" lon="5.991201">
        <ele>500.816169</ele>
        <time>2017-06-02T08:54:28.968Z</time>
      </trkpt>
      <trkpt lat="45.748691" lon="5.990801">
        <ele>499.664230</ele>
        <time>2017-06-02T08:54:35.012Z</time>
      </trkpt>
      <trkpt lat="45.748608" lon="5.990654">
        <ele>499.262901</ele>
        <time>2017-06-02T08:54:37.064Z</time>
      </trkpt>
      <trkpt lat="45.748504" lon="5.990400">
        <ele>498.228347</ele>
        <time>2017-06-02T08:54:40.256Z</time>
      </trkpt>
      <trkpt lat="45.748462" lon="5.990289">
        <ele>497.694377</ele>
        <time>2017-06-02T08:54:41.579Z</time>
      </trkpt>
      <trkpt lat="45.748391" lon="5.989871">
        <ele>495.875099</ele>
        <time>2017-06-02T08:54:46.142Z</time>
      </trkpt>
      <trkpt lat="45.748340" lon="5.989553">
        <ele>494.495259</ele>
        <time>2017-06-02T08:54:49.489Z</time>
      </trkpt>
      <trkpt lat="45.748316" lon="5.989425">
        <ele>493.934764</ele>
        <time>2017-06-02T08:54:50.862Z</time>
      </trkpt>
      <trkpt lat="45.748276" lon="5.989217">
        <ele>493.022368</ele>
        <time>2017-06-02T08:54:53.036Z</time>
      </trkpt>
      <trkpt lat="45.748247" lon="5.989079">
        <ele>492.412895</ele>
        <time>2017-06-02T08:54:54.508Z</time>
      </trkpt>
      <trkpt lat="45.748169" lon="5.988695">
        <ele>490.721606</ele>
        <time>2017-06-02T08:54:58.489Z</time>
      </trkpt>
      <trkpt lat="45.748136" lon="5.988579">
        <ele>490.191857</ele>
        <time>2017-06-02T08:54:59.731Z</time>
      </trkpt>
      <trkpt lat="45.748046" lon="5.988335">
        <ele>489.024727</ele>
        <time>2017-06-02T08:55:02.462Z</time>
      </trkpt>
      <trkpt lat="45.747982" lon="5.988105">
        <ele>487.931679</ele>
        <time>2017-06-02T08:55:04.886Z</time>
      </trkpt>
      <trkpt lat="45.747920" lon="5.987922">
        <ele>486.842712</ele>
        <time>2017-06-02T08:55:06.896Z</time>
      </trkpt>
      <trkpt lat="45.747860" lon="5.987835">
        <ele>486.187927</ele>
        <time>2017-06-02T08:55:08.090Z</time>
      </trkpt>
      <trkpt lat="45.747645" lon="5.987597">
        <ele>484.103851</ele>
        <time>2017-06-02T08:55:11.964Z</time>
      </trkpt>
      <trkpt lat="45.747507" lon="5.987366">
        <ele>482.476035</ele>
        <time>2017-06-02T08:55:14.939Z</time>
      </trkpt>
      <trkpt lat="45.747433" lon="5.987236">
        <ele>481.577964</ele>
        <time>2017-06-02T08:55:16.678Z</time>
      </trkpt>
      <trkpt lat="45.747077" lon="5.986593">
        <ele>477.184118</ele>
        <time>2017-06-02T08:55:24.648Z</time>
      </trkpt>
      <trkpt lat="45.746545" lon="5.985605">
        <ele>471.049387</ele>
        <time>2017-06-02T08:55:37.004Z</time>
      </trkpt>
      <trkpt lat="45.746478" lon="5.985456">
        <ele>470.235036</ele>
        <time>2017-06-02T08:55:38.727Z</time>
      </trkpt>
      <trkpt lat="45.746408" lon="5.985264">
        <ele>469.239808</ele>
        <time>2017-06-02T08:55:40.871Z</time>
      </trkpt>
      <trkpt lat="45.746345" lon="5.985019">
        <ele>468.040229</ele>
        <time>2017-06-02T08:55:43.541Z</time>
      </trkpt>
      <trkpt lat="45.746310" lon="5.984806">
        <ele>467.034888</ele>
        <time>2017-06-02T08:55:45.722Z</time>
      </trkpt>
      <trkpt lat="45.746174" lon="5.983943">
        <ele>462.970192</ele>
        <time>2017-06-02T08:55:54.845Z</time>
      </trkpt>
      <trkpt lat="45.746010" lon="5.983396">
        <ele>461.448698</ele>
        <time>2017-06-02T08:56:00.987Z</time>
      </trkpt>
      <trkpt lat="45.745496" lon="5.982290">
        <ele>458.599078</ele>
        <time>2017-06-02T08:56:16.035Z</time>
      </trkpt>
      <trkpt lat="45.745364" lon="5.981928">
        <ele>457.723181</ele>
        <time>2017-06-02T08:56:21.146Z</time>
      </trkpt>
      <trkpt lat="45.745216" lon="5.981495">
        <ele>456.925874</ele>
        <time>2017-06-02T08:56:27.598Z</time>
      </trkpt>
      <trkpt lat="45.744798" lon="5.980257">
        <ele>456.345370</ele>
        <time>2017-06-02T08:56:51.684Z</time>
      </trkpt>
      <trkpt lat="45.744684" lon="5.980010">
        <ele>456.220373</ele>
        <time>2017-06-02T08:56:56.232Z</time>
      </trkpt>
      <trkpt lat="45.744465" lon="5.979847">
        <ele>456.071108</ele>
        <time>2017-06-02T08:57:01.500Z</time>
      </trkpt>
      <trkpt lat="45.744359" lon="5.979809">
        <ele>456.005018</ele>
        <time>2017-06-02T08:57:03.354Z</time>
      </trkpt>
      <trkpt lat="45.744219" lon="5.979747">
        <ele>455.916387</ele>
        <time>2017-06-02T08:57:06.056Z</time>
      </trkpt>
      <trkpt lat="45.744052" lon="5.979671">
        <ele>455.065671</ele>
        <time>2017-06-02T08:57:08.955Z</time>
      </trkpt>
      <trkpt lat="45.743997" lon="5.979544">
        <ele>454.453400</ele>
        <time>2017-06-02T08:57:10.609Z</time>
      </trkpt>
      <trkpt lat="45.743948" lon="5.979085">
        <ele>452.551292</ele>
        <time>2017-06-02T08:57:15.787Z</time>
      </trkpt>
      <trkpt lat="45.743908" lon="5.978278">
        <ele>449.237189</ele>
        <time>2017-06-02T08:57:24.232Z</time>
      </trkpt>
      <trkpt lat="45.743894" lon="5.977983">
        <ele>448.025966</ele>
        <time>2017-06-02T08:57:27.143Z</time>
      </trkpt>
      <trkpt lat="45.743822" lon="5.977607">
        <ele>446.428796</ele>
        <time>2017-06-02T08:57:30.942Z</time>
      </trkpt>
      <trkpt lat="45.743612" lon="5.977154">
        <ele>443.523218</ele>
        <time>2017-06-02T08:57:36.103Z</time>
      </trkpt>
      <trkpt lat="45.743022" lon="5.976486">
        <ele>436.478532</ele>
        <time>2017-06-02T08:57:46.208Z</time>
      </trkpt>
      <trkpt lat="45.742811" lon="5.975856">
        <ele>431.909717</ele>
        <time>2017-06-02T08:57:52.912Z</time>
      </trkpt>
      <trkpt lat="45.742731" lon="5.975732">
        <ele>430.805625</ele>
        <time>2017-06-02T08:57:54.544Z</time>
      </trkpt>
      <trkpt lat="45.742411" lon="5.975474">
        <ele>427.856445</ele>
        <time>2017-06-02T08:57:59.685Z</time>
      </trkpt>
      <trkpt lat="45.742183" lon="5.975198">
        <ele>426.283557</ele>
        <time>2017-06-02T08:58:03.956Z</time>
      </trkpt>
      <trkpt lat="45.741657" lon="5.973903">
        <ele>420.772948</ele>
        <time>2017-06-02T08:58:19.692Z</time>
      </trkpt>
      <trkpt lat="45.741438" lon="5.973358">
        <ele>418.789153</ele>
        <time>2017-06-02T08:58:27.016Z</time>
      </trkpt>
      <trkpt lat="45.741333" lon="5.973093">
        <ele>418.340431</ele>
        <time>2017-06-02T08:58:30.580Z</time>
      </trkpt>
      <trkpt lat="45.741254" lon="5.972902">
        <ele>418.013496</ele>
        <time>2017-06-02T08:58:33.489Z</time>
      </trkpt>
      <trkpt lat="45.740922" lon="5.972199">
        <ele>416.763571</ele>
        <time>2017-06-02T08:58:44.107Z</time>
      </trkpt>
      <trkpt lat="45.740634" lon="5.971417">
        <ele>415.461549</ele>
        <time>2017-06-02T08:58:55.178Z</time>
      </trkpt>
      <trkpt lat="45.740622" lon="5.971134">
        <ele>414.985307</ele>
        <time>2017-06-02T08:58:58.679Z</time>
      </trkpt>
      <trkpt lat="45.740681" lon="5.970871">
        <ele>414.437803</ele>
        <time>2017-06-02T08:59:02.082Z</time>
      </trkpt>
      <trkpt lat="45.740745" lon="5.970632">
        <ele>413.930460</ele>
        <time>2017-06-02T08:59:05.193Z</time>
      </trkpt>
      <trkpt lat="45.740787" lon="5.970474">
        <ele>413.595375</ele>
        <time>2017-06-02T08:59:07.138Z</time>
      </trkpt>
      <trkpt lat="45.740784" lon="5.970313">
        <ele>413.276177</ele>
        <time>2017-06-02T08:59:09.202Z</time>
      </trkpt>
      <trkpt lat="45.740665" lon="5.970116">
        <ele>412.759809</ele>
        <time>2017-06-02T08:59:12.199Z</time>
      </trkpt>
      <trkpt lat="45.740489" lon="5.969937">
        <ele>412.146903</ele>
        <time>2017-06-02T08:59:15.883Z</time>
      </trkpt>
      <trkpt lat="45.740331" lon="5.969748">
        <ele>411.562414</ele>
        <time>2017-06-02T08:59:19.139Z</time>
      </trkpt>
      <trkpt lat="45.739943" lon="5.969151">
        <ele>409.875742</ele>
        <time>2017-06-02T08:59:28.315Z</time>
      </trkpt>
      <trkpt lat="45.739078" lon="5.968765">
        <ele>406.182873</ele>
        <time>2017-06-02T08:59:42.404Z</time>
      </trkpt>
      <trkpt lat="45.738514" lon="5.968670">
        <ele>403.868119</ele>
        <time>2017-06-02T08:59:51.396Z</time>
      </trkpt>
      <trkpt lat="45.738333" lon="5.968501">
        <ele>402.987516</ele>
        <time>2017-06-02T08:59:54.733Z</time>
      </trkpt>
      <trkpt lat="45.737800" lon="5.967748">
        <ele>399.613282</ele>
        <time>2017-06-02T09:00:06.192Z</time>
      </trkpt>
      <trkpt lat="45.737598" lon="5.967676">
        <ele>398.668205</ele>
        <time>2017-06-02T09:00:09.368Z</time>
      </trkpt>
      <trkpt lat="45.737141" lon="5.967784">
        <ele>396.565292</ele>
        <time>2017-06-02T09:00:16.458Z</time>
      </trkpt>
      <trkpt lat="45.736922" lon="5.967640">
        <ele>395.471276</ele>
        <time>2017-06-02T09:00:20.158Z</time>
      </trkpt>
      <trkpt lat="45.736617" lon="5.967187">
        <ele>393.672209</ele>
        <time>2017-06-02T09:00:26.908Z</time>
      </trkpt>
      <trkpt lat="45.736070" lon="5.966527">
        <ele>390.986183</ele>
        <time>2017-06-02T09:00:37.895Z</time>
      </trkpt>
      <trkpt lat="45.735836" lon="5.966050">
        <ele>389.457727</ele>
        <time>2017-06-02T09:00:44.484Z</time>
      </trkpt>
      <trkpt lat="45.735659" lon="5.965871">
        <ele>388.643983</ele>
        <time>2017-06-02T09:00:47.938Z</time>
      </trkpt>
      <trkpt lat="45.735479" lon="5.965786">
        <ele>387.932128</ele>
        <time>2017-06-02T09:00:51.384Z</time>
      </trkpt>
      <trkpt lat="45.735311" lon="5.965739">
        <ele>387.583273</ele>
        <time>2017-06-02T09:00:54.137Z</time>
      </trkpt>
      <trkpt lat="45.735203" lon="5.965681">
        <ele>387.376113</ele>
        <time>2017-06-02T09:00:56.414Z</time>
      </trkpt>
      <trkpt lat="45.734674" lon="5.965105">
        <ele>386.182709</ele>
        <time>2017-06-02T09:01:08.157Z</time>
      </trkpt>
      <trkpt lat="45.733925" lon="5.964125">
        <ele>384.263133</ele>
        <time>2017-06-02T09:01:27.270Z</time>
      </trkpt>
      <trkpt lat="45.733671" lon="5.963451">
        <ele>382.943935</ele>
        <time>2017-06-02T09:01:36.743Z</time>
      </trkpt>
      <trkpt lat="45.733546" lon="5.962647">
        <ele>381.525288</ele>
        <time>2017-06-02T09:01:46.210Z</time>
      </trkpt>
      <trkpt lat="45.733430" lon="5.962242">
        <ele>380.771322</ele>
        <time>2017-06-02T09:01:51.234Z</time>
      </trkpt>
      <trkpt lat="45.733252" lon="5.961896">
        <ele>380.029241</ele>
        <time>2017-06-02T09:01:56.190Z</time>
      </trkpt>
      <trkpt lat="45.733210" lon="5.961815">
        <ele>379.853411</ele>
        <time>2017-06-02T09:01:57.334Z</time>
      </trkpt>
      <trkpt lat="45.733168" lon="5.961726">
        <ele>379.666205</ele>
        <time>2017-06-02T09:01:58.588Z</time>
      </trkpt>
      <trkpt lat="45.733105" lon="5.961548">
        <ele>379.318435</ele>
        <time>2017-06-02T09:02:00.942Z</time>
      </trkpt>
      <trkpt lat="45.733075" lon="5.961361">
        <ele>378.984081</ele>
        <time>2017-06-02T09:02:03.062Z</time>
      </trkpt>
      <trkpt lat="45.732991" lon="5.960553">
        <ele>377.560567</ele>
        <time>2017-06-02T09:02:12.573Z</time>
      </trkpt>
      <trkpt lat="45.732817" lon="5.959982">
        <ele>376.474878</ele>
        <time>2017-06-02T09:02:19.829Z</time>
      </trkpt>
      <trkpt lat="45.732672" lon="5.959733">
        <ele>375.909808</ele>
        <time>2017-06-02T09:02:23.893Z</time>
      </trkpt>
      <trkpt lat="45.732510" lon="5.959554">
        <ele>375.698611</ele>
        <time>2017-06-02T09:02:27.531Z</time>
      </trkpt>
      <trkpt lat="45.732236" lon="5.959375">
        <ele>375.710835</ele>
        <time>2017-06-02T09:02:33.818Z</time>
      </trkpt>
      <trkpt lat="45.732034" lon="5.959100">
        <ele>375.722146</ele>
        <time>2017-06-02T09:02:39.936Z</time>
      </trkpt>
      <trkpt lat="45.732001" lon="5.958820">
        <ele>375.730191</ele>
        <time>2017-06-02T09:02:44.682Z</time>
      </trkpt>
      <trkpt lat="45.732143" lon="5.957549">
        <ele>375.766660</ele>
        <time>2017-06-02T09:03:07.635Z</time>
      </trkpt>
      <trkpt lat="45.732070" lon="5.957237">
        <ele>375.700473</ele>
        <time>2017-06-02T09:03:13.421Z</time>
      </trkpt>
      <trkpt lat="45.731946" lon="5.956984">
        <ele>375.637004</ele>
        <time>2017-06-02T09:03:18.565Z</time>
      </trkpt>
      <trkpt lat="45.731869" lon="5.956799">
        <ele>375.592782</ele>
        <time>2017-06-02T09:03:22.279Z</time>
      </trkpt>
      <trkpt lat="45.731764" lon="5.956582">
        <ele>375.538573</ele>
        <time>2017-06-02T09:03:26.456Z</time>
      </trkpt>
      <trkpt lat="45.731680" lon="5.956212">
        <ele>375.458691</ele>
        <time>2017-06-02T09:03:32.492Z</time>
      </trkpt>
      <trkpt lat="45.731652" lon="5.955879">
        <ele>375.389829</ele>
        <time>2017-06-02T09:03:37.371Z</time>
      </trkpt>
      <trkpt lat="45.731718" lon="5.955114">
        <ele>375.189162</ele>
        <time>2017-06-02T09:03:47.665Z</time>
      </trkpt>
      <trkpt lat="45.731600" lon="5.953945">
        <ele>373.292597</ele>
        <time>2017-06-02T09:04:01.865Z</time>
      </trkpt>
      <trkpt lat="45.731535" lon="5.953680">
        <ele>372.841585</ele>
        <time>2017-06-02T09:04:05.120Z</time>
      </trkpt>
      <trkpt lat="45.731219" lon="5.953079">
        <ele>371.633423</ele>
        <time>2017-06-02T09:04:13.746Z</time>
      </trkpt>
      <trkpt lat="45.730748" lon="5.951294">
        <ele>368.946942</ele>
        <time>2017-06-02T09:04:36.904Z</time>
      </trkpt>
      <trkpt lat="45.730254" lon="5.950391">
        <ele>367.342438</ele>
        <time>2017-06-02T09:04:51.619Z</time>
      </trkpt>
      <trkpt lat="45.729806" lon="5.950234">
        <ele>366.272510</ele>
        <time>2017-06-02T09:05:00.162Z</time>
      </trkpt>
      <trkpt lat="45.729637" lon="5.950013">
        <ele>365.741682</ele>
        <time>2017-06-02T09:05:04.287Z</time>
      </trkpt>
      <trkpt lat="45.729564" lon="5.949861">
        <ele>365.442912</ele>
        <time>2017-06-02T09:05:06.579Z</time>
      </trkpt>
      <trkpt lat="45.729370" lon="5.948935">
        <ele>363.877315</ele>
        <time>2017-06-02T09:05:17.900Z</time>
      </trkpt>
      <trkpt lat="45.729053" lon="5.948324">
        <ele>362.047524</ele>
        <time>2017-06-02T09:05:26.391Z</time>
      </trkpt>
      <trkpt lat="45.728874" lon="5.948130">
        <ele>361.119451</ele>
        <time>2017-06-02T09:05:29.896Z</time>
      </trkpt>
      <trkpt lat="45.728541" lon="5.947947">
        <ele>359.644736</ele>
        <time>2017-06-02T09:05:35.477Z</time>
      </trkpt>
      <trkpt lat="45.728395" lon="5.947785">
        <ele>358.881152</ele>
        <time>2017-06-02T09:05:38.361Z</time>
      </trkpt>
      <trkpt lat="45.727901" lon="5.946669">
        <ele>355.074497</ele>
        <time>2017-06-02T09:05:52.428Z</time>
      </trkpt>
      <trkpt lat="45.727727" lon="5.946468">
        <ele>354.157963</ele>
        <time>2017-06-02T09:05:55.864Z</time>
      </trkpt>
      <trkpt lat="45.727306" lon="5.946168">
        <ele>352.229926</ele>
        <time>2017-06-02T09:06:03.118Z</time>
      </trkpt>
      <trkpt lat="45.727110" lon="5.945851">
        <ele>351.017818</ele>
        <time>2017-06-02T09:06:07.732Z</time>
      </trkpt>
      <trkpt lat="45.727079" lon="5.945616">
        <ele>350.333256</ele>
        <time>2017-06-02T09:06:10.351Z</time>
      </trkpt>
      <trkpt lat="45.727131" lon="5.944988">
        <ele>348.556087</ele>
        <time>2017-06-02T09:06:17.420Z</time>
      </trkpt>
      <trkpt lat="45.727116" lon="5.944553">
        <ele>347.877275</ele>
        <time>2017-06-02T09:06:22.397Z</time>
      </trkpt>
      <trkpt lat="45.726900" lon="5.943721">
        <ele>346.493756</ele>
        <time>2017-06-02T09:06:32.828Z</time>
      </trkpt>
      <trkpt lat="45.726894" lon="5.943498">
        <ele>346.145932</ele>
        <time>2017-06-02T09:06:35.565Z</time>
      </trkpt>
      <trkpt lat="45.727107" lon="5.942281">
        <ele>344.460525</ele>
        <time>2017-06-02T09:06:51.720Z</time>
      </trkpt>
      <trkpt lat="45.727101" lon="5.942045">
        <ele>344.347824</ele>
        <time>2017-06-02T09:06:54.989Z</time>
      </trkpt>
      <trkpt lat="45.726528" lon="5.939803">
        <ele>342.849668</ele>
        <time>2017-06-02T09:07:29.695Z</time>
      </trkpt>
      <trkpt lat="45.726461" lon="5.939338">
        <ele>342.049391</ele>
        <time>2017-06-02T09:07:35.943Z</time>
      </trkpt>
      <trkpt lat="45.726484" lon="5.939057">
        <ele>341.572522</ele>
        <time>2017-06-02T09:07:39.499Z</time>
      </trkpt>
      <trkpt lat="45.726662" lon="5.938315">
        <ele>340.250100</ele>
        <time>2017-06-02T09:07:48.799Z</time>
      </trkpt>
      <trkpt lat="45.726707" lon="5.937876">
        <ele>339.502234</ele>
        <time>2017-06-02T09:07:53.808Z</time>
      </trkpt>
      <trkpt lat="45.726618" lon="5.937472">
        <ele>338.548042</ele>
        <time>2017-06-02T09:07:58.466Z</time>
      </trkpt>
      <trkpt lat="45.725976" lon="5.935768">
        <ele>331.708115</ele>
        <time>2017-06-02T09:08:18.457Z</time>
      </trkpt>
      <trkpt lat="45.725916" lon="5.934721">
        <ele>329.153254</ele>
        <time>2017-06-02T09:08:29.581Z</time>
      </trkpt>
      <trkpt lat="45.725839" lon="5.934472">
        <ele>328.773882</ele>
        <time>2017-06-02T09:08:32.653Z</time>
      </trkpt>
      <trkpt lat="45.725701" lon="5.934271">
        <ele>328.381160</ele>
        <time>2017-06-02T09:08:36.421Z</time>
      </trkpt>
      <trkpt lat="45.725587" lon="5.934139">
        <ele>328.088652</ele>
        <time>2017-06-02T09:08:38.907Z</time>
      </trkpt>
      <trkpt lat="45.725453" lon="5.933980">
        <ele>327.741437</ele>
        <time>2017-06-02T09:08:42.417Z</time>
      </trkpt>
      <trkpt lat="45.725240" lon="5.933719">
        <ele>327.182108</ele>
        <time>2017-06-02T09:08:48.114Z</time>
      </trkpt>
      <trkpt lat="45.725033" lon="5.933308">
        <ele>326.476116</ele>
        <time>2017-06-02T09:08:56.430Z</time>
      </trkpt>
      <trkpt lat="45.724954" lon="5.933042">
        <ele>326.136576</ele>
        <time>2017-06-02T09:09:01.012Z</time>
      </trkpt>
      <trkpt lat="45.724923" lon="5.932883">
        <ele>325.966268</ele>
        <time>2017-06-02T09:09:02.900Z</time>
      </trkpt>
      <trkpt lat="45.724900" lon="5.932659">
        <ele>325.732696</ele>
        <time>2017-06-02T09:09:07.358Z</time>
      </trkpt>
      <trkpt lat="45.724899" lon="5.932598">
        <ele>325.669748</ele>
        <time>2017-06-02T09:09:08.723Z</time>
      </trkpt>
      <trkpt lat="45.724902" lon="5.932038">
        <ele>325.092015</ele>
        <time>2017-06-02T09:09:16.141Z</time>
      </trkpt>
      <trkpt lat="45.724815" lon="5.931337">
        <ele>324.357498</ele>
        <time>2017-06-02T09:09:25.479Z</time>
      </trkpt>
      <trkpt lat="45.724796" lon="5.931280">
        <ele>324.292335</ele>
        <time>2017-06-02T09:09:26.688Z</time>
      </trkpt>
      <trkpt lat="45.724770" lon="5.931205">
        <ele>324.205947</ele>
        <time>2017-06-02T09:09:27.667Z</time>
      </trkpt>
      <trkpt lat="45.724723" lon="5.931109">
        <ele>324.084983</ele>
        <time>2017-06-02T09:09:29.181Z</time>
      </trkpt>
      <trkpt lat="45.724644" lon="5.930947">
        <ele>323.881120</ele>
        <time>2017-06-02T09:09:31.333Z</time>
      </trkpt>
      <trkpt lat="45.724389" lon="5.930425">
        <ele>322.017373</ele>
        <time>2017-06-02T09:09:38.535Z</time>
      </trkpt>
      <trkpt lat="45.724324" lon="5.930248">
        <ele>321.238807</ele>
        <time>2017-06-02T09:09:40.613Z</time>
      </trkpt>
      <trkpt lat="45.724198" lon="5.929861">
        <ele>319.576459</ele>
        <time>2017-06-02T09:09:44.994Z</time>
      </trkpt>
      <trkpt lat="45.724192" lon="5.929843">
        <ele>319.498808</ele>
        <time>2017-06-02T09:09:45.196Z</time>
      </trkpt>
      <trkpt lat="45.724150" lon="5.929691">
        <ele>318.862419</ele>
        <time>2017-06-02T09:09:46.856Z</time>
      </trkpt>
      <trkpt lat="45.724125" lon="5.929599">
        <ele>318.478093</ele>
        <time>2017-06-02T09:09:47.807Z</time>
      </trkpt>
      <trkpt lat="45.724016" lon="5.929109">
        <ele>316.476057</ele>
        <time>2017-06-02T09:09:52.943Z</time>
      </trkpt>
      <trkpt lat="45.723989" lon="5.928502">
        <ele>314.108250</ele>
        <time>2017-06-02T09:09:59.228Z</time>
      </trkpt>
      <trkpt lat="45.723889" lon="5.927959">
        <ele>311.773777</ele>
        <time>2017-06-02T09:10:04.952Z</time>
      </trkpt>
      <trkpt lat="45.723883" lon="5.927940">
        <ele>311.685543</ele>
        <time>2017-06-02T09:10:05.135Z</time>
      </trkpt>
      <trkpt lat="45.723855" lon="5.927853">
        <ele>311.280198</ele>
        <time>2017-06-02T09:10:06.163Z</time>
      </trkpt>
      <trkpt lat="45.723823" lon="5.927762">
        <ele>310.849075</ele>
        <time>2017-06-02T09:10:07.249Z</time>
      </trkpt>
      <trkpt lat="45.723728" lon="5.927492">
        <ele>309.569768</ele>
        <time>2017-06-02T09:10:10.353Z</time>
      </trkpt>
      <trkpt lat="45.723551" lon="5.927092">
        <ele>307.565954</ele>
        <time>2017-06-02T09:10:15.230Z</time>
      </trkpt>
      <trkpt lat="45.723446" lon="5.926854">
        <ele>306.374704</ele>
        <time>2017-06-02T09:10:18.043Z</time>
      </trkpt>
      <trkpt lat="45.723405" lon="5.926762">
        <ele>305.912882</ele>
        <time>2017-06-02T09:10:19.178Z</time>
      </trkpt>
      <trkpt lat="45.723341" lon="5.926573">
        <ele>305.024079</ele>
        <time>2017-06-02T09:10:21.258Z</time>
      </trkpt>
      <trkpt lat="45.723291" lon="5.926405">
        <ele>304.251338</ele>
        <time>2017-06-02T09:10:23.145Z</time>
      </trkpt>
      <trkpt lat="45.723211" lon="5.926070">
        <ele>302.753251</ele>
        <time>2017-06-02T09:10:26.721Z</time>
      </trkpt>
      <trkpt lat="45.723160" lon="5.925793">
        <ele>301.920961</ele>
        <time>2017-06-02T09:10:29.701Z</time>
      </trkpt>
      <trkpt lat="45.723092" lon="5.925430">
        <ele>300.839733</ele>
        <time>2017-06-02T09:10:33.669Z</time>
      </trkpt>
      <trkpt lat="45.723081" lon="5.925379">
        <ele>300.686172</ele>
        <time>2017-06-02T09:10:34.242Z</time>
      </trkpt>
      <trkpt lat="45.722979" lon="5.924878">
        <ele>299.184843</ele>
        <time>2017-06-02T09:10:39.890Z</time>
      </trkpt>
      <trkpt lat="45.722958" lon="5.924784">
        <ele>298.900912</ele>
        <time>2017-06-02T09:10:40.973Z</time>
      </trkpt>
      <trkpt lat="45.722927" lon="5.924645">
        <ele>298.481123</ele>
        <time>2017-06-02T09:10:42.580Z</time>
      </trkpt>
      <trkpt lat="45.722862" lon="5.924353">
        <ele>297.599417</ele>
        <time>2017-06-02T09:10:45.935Z</time>
      </trkpt>
      <trkpt lat="45.722762" lon="5.923918">
        <ele>296.281892</ele>
        <time>2017-06-02T09:10:51.079Z</time>
      </trkpt>
      <trkpt lat="45.722736" lon="5.923797">
        <ele>295.917678</ele>
        <time>2017-06-02T09:10:52.538Z</time>
      </trkpt>
      <trkpt lat="45.722673" lon="5.923605">
        <ele>295.312697</ele>
        <time>2017-06-02T09:10:55.059Z</time>
      </trkpt>
      <trkpt lat="45.722633" lon="5.923518">
        <ele>295.199587</ele>
        <time>2017-06-02T09:10:56.310Z</time>
      </trkpt>
      <trkpt lat="45.722552" lon="5.923399">
        <ele>295.019127</ele>
        <time>2017-06-02T09:10:58.297Z</time>
      </trkpt>
      <trkpt lat="45.722460" lon="5.923270">
        <ele>294.818894</ele>
        <time>2017-06-02T09:11:00.560Z</time>
      </trkpt>
      <trkpt lat="45.722301" lon="5.923116">
        <ele>294.520374</ele>
        <time>2017-06-02T09:11:04.063Z</time>
      </trkpt>
      <trkpt lat="45.722101" lon="5.922987">
        <ele>294.179233</ele>
        <time>2017-06-02T09:11:08.102Z</time>
      </trkpt>
      <trkpt lat="45.722029" lon="5.922908">
        <ele>294.038173</ele>
        <time>2017-06-02T09:11:09.822Z</time>
      </trkpt>
      <trkpt lat="45.722010" lon="5.922843">
        <ele>293.961659</ele>
        <time>2017-06-02T09:11:10.743Z</time>
      </trkpt>
      <trkpt lat="45.721976" lon="5.922789">
        <ele>293.882702</ele>
        <time>2017-06-02T09:11:11.677Z</time>
      </trkpt>
      <trkpt lat="45.721940" lon="5.922757">
        <ele>293.816806</ele>
        <time>2017-06-02T09:11:12.496Z</time>
      </trkpt>
      <trkpt lat="45.721898" lon="5.922742">
        <ele>293.749484</ele>
        <time>2017-06-02T09:11:13.327Z</time>
      </trkpt>
      <trkpt lat="45.721850" lon="5.922744">
        <ele>293.674798</ele>
        <time>2017-06-02T09:11:14.267Z</time>
      </trkpt>
      <trkpt lat="45.721806" lon="5.922767">
        <ele>293.601950</ele>
        <time>2017-06-02T09:11:15.199Z</time>
      </trkpt>
      <trkpt lat="45.721768" lon="5.922809">
        <ele>293.527300</ele>
        <time>2017-06-02T09:11:16.116Z</time>
      </trkpt>
      <trkpt lat="45.721685" lon="5.922886">
        <ele>293.373500</ele>
        <time>2017-06-02T09:11:17.966Z</time>
      </trkpt>
      <trkpt lat="45.721593" lon="5.922938">
        <ele>293.219675</ele>
        <time>2017-06-02T09:11:19.853Z</time>
      </trkpt>
      <trkpt lat="45.721451" lon="5.922988">
        <ele>292.992248</ele>
        <time>2017-06-02T09:11:22.723Z</time>
      </trkpt>
      <trkpt lat="45.721146" lon="5.923065">
        <ele>292.511625</ele>
        <time>2017-06-02T09:11:28.586Z</time>
      </trkpt>
      <trkpt lat="45.720759" lon="5.923087">
        <ele>291.989169</ele>
        <time>2017-06-02T09:11:35.898Z</time>
      </trkpt>
      <trkpt lat="45.720033" lon="5.922869">
        <ele>290.988539</ele>
        <time>2017-06-02T09:11:49.852Z</time>
      </trkpt>
      <trkpt lat="45.719578" lon="5.922671">
        <ele>290.347063</ele>
        <time>2017-06-02T09:11:58.647Z</time>
      </trkpt>
      <trkpt lat="45.718582" lon="5.922077">
        <ele>288.145264</ele>
        <time>2017-06-02T09:12:17.915Z</time>
      </trkpt>
      <trkpt lat="45.718490" lon="5.922013">
        <ele>287.921517</ele>
        <time>2017-06-02T09:12:19.569Z</time>
      </trkpt>
      <trkpt lat="45.718481" lon="5.921951">
        <ele>287.824794</ele>
        <time>2017-06-02T09:12:20.357Z</time>
      </trkpt>
      <trkpt lat="45.718459" lon="5.921895">
        <ele>287.726650</ele>
        <time>2017-06-02T09:12:21.177Z</time>
      </trkpt>
      <trkpt lat="45.718426" lon="5.921852">
        <ele>287.629052</ele>
        <time>2017-06-02T09:12:21.964Z</time>
      </trkpt>
      <trkpt lat="45.718404" lon="5.921835">
        <ele>287.574366</ele>
        <time>2017-06-02T09:12:22.414Z</time>
      </trkpt>
      <trkpt lat="45.718380" lon="5.921824">
        <ele>287.519240</ele>
        <time>2017-06-02T09:12:22.869Z</time>
      </trkpt>
      <trkpt lat="45.718356" lon="5.921819">
        <ele>287.466183</ele>
        <time>2017-06-02T09:12:23.314Z</time>
      </trkpt>
      <trkpt lat="45.718330" lon="5.921820">
        <ele>287.409284</ele>
        <time>2017-06-02T09:12:23.779Z</time>
      </trkpt>
      <trkpt lat="45.718305" lon="5.921828">
        <ele>287.353244</ele>
        <time>2017-06-02T09:12:24.239Z</time>
      </trkpt>
      <trkpt lat="45.718213" lon="5.921808">
        <ele>287.149675</ele>
        <time>2017-06-02T09:12:25.740Z</time>
      </trkpt>
      <trkpt lat="45.718043" lon="5.921697">
        <ele>286.740952</ele>
        <time>2017-06-02T09:12:29.066Z</time>
      </trkpt>
      <trkpt lat="45.715590" lon="5.919826">
        <ele>278.570707</ele>
        <time>2017-06-02T09:13:14.622Z</time>
      </trkpt>
      <trkpt lat="45.715480" lon="5.919706">
        <ele>278.157462</ele>
        <time>2017-06-02T09:13:16.796Z</time>
      </trkpt>
      <trkpt lat="45.715418" lon="5.919616">
        <ele>277.893640</ele>
        <time>2017-06-02T09:13:18.240Z</time>
      </trkpt>
      <trkpt lat="45.715250" lon="5.919299">
        <ele>277.063196</ele>
        <time>2017-06-02T09:13:22.911Z</time>
      </trkpt>
      <trkpt lat="45.715177" lon="5.919102">
        <ele>276.597814</ele>
        <time>2017-06-02T09:13:25.556Z</time>
      </trkpt>
      <trkpt lat="45.715128" lon="5.918922">
        <ele>276.194672</ele>
        <time>2017-06-02T09:13:27.773Z</time>
      </trkpt>
      <trkpt lat="45.715138" lon="5.918883">
        <ele>276.107977</ele>
        <time>2017-06-02T09:13:28.252Z</time>
      </trkpt>
      <trkpt lat="45.715139" lon="5.918842">
        <ele>276.022371</ele>
        <time>2017-06-02T09:13:28.719Z</time>
      </trkpt>
      <trkpt lat="45.715131" lon="5.918801">
        <ele>275.933538</ele>
        <time>2017-06-02T09:13:29.200Z</time>
      </trkpt>
      <trkpt lat="45.715113" lon="5.918766">
        <ele>275.842831</ele>
        <time>2017-06-02T09:13:29.697Z</time>
      </trkpt>
      <trkpt lat="45.715088" lon="5.918742">
        <ele>275.752885</ele>
        <time>2017-06-02T09:13:30.193Z</time>
      </trkpt>
      <trkpt lat="45.715064" lon="5.918606">
        <ele>275.460171</ele>
        <time>2017-06-02T09:13:31.849Z</time>
      </trkpt>
      <trkpt lat="45.715061" lon="5.918589">
        <ele>275.423582</ele>
        <time>2017-06-02T09:13:32.054Z</time>
      </trkpt>
      <trkpt lat="45.715043" lon="5.918479">
        <ele>275.231751</ele>
        <time>2017-06-02T09:13:33.368Z</time>
      </trkpt>
      <trkpt lat="45.715022" lon="5.918102">
        <ele>274.688944</ele>
        <time>2017-06-02T09:13:37.774Z</time>
      </trkpt>
      <trkpt lat="45.715027" lon="5.917974">
        <ele>274.504945</ele>
        <time>2017-06-02T09:13:39.293Z</time>
      </trkpt>
      <trkpt lat="45.715035" lon="5.917767">
        <ele>274.207394</ele>
        <time>2017-06-02T09:13:41.696Z</time>
      </trkpt>
      <trkpt lat="45.715048" lon="5.917650">
        <ele>274.037357</ele>
        <time>2017-06-02T09:13:43.129Z</time>
      </trkpt>
      <trkpt lat="45.715075" lon="5.917626">
        <ele>273.972037</ele>
        <time>2017-06-02T09:13:43.658Z</time>
      </trkpt>
      <trkpt lat="45.715095" lon="5.917592">
        <ele>273.908229</ele>
        <time>2017-06-02T09:13:44.206Z</time>
      </trkpt>
      <trkpt lat="45.715108" lon="5.917551">
        <ele>273.843601</ele>
        <time>2017-06-02T09:13:44.765Z</time>
      </trkpt>
      <trkpt lat="45.715111" lon="5.917502">
        <ele>273.773004</ele>
        <time>2017-06-02T09:13:45.392Z</time>
      </trkpt>
      <trkpt lat="45.715103" lon="5.917453">
        <ele>273.700780</ele>
        <time>2017-06-02T09:13:45.998Z</time>
      </trkpt>
      <trkpt lat="45.715084" lon="5.917412">
        <ele>273.630154</ele>
        <time>2017-06-02T09:13:46.642Z</time>
      </trkpt>
      <trkpt lat="45.715060" lon="5.917384">
        <ele>273.566524</ele>
        <time>2017-06-02T09:13:47.179Z</time>
      </trkpt>
      <trkpt lat="45.715031" lon="5.917367">
        <ele>273.502113</ele>
        <time>2017-06-02T09:13:47.741Z</time>
      </trkpt>
      <trkpt lat="45.715001" lon="5.917363">
        <ele>273.440179</ele>
        <time>2017-06-02T09:13:48.305Z</time>
      </trkpt>
      <trkpt lat="45.714971" lon="5.917373">
        <ele>273.376864</ele>
        <time>2017-06-02T09:13:48.892Z</time>
      </trkpt>
      <trkpt lat="45.714944" lon="5.917394">
        <ele>273.313708</ele>
        <time>2017-06-02T09:13:49.473Z</time>
      </trkpt>
      <trkpt lat="45.714919" lon="5.917430">
        <ele>273.240835</ele>
        <time>2017-06-02T09:13:50.079Z</time>
      </trkpt>
      <trkpt lat="45.714905" lon="5.917476">
        <ele>273.168814</ele>
        <time>2017-06-02T09:13:50.718Z</time>
      </trkpt>
      <trkpt lat="45.714903" lon="5.917526">
        <ele>273.096934</ele>
        <time>2017-06-02T09:13:51.369Z</time>
      </trkpt>
      <trkpt lat="45.714911" lon="5.917573">
        <ele>273.027502</ele>
        <time>2017-06-02T09:13:51.971Z</time>
      </trkpt>
      <trkpt lat="45.714930" lon="5.917614">
        <ele>272.956875</ele>
        <time>2017-06-02T09:13:52.533Z</time>
      </trkpt>
      <trkpt lat="45.714957" lon="5.917644">
        <ele>272.886631</ele>
        <time>2017-06-02T09:13:53.116Z</time>
      </trkpt>
      <trkpt lat="45.714953" lon="5.917743">
        <ele>272.744304</ele>
        <time>2017-06-02T09:13:54.345Z</time>
      </trkpt>
      <trkpt lat="45.714957" lon="5.917865">
        <ele>272.569011</ele>
        <time>2017-06-02T09:13:55.911Z</time>
      </trkpt>
      <trkpt lat="45.714931" lon="5.917841">
        <ele>272.505427</ele>
        <time>2017-06-02T09:13:56.460Z</time>
      </trkpt>
      <trkpt lat="45.714838" lon="5.917630">
        <ele>272.147300</ele>
        <time>2017-06-02T09:13:59.904Z</time>
      </trkpt>
      <trkpt lat="45.714675" lon="5.917441">
        <ele>271.716201</ele>
        <time>2017-06-02T09:14:03.963Z</time>
      </trkpt>
      <trkpt lat="45.713941" lon="5.917040">
        <ele>270.240425</ele>
        <time>2017-06-02T09:14:19.003Z</time>
      </trkpt>
      <trkpt lat="45.713868" lon="5.916990">
        <ele>270.089209</ele>
        <time>2017-06-02T09:14:20.422Z</time>
      </trkpt>
      <trkpt lat="45.713748" lon="5.916909">
        <ele>269.841302</ele>
        <time>2017-06-02T09:14:22.884Z</time>
      </trkpt>
      <trkpt lat="45.713647" lon="5.916791">
        <ele>269.597723</ele>
        <time>2017-06-02T09:14:25.218Z</time>
      </trkpt>
      <trkpt lat="45.712988" lon="5.916190">
        <ele>268.102789</ele>
        <time>2017-06-02T09:14:38.927Z</time>
      </trkpt>
      <trkpt lat="45.710934" lon="5.913991">
        <ele>262.151610</ele>
        <time>2017-06-02T09:15:22.673Z</time>
      </trkpt>
      <trkpt lat="45.710876" lon="5.913975">
        <ele>262.019589</ele>
        <time>2017-06-02T09:15:23.628Z</time>
      </trkpt>
      <trkpt lat="45.710645" lon="5.913745">
        <ele>261.390744</ele>
        <time>2017-06-02T09:15:28.478Z</time>
      </trkpt>
      <trkpt lat="45.709713" lon="5.912749">
        <ele>259.263325</ele>
        <time>2017-06-02T09:15:49.155Z</time>
      </trkpt>
      <trkpt lat="45.709517" lon="5.912553">
        <ele>258.937350</ele>
        <time>2017-06-02T09:15:53.530Z</time>
      </trkpt>
      <trkpt lat="45.709489" lon="5.912526">
        <ele>258.891320</ele>
        <time>2017-06-02T09:15:54.216Z</time>
      </trkpt>
      <trkpt lat="45.709063" lon="5.912139">
        <ele>258.203409</ele>
        <time>2017-06-02T09:16:04.008Z</time>
      </trkpt>
      <trkpt lat="45.708955" lon="5.912184">
        <ele>258.050035</ele>
        <time>2017-06-02T09:16:06.091Z</time>
      </trkpt>
      <trkpt lat="45.708888" lon="5.912334">
        <ele>257.880485</ele>
        <time>2017-06-02T09:16:08.528Z</time>
      </trkpt>
      <trkpt lat="45.708801" lon="5.912459">
        <ele>257.712436</ele>
        <time>2017-06-02T09:16:10.943Z</time>
      </trkpt>
      <trkpt lat="45.708785" lon="5.912423">
        <ele>257.671803</ele>
        <time>2017-06-02T09:16:11.514Z</time>
      </trkpt>
      <trkpt lat="45.708742" lon="5.912337">
        <ele>257.571086</ele>
        <time>2017-06-02T09:16:12.885Z</time>
      </trkpt>
      <trkpt lat="45.708571" lon="5.911944">
        <ele>257.181522</ele>
        <time>2017-06-02T09:16:19.390Z</time>
      </trkpt>
      <trkpt lat="45.708086" lon="5.910652">
        <ele>255.956066</ele>
        <time>2017-06-02T09:16:39.851Z</time>
      </trkpt>
      <trkpt lat="45.707754" lon="5.909593">
        <ele>254.935515</ele>
        <time>2017-06-02T09:16:55.424Z</time>
      </trkpt>
      <trkpt lat="45.707663" lon="5.909299">
        <ele>254.633659</ele>
        <time>2017-06-02T09:16:59.738Z</time>
      </trkpt>
      <trkpt lat="45.707433" lon="5.908562">
        <ele>253.875934</ele>
        <time>2017-06-02T09:17:10.719Z</time>
      </trkpt>
      <trkpt lat="45.707191" lon="5.907924">
        <ele>253.194431</ele>
        <time>2017-06-02T09:17:20.645Z</time>
      </trkpt>
      <trkpt lat="45.706960" lon="5.907040">
        <ele>252.462803</ele>
        <time>2017-06-02T09:17:33.713Z</time>
      </trkpt>
      <trkpt lat="45.706810" lon="5.906396">
        <ele>251.972148</ele>
        <time>2017-06-02T09:17:43.296Z</time>
      </trkpt>
      <trkpt lat="45.706567" lon="5.905712">
        <ele>251.417494</ele>
        <time>2017-06-02T09:17:54.102Z</time>
      </trkpt>
      <trkpt lat="45.706374" lon="5.905199">
        <ele>251.016017</ele>
        <time>2017-06-02T09:18:02.226Z</time>
      </trkpt>
      <trkpt lat="45.706345" lon="5.905121">
        <ele>250.962488</ele>
        <time>2017-06-02T09:18:03.529Z</time>
      </trkpt>
      <trkpt lat="45.706133" lon="5.904553">
        <ele>250.572358</ele>
        <time>2017-06-02T09:18:12.945Z</time>
      </trkpt>
      <trkpt lat="45.706051" lon="5.904329">
        <ele>250.419155</ele>
        <time>2017-06-02T09:18:16.527Z</time>
      </trkpt>
      <trkpt lat="45.705821" lon="5.903692">
        <ele>249.984760</ele>
        <time>2017-06-02T09:18:26.933Z</time>
      </trkpt>
      <trkpt lat="45.705737" lon="5.903477">
        <ele>249.835524</ele>
        <time>2017-06-02T09:18:30.393Z</time>
      </trkpt>
      <trkpt lat="45.705771" lon="5.903450">
        <ele>249.801800</ele>
        <time>2017-06-02T09:18:31.756Z</time>
      </trkpt>
      <trkpt lat="45.705893" lon="5.903378">
        <ele>249.687338</ele>
        <time>2017-06-02T09:18:36.325Z</time>
      </trkpt>
      <trkpt lat="45.706231" lon="5.903175">
        <ele>249.302501</ele>
        <time>2017-06-02T09:18:48.818Z</time>
      </trkpt>
      <trkpt lat="45.706234" lon="5.903109">
        <ele>249.248201</ele>
        <time>2017-06-02T09:18:50.464Z</time>
      </trkpt>
      <trkpt lat="45.705957" lon="5.902044">
        <ele>248.315171</ele>
        <time>2017-06-02T09:19:06.288Z</time>
      </trkpt>
      <trkpt lat="45.705529" lon="5.900420">
        <ele>246.841199</ele>
        <time>2017-06-02T09:19:29.777Z</time>
      </trkpt>
      <trkpt lat="45.705449" lon="5.900230">
        <ele>246.642949</ele>
        <time>2017-06-02T09:19:32.749Z</time>
      </trkpt>
      <trkpt lat="45.705194" lon="5.900004">
        <ele>246.259223</ele>
        <time>2017-06-02T09:19:38.566Z</time>
      </trkpt>
      <trkpt lat="45.704994" lon="5.899491">
        <ele>245.734221</ele>
        <time>2017-06-02T09:19:46.727Z</time>
      </trkpt>
      <trkpt lat="45.704726" lon="5.899159">
        <ele>245.280782</ele>
        <time>2017-06-02T09:19:53.812Z</time>
      </trkpt>
      <trkpt lat="45.704649" lon="5.899029">
        <ele>245.131174</ele>
        <time>2017-06-02T09:19:56.172Z</time>
      </trkpt>
      <trkpt lat="45.704564" lon="5.898855">
        <ele>244.980327</ele>
        <time>2017-06-02T09:19:59.102Z</time>
      </trkpt>
      <trkpt lat="45.704548" lon="5.898827">
        <ele>244.954626</ele>
        <time>2017-06-02T09:19:59.614Z</time>
      </trkpt>
      <trkpt lat="45.704488" lon="5.898830">
        <ele>244.893555</ele>
        <time>2017-06-02T09:20:00.771Z</time>
      </trkpt>
      <trkpt lat="45.704420" lon="5.898800">
        <ele>244.821175</ele>
        <time>2017-06-02T09:20:02.146Z</time>
      </trkpt>
      <trkpt lat="45.704356" lon="5.898751">
        <ele>244.747351</ele>
        <time>2017-06-02T09:20:03.491Z</time>
      </trkpt>
      <trkpt lat="45.704315" lon="5.898719">
        <ele>244.699852</ele>
        <time>2017-06-02T09:20:04.369Z</time>
      </trkpt>
      <trkpt lat="45.704259" lon="5.898676">
        <ele>244.635214</ele>
        <time>2017-06-02T09:20:05.574Z</time>
      </trkpt>
      <trkpt lat="45.704135" lon="5.898580">
        <ele>244.491822</ele>
        <time>2017-06-02T09:20:08.298Z</time>
      </trkpt>
      <trkpt lat="45.704079" lon="5.898504">
        <ele>244.413337</ele>
        <time>2017-06-02T09:20:09.751Z</time>
      </trkpt>
      <trkpt lat="45.704086" lon="5.898477">
        <ele>244.392877</ele>
        <time>2017-06-02T09:20:10.106Z</time>
      </trkpt>
      <trkpt lat="45.704079" lon="5.898423">
        <ele>244.353861</ele>
        <time>2017-06-02T09:20:10.833Z</time>
      </trkpt>
      <trkpt lat="45.704067" lon="5.898402">
        <ele>244.334585</ele>
        <time>2017-06-02T09:20:11.199Z</time>
      </trkpt>
      <trkpt lat="45.704061" lon="5.898234">
        <ele>244.215083</ele>
        <time>2017-06-02T09:20:13.444Z</time>
      </trkpt>
      <trkpt lat="45.704075" lon="5.898100">
        <ele>244.118831</ele>
        <time>2017-06-02T09:20:15.287Z</time>
      </trkpt>
      <trkpt lat="45.704126" lon="5.897539">
        <ele>243.716938</ele>
        <time>2017-06-02T09:20:22.893Z</time>
      </trkpt>
      <trkpt lat="45.704133" lon="5.897465">
        <ele>243.663888</ele>
        <time>2017-06-02T09:20:23.891Z</time>
      </trkpt>
      <trkpt lat="45.704159" lon="5.897178">
        <ele>243.458297</ele>
        <time>2017-06-02T09:20:27.944Z</time>
      </trkpt>
      <trkpt lat="45.704181" lon="5.896894">
        <ele>243.254855</ele>
        <time>2017-06-02T09:20:31.914Z</time>
      </trkpt>
      <trkpt lat="45.704198" lon="5.896676">
        <ele>243.097780</ele>
        <time>2017-06-02T09:20:35.003Z</time>
      </trkpt>
      <trkpt lat="45.704201" lon="5.896630">
        <ele>243.064698</ele>
        <time>2017-06-02T09:20:35.646Z</time>
      </trkpt>
      <trkpt lat="45.704238" lon="5.896128">
        <ele>242.703232</ele>
        <time>2017-06-02T09:20:42.456Z</time>
      </trkpt>
      <trkpt lat="45.704265" lon="5.895749">
        <ele>242.430432</ele>
        <time>2017-06-02T09:20:47.460Z</time>
      </trkpt>
      <trkpt lat="45.704299" lon="5.895407">
        <ele>242.183067</ele>
        <time>2017-06-02T09:20:51.991Z</time>
      </trkpt>
      <trkpt lat="45.704304" lon="5.895340">
        <ele>242.134817</ele>
        <time>2017-06-02T09:20:52.868Z</time>
      </trkpt>
      <trkpt lat="45.704311" lon="5.895245">
        <ele>242.066412</ele>
        <time>2017-06-02T09:20:54.156Z</time>
      </trkpt>
      <trkpt lat="45.704349" lon="5.894843">
        <ele>241.775926</ele>
        <time>2017-06-02T09:20:59.543Z</time>
      </trkpt>
      <trkpt lat="45.704378" lon="5.894830">
        <ele>241.744768</ele>
        <time>2017-06-02T09:21:00.130Z</time>
      </trkpt>
      <trkpt lat="45.704422" lon="5.894773">
        <ele>241.683929</ele>
        <time>2017-06-02T09:21:01.293Z</time>
      </trkpt>
      <trkpt lat="45.704435" lon="5.894734">
        <ele>241.652984</ele>
        <time>2017-06-02T09:21:01.885Z</time>
      </trkpt>
      <trkpt lat="45.704440" lon="5.894682">
        <ele>241.615397</ele>
        <time>2017-06-02T09:21:02.595Z</time>
      </trkpt>
      <trkpt lat="45.704432" lon="5.894631">
        <ele>241.577967</ele>
        <time>2017-06-02T09:21:03.302Z</time>
      </trkpt>
      <trkpt lat="45.704413" lon="5.894585">
        <ele>241.539698</ele>
        <time>2017-06-02T09:21:04.011Z</time>
      </trkpt>
      <trkpt lat="45.704385" lon="5.894552">
        <ele>241.502514</ele>
        <time>2017-06-02T09:21:04.722Z</time>
      </trkpt>
      <trkpt lat="45.704391" lon="5.894426">
        <ele>241.422817</ele>
        <time>2017-06-02T09:21:06.420Z</time>
      </trkpt>
      <trkpt lat="45.704422" lon="5.893845">
        <ele>241.085961</ele>
        <time>2017-06-02T09:21:14.396Z</time>
      </trkpt>
      <trkpt lat="45.704439" lon="5.893678">
        <ele>240.988397</ele>
        <time>2017-06-02T09:21:16.738Z</time>
      </trkpt>
      <trkpt lat="45.704447" lon="5.893593">
        <ele>240.938814</ele>
        <time>2017-06-02T09:21:17.912Z</time>
      </trkpt>
      <trkpt lat="45.704450" lon="5.893533">
        <ele>240.904039</ele>
        <time>2017-06-02T09:21:18.743Z</time>
      </trkpt>
      <trkpt lat="45.704459" lon="5.893410">
        <ele>240.832543</ele>
        <time>2017-06-02T09:21:20.424Z</time>
      </trkpt>
      <trkpt lat="45.704618" lon="5.891456">
        <ele>239.746720</ele>
        <time>2017-06-02T09:21:47.575Z</time>
      </trkpt>
      <trkpt lat="45.704650" lon="5.891140">
        <ele>239.595605</ele>
        <time>2017-06-02T09:21:52.059Z</time>
      </trkpt>
      <trkpt lat="45.704654" lon="5.891076">
        <ele>239.565195</ele>
        <time>2017-06-02T09:21:52.987Z</time>
      </trkpt>
      <trkpt lat="45.704639" lon="5.891010">
        <ele>239.532347</ele>
        <time>2017-06-02T09:21:53.938Z</time>
      </trkpt>
      <trkpt lat="45.704569" lon="5.890891">
        <ele>239.458712</ele>
        <time>2017-06-02T09:21:56.064Z</time>
      </trkpt>
      <trkpt lat="45.704464" lon="5.890875">
        <ele>239.387153</ele>
        <time>2017-06-02T09:21:58.196Z</time>
      </trkpt>
      <trkpt lat="45.704065" lon="5.890945">
        <ele>239.114736</ele>
        <time>2017-06-02T09:22:06.270Z</time>
      </trkpt>
      <trkpt lat="45.703977" lon="5.890969">
        <ele>239.054028</ele>
        <time>2017-06-02T09:22:08.077Z</time>
      </trkpt>
      <trkpt lat="45.703594" lon="5.891077">
        <ele>238.789491</ele>
        <time>2017-06-02T09:22:15.971Z</time>
      </trkpt>
      <trkpt lat="45.703148" lon="5.891214">
        <ele>238.727909</ele>
        <time>2017-06-02T09:22:25.390Z</time>
      </trkpt>
      <trkpt lat="45.702999" lon="5.891260">
        <ele>238.716060</ele>
        <time>2017-06-02T09:22:28.656Z</time>
      </trkpt>
      <trkpt lat="45.702966" lon="5.891270">
        <ele>238.713438</ele>
        <time>2017-06-02T09:22:29.403Z</time>
      </trkpt>
      <trkpt lat="45.702877" lon="5.891297">
        <ele>238.706366</ele>
        <time>2017-06-02T09:22:31.482Z</time>
      </trkpt>
      <trkpt lat="45.702844" lon="5.891306">
        <ele>238.703754</ele>
        <time>2017-06-02T09:22:32.172Z</time>
      </trkpt>
      <trkpt lat="45.702688" lon="5.891355">
        <ele>238.691339</ele>
        <time>2017-06-02T09:22:35.684Z</time>
      </trkpt>
      <trkpt lat="45.702550" lon="5.891397">
        <ele>238.680372</ele>
        <time>2017-06-02T09:22:38.921Z</time>
      </trkpt>
      <trkpt lat="45.702516" lon="5.891408">
        <ele>238.677662</ele>
        <time>2017-06-02T09:22:39.687Z</time>
      </trkpt>
      <trkpt lat="45.702481" lon="5.891419">
        <ele>238.674877</ele>
        <time>2017-06-02T09:22:40.435Z</time>
      </trkpt>
      <trkpt lat="45.702454" lon="5.891426">
        <ele>238.672744</ele>
        <time>2017-06-02T09:22:41.043Z</time>
      </trkpt>
      <trkpt lat="45.702427" lon="5.891433">
        <ele>238.670611</ele>
        <time>2017-06-02T09:22:41.637Z</time>
      </trkpt>
      <trkpt lat="45.702366" lon="5.891450">
        <ele>238.665780</ele>
        <time>2017-06-02T09:22:43.015Z</time>
      </trkpt>
      <trkpt lat="45.702215" lon="5.891425">
        <ele>238.653963</ele>
        <time>2017-06-02T09:22:46.504Z</time>
      </trkpt>
      <trkpt lat="45.702205" lon="5.891396">
        <ele>238.652207</ele>
        <time>2017-06-02T09:22:47.020Z</time>
      </trkpt>
      <trkpt lat="45.702190" lon="5.891374">
        <ele>238.650538</ele>
        <time>2017-06-02T09:22:47.503Z</time>
      </trkpt>
      <trkpt lat="45.702171" lon="5.891359">
        <ele>238.648851</ele>
        <time>2017-06-02T09:22:47.967Z</time>
      </trkpt>
      <trkpt lat="45.702152" lon="5.891353">
        <ele>238.647339</ele>
        <time>2017-06-02T09:22:48.389Z</time>
      </trkpt>
      <trkpt lat="45.702132" lon="5.891355">
        <ele>238.645780</ele>
        <time>2017-06-02T09:22:48.830Z</time>
      </trkpt>
      <trkpt lat="45.702114" lon="5.891365">
        <ele>238.644280</ele>
        <time>2017-06-02T09:22:49.263Z</time>
      </trkpt>
      <trkpt lat="45.702078" lon="5.891430">
        <ele>238.639776</ele>
        <time>2017-06-02T09:22:50.539Z</time>
      </trkpt>
      <trkpt lat="45.702076" lon="5.891457">
        <ele>238.638302</ele>
        <time>2017-06-02T09:22:50.980Z</time>
      </trkpt>
      <trkpt lat="45.702021" lon="5.891526">
        <ele>238.632617</ele>
        <time>2017-06-02T09:22:52.662Z</time>
      </trkpt>
      <trkpt lat="45.702000" lon="5.891542">
        <ele>238.630768</ele>
        <time>2017-06-02T09:22:53.194Z</time>
      </trkpt>
      <trkpt lat="45.701915" lon="5.891524">
        <ele>238.624088</ele>
        <time>2017-06-02T09:22:55.256Z</time>
      </trkpt>
      <trkpt lat="45.701851" lon="5.891558">
        <ele>238.624903</ele>
        <time>2017-06-02T09:22:56.778Z</time>
      </trkpt>
      <trkpt lat="45.701442" lon="5.891689">
        <ele>238.736723</ele>
        <time>2017-06-02T09:23:06.609Z</time>
      </trkpt>
      <trkpt lat="45.701392" lon="5.891448">
        <ele>238.783569</ele>
        <time>2017-06-02T09:23:10.889Z</time>
      </trkpt>
      <trkpt lat="45.701273" lon="5.890013">
        <ele>239.052840</ele>
        <time>2017-06-02T09:23:34.488Z</time>
      </trkpt>
      <trkpt lat="45.701273" lon="5.889995">
        <ele>239.056194</ele>
        <time>2017-06-02T09:23:34.857Z</time>
      </trkpt>
      <trkpt lat="45.701269" lon="5.889426">
        <ele>239.171036</ele>
        <time>2017-06-02T09:23:43.789Z</time>
      </trkpt>
      <trkpt lat="45.701447" lon="5.885753">
        <ele>239.647947</ele>
        <time>2017-06-02T09:24:44.377Z</time>
      </trkpt>
      <trkpt lat="45.701449" lon="5.885690">
        <ele>239.647947</ele>
        <time>2017-06-02T09:24:45.497Z</time>
      </trkpt>
      <trkpt lat="45.701500" lon="5.885712">
        <ele>239.647947</ele>
        <time>2017-06-02T09:24:46.875Z</time>
      </trkpt>
      <trkpt lat="45.701556" lon="5.885752">
        <ele>239.647947</ele>
        <time>2017-06-02T09:24:48.372Z</time>
      </trkpt>
      <trkpt lat="45.701607" lon="5.885834">
        <ele>239.647947</ele>
        <time>2017-06-02T09:24:50.373Z</time>
      </trkpt>
      <trkpt lat="45.701652" lon="5.885941">
        <ele>239.647947</ele>
        <time>2017-06-02T09:24:52.644Z</time>
      </trkpt>
      <trkpt lat="45.701681" lon="5.886038">
        <ele>239.647947</ele>
        <time>2017-06-02T09:24:54.854Z</time>
      </trkpt>
      <trkpt lat="45.701812" lon="5.886373">
        <ele>239.647947</ele>
        <time>2017-06-02T09:25:01.643Z</time>
      </trkpt>
      <trkpt lat="45.701895" lon="5.886534">
        <ele>239.647947</ele>
        <time>2017-06-02T09:25:05.616Z</time>
      </trkpt>
    </trkseg>
  </trk>
</gpx>